[[{"header":{"parameterUnit":"m.s-1","parameterCategory":1,"la1":30.6,"la2":29.2853,"lo1":-89.7004,"lo2":-87.6739,"dy":0.0162,"dx":0.0183,"nx":112,"ny":82,"refTime":"2026-03-16T12:00:00:Z","depth":0,"parameterNumber":2,"parameterNumberName":"U-component_of_WINDS"},"data":[0.0,0.0,0.0,0.0,0.0,0.0,0.0,0.0,0.0,0.0,0.0,0.0,0.0,0.0,0.0,0.0,0.0,0.0,0.0,0.0,0.0,0.0,0.0,0.0,0.0,0.0,0.0,0.0,0.0,0.0,0.0,0.0,0.0,0.0,0.0,0.0,0.0,0.0,0.0,0.0,0.0,0.0,0.0,0.0,0.0,0.0,0.0,0.0,0.0,0.0,0.0,0.0,0.0,0.0,0.0,0.0,0.0,0.0,0.0,0.0,0.0,0.0,0.0,0.0,0.0,0.0,0.0,0.0,0.0,0.0,0.0,0.0,0.0,0.0,0.0,0.0,0.0,0.0,0.0,0.0,0.0,0.0,0.0,0.0,0.0,0.0,0.0,0.0,0.0,0.0,0.0,0.5705,0.6246,0.6361,0.5926,0.5214,0.4722,0.4509,0.0,0.0,0.0,0.0,0.0,0.0,0.0,0.0,0.0,0.0,0.0,0.0,0.0,0.0,0.0,0.0,0.0,0.0,0.0,0.0,0.0,0.0,0.0,0.0,0.0,0.0,0.0,0.0,0.0,0.0,0.0,0.0,0.0,0.0,0.0,0.0,0.0,0.0,0.0,0.0,0.0,0.0,0.0,0.0,0.0,0.0,0.0,0.0,0.0,0.0,0.0,0.0,0.0,0.0,0.0,0.0,0.0,0.0,0.0,0.0,0.0,0.0,0.0,0.0,0.0,0.0,0.0,0.0,0.0,0.0,0.0,0.0,0.0,0.0,0.0,0.0,0.0,0.0,0.0,0.0,0.0,0.0,0.0,0.0,0.0,0.0,0.0,0.0,0.0,0.0,0.0,0.0,0.0,0.0,0.0,0.0,0.0,0.0,0.0,0.0,0.0,0.0,0.0,0.0,0.5162,0.6493,0.6874,0.6884,0.6349,0.6198,0.5752,0.4963,0.0,0.0,0.0,0.0,0.0,0.0,0.0,0.0,0.0,0.0,0.0,0.0,0.0,0.0,0.0,0.0,0.0,0.0,0.0,0.0,0.0,0.0,0.0,0.0,0.0,0.0,0.0,0.0,0.0,0.0,0.0,0.0,0.0,0.0,0.0,0.0,0.0,0.0,0.0,0.0,0.0,0.0,0.0,0.0,0.0,0.0,0.0,0.0,0.0,0.0,0.0,0.0,0.0,0.0,0.0,0.0,0.0,0.0,0.0,0.0,0.0,0.0,0.0,0.0,0.0,0.0,0.0,0.0,0.0,0.0,0.0,0.0,0.0,0.0,0.0,0.0,0.0,0.0,0.0,0.0,0.0,0.0,0.0,0.0,0.0,0.0,0.0,0.0,0.0,0.0,0.0,0.0,0.0,0.0,0.0,0.0,0.0,0.0,0.0,0.0,0.0,0.0,0.0,0.5308,0.5991,0.6939,0.7127,0.7042,0.6698,0.6263,0.5853,0.5504,0.4229,0.0,0.0,0.0,0.0,0.0,0.0,0.0,0.0,0.0,0.0,0.0,0.0,0.0,0.0,0.0,0.0,0.0,0.0,0.0,0.0,0.0,0.0,0.0,0.0,0.0,0.0,0.0,0.0,0.0,0.0,0.0,0.0,0.0,0.0,0.0,0.0,0.0,0.0,0.0,0.0,0.0,0.0,0.0,0.0,0.0,0.0,0.0,0.0,0.0,0.0,0.0,0.0,0.0,0.0,0.0,0.0,0.0,0.0,0.0,0.0,0.0,0.0,0.0,0.0,0.0,0.0,0.0,0.0,0.0,0.0,0.0,0.0,0.0,0.0,0.0,0.0,0.0,0.0,0.0,0.0,0.0,0.0,0.0,0.0,0.0,0.0,0.0,0.0,0.0,0.0,0.0,0.0,0.0,0.0,0.0,0.0,0.0,0.0,0.0,0.0,0.0,0.0,0.6127,0.6732,0.7279,0.7399,0.7346,0.7105,0.6537,0.6104,0.595,0.4834,0.0,0.0,0.0,0.0,0.0,0.0,0.0,0.0,0.0,0.0,0.0,0.0,0.0,0.0,0.0,0.0,0.0,0.0,0.0,0.0,0.0,0.0,0.0,0.0,0.0,0.0,0.0,0.0,0.0,0.0,0.0,0.0,0.0,0.0,0.0,0.0,0.0,0.0,0.0,0.0,0.0,0.0,0.0,0.0,0.0,0.0,0.0,0.0,0.0,0.0,0.0,0.0,0.0,0.0,0.0,0.0,0.0,0.0,0.0,0.0,0.0,0.0,0.0,0.0,0.0,0.0,0.0,0.0,0.0,0.0,0.0,0.0,0.0,0.0,0.0,0.0,0.0,0.0,0.0,0.0,0.0,0.0,0.0,0.0,0.0,0.0,0.0,0.0,0.0,0.0,0.0,0.0,0.0,0.0,0.0,0.0,0.0,0.0,0.0,0.0,0.0,0.0,0.6253,0.7031,0.7763,0.8063,0.8051,0.769,0.7599,0.7101,0.6045,0.5254,0.0,0.0,0.0,0.0,0.0,0.0,0.0,0.0,0.0,0.0,0.0,0.0,0.0,0.0,0.0,0.0,0.0,0.0,0.0,0.0,0.0,0.0,0.0,0.0,0.0,0.0,0.0,0.0,0.0,0.0,0.0,0.0,0.0,0.0,0.0,0.0,0.0,0.0,0.0,0.0,0.0,0.0,0.0,0.0,0.0,0.0,0.0,0.0,0.0,0.0,0.0,0.0,0.0,0.0,0.0,0.0,0.0,0.0,0.0,0.0,0.0,0.0,0.0,0.0,0.0,0.0,0.0,0.0,0.0,0.0,0.0,0.0,0.0,0.0,0.0,0.0,0.0,0.0,0.0,0.0,0.0,0.0,0.0,0.0,0.0,0.0,0.0,0.0,0.0,0.0,0.0,0.0,0.0,0.0,0.0,0.0,0.0,0.0,0.0,0.0,0.0,0.0,0.6585,0.7084,0.0,0.7541,0.7496,0.7289,0.696,0.6553,0.6074,0.0,0.0,0.0,0.0,0.0,0.0,0.0,0.0,0.0,0.0,0.0,0.0,0.0,0.0,0.0,0.0,0.0,0.0,0.0,0.0,0.0,0.0,0.0,0.0,0.0,0.0,0.0,0.0,0.0,0.0,0.0,0.0,0.0,0.0,0.0,0.0,0.0,0.0,0.0,0.0,0.0,0.0,0.0,0.0,0.0,0.0,0.0,0.0,0.0,0.0,0.0,0.0,0.0,0.0,0.0,0.0,0.0,0.0,0.0,0.0,0.0,0.0,0.0,0.0,0.0,0.0,0.0,0.0,0.0,0.0,0.0,0.0,0.0,0.0,0.0,0.0,0.0,0.0,0.0,0.0,0.0,0.0,0.0,0.0,0.0,0.0,0.0,0.0,0.0,0.0,0.0,0.0,0.0,0.0,0.0,0.0,0.0,0.0,0.0,0.0,0.0,0.0,0.6326,0.7073,0.7529,0.0,0.7603,0.7491,0.7416,0.6929,0.6523,0.6231,0.0,0.0,0.0,0.0,0.0,0.0,0.0,0.0,0.0,0.0,0.0,0.0,0.0,0.0,0.0,0.0,0.0,0.0,0.0,0.0,0.0,0.0,0.0,0.0,0.0,0.0,0.0,0.0,0.0,0.0,0.0,0.0,0.0,0.0,0.0,0.0,0.0,0.0,0.0,0.0,0.0,0.0,0.0,0.0,0.0,0.0,0.0,0.0,0.0,0.0,0.0,0.0,0.0,0.0,0.0,0.0,0.0,0.0,0.0,0.0,0.0,0.0,0.0,0.0,0.0,0.0,0.0,0.0,0.0,0.0,0.0,0.0,0.0,0.0,0.0,0.0,0.0,0.0,0.0,0.0,0.0,0.0,0.0,0.0,0.0,0.0,0.0,0.0,0.0,0.0,0.0,0.0,0.0,0.0,0.0,0.0,0.0,0.0,0.0,0.0,0.0,0.0,0.6543,0.7769,0.8602,0.8533,0.8491,0.8448,0.8308,0.7867,0.7251,0.0,0.0,0.0,0.0,0.0,0.0,0.0,0.0,0.0,0.0,0.0,0.0,0.0,0.0,0.0,0.0,0.0,0.0,0.0,0.0,0.0,0.0,0.0,0.0,0.0,0.0,0.0,0.0,0.0,0.0,0.0,0.0,0.0,0.0,0.0,0.0,0.0,0.0,0.0,0.0,0.0,0.0,0.0,0.0,0.0,0.0,0.0,0.0,0.0,0.0,0.0,0.0,0.0,0.0,0.0,0.0,0.0,0.0,0.0,0.0,0.0,0.0,0.0,0.0,0.0,0.0,0.0,0.0,0.0,0.0,0.0,0.0,0.0,0.0,0.0,0.0,0.0,0.0,0.0,0.0,0.0,0.0,0.0,0.0,0.0,0.0,0.0,0.0,0.0,0.0,0.0,0.0,0.0,0.0,0.0,0.0,0.0,0.0,0.0,0.0,0.0,0.0,0.0,0.7296,0.8638,0.9423,0.9213,0.8799,0.8588,0.8648,0.7845,0.7162,0.679,0.0,0.0,0.0,0.0,0.0,0.0,0.0,0.0,0.0,0.0,0.0,0.0,0.0,0.0,0.0,0.0,0.0,0.0,0.0,0.0,0.0,0.0,0.0,0.0,0.0,0.0,0.0,0.0,0.0,0.0,0.0,0.0,0.0,0.0,0.0,0.0,0.0,0.0,0.0,0.0,0.0,0.0,0.0,0.0,0.0,0.0,0.0,0.0,0.0,0.0,0.0,0.0,0.0,0.0,0.0,0.0,0.0,0.0,0.0,0.0,0.0,0.0,0.0,0.0,0.0,0.0,0.0,0.0,0.0,0.0,0.0,0.0,0.0,0.0,0.0,0.0,0.0,0.0,0.0,0.0,0.0,0.0,0.0,0.0,0.0,0.0,0.0,0.0,0.0,0.0,0.0,0.0,0.0,0.0,0.0,0.0,0.0,0.0,0.0,0.0,0.0,0.0,0.7845,0.9444,1.0355,0.9927,0.9514,0.9193,0.9115,0.8382,0.765,0.7065,0.0,0.0,0.0,0.0,0.0,0.0,0.0,0.0,0.0,0.0,0.0,0.0,0.0,0.0,0.0,0.0,0.0,0.0,0.0,0.0,0.0,0.0,0.0,0.0,0.0,0.0,0.0,0.0,0.0,0.0,0.0,0.0,0.0,0.0,0.0,0.0,0.0,0.0,0.0,0.0,0.0,0.0,0.0,0.0,0.0,0.0,0.0,0.0,0.0,0.0,0.0,0.0,0.0,0.0,0.0,0.0,0.0,0.0,0.0,0.0,0.0,0.0,0.0,0.0,0.0,0.0,0.0,0.0,0.0,0.0,0.0,0.0,0.0,0.0,0.0,0.0,0.0,0.0,0.0,0.0,0.0,0.0,0.0,0.0,0.0,0.0,0.0,0.0,0.0,0.0,0.0,0.0,0.0,0.0,0.0,0.0,0.0,0.0,0.0,0.0,0.0,0.0,0.8341,1.025,1.1304,1.0695,1.0425,1.0107,0.9736,0.9288,0.8524,0.7408,0.0,0.0,0.0,0.0,0.0,0.0,0.0,0.0,0.0,0.0,0.0,0.0,0.0,0.0,0.0,0.0,0.0,0.0,0.0,0.0,0.0,0.0,0.0,0.0,0.0,0.0,0.0,0.0,0.0,0.0,0.0,0.0,0.0,0.0,0.0,0.0,0.0,0.0,0.0,0.0,0.0,0.0,0.0,0.0,0.0,0.0,0.0,0.0,0.0,0.0,0.0,0.0,0.0,0.0,0.0,0.0,0.0,0.0,0.0,0.0,0.5409,0.0,0.0,0.0,0.0,0.0,0.0,0.0,0.0,0.0,0.0,0.0,0.0,0.0,0.0,0.0,0.0,0.0,0.0,0.0,0.0,0.0,0.0,0.0,0.0,0.0,0.0,0.0,0.0,0.0,0.0,0.0,0.0,0.0,0.0,0.0,0.0,0.0,0.0,0.0,0.0,0.0,0.9081,1.0819,1.1871,1.1634,1.1185,1.0745,1.0356,0.9644,0.898,0.8327,0.7153,0.0,0.0,0.0,0.0,0.0,0.0,0.0,0.0,0.0,0.0,0.0,0.0,0.0,0.0,0.0,0.0,0.0,0.0,0.0,0.0,0.0,0.0,0.0,0.0,0.0,0.0,0.0,0.0,0.0,0.0,0.0,0.0,0.0,0.0,0.0,0.0,0.0,0.0,0.0,0.0,0.0,0.0,0.0,0.0,0.0,0.0,0.0,0.0,0.0,0.0,0.0,0.0,0.0,0.0,0.0,0.0,0.0,0.0,0.0,0.0,0.6147,0.0,0.0,0.0,0.0,0.0,0.0,0.0,0.0,0.0,0.0,0.0,0.0,0.0,0.0,0.0,0.0,0.0,0.0,0.0,0.0,0.0,0.0,0.0,0.0,0.0,0.0,0.0,0.0,0.0,0.0,0.0,0.0,0.0,0.0,0.0,0.0,0.0,0.0,0.0,0.0,0.9257,1.0989,1.2076,1.1977,1.1737,1.1399,1.1003,1.0597,0.9978,0.905,0.8104,0.0,0.0,0.0,0.0,0.0,0.0,0.0,0.0,0.0,0.0,0.0,0.0,0.0,0.0,0.0,0.0,0.0,0.0,0.0,0.0,0.0,0.0,0.0,0.0,0.0,0.0,0.0,0.0,0.0,0.0,0.0,0.0,0.0,0.0,0.0,0.0,0.0,0.0,0.0,0.0,0.0,0.0,0.0,0.0,0.0,0.0,0.0,0.0,0.0,0.0,0.0,0.0,0.0,0.8763,0.9035,0.9493,0.9539,0.9629,0.9571,0.832,0.7835,0.7865,0.0,0.0,0.0,0.0,0.0,0.0,0.0,0.0,0.0,0.0,0.0,0.0,0.0,0.0,0.0,0.0,0.0,0.0,0.0,0.0,0.0,0.0,0.0,0.0,0.0,1.187,1.1543,0.0,0.0,0.0,0.0,0.0,0.0,0.0,0.0,0.0,0.0,0.0,0.0,0.9621,1.1176,1.2177,1.2177,1.2127,1.1944,1.1479,1.1442,1.0858,0.9555,0.9023,0.8227,0.0,0.0,0.0,0.0,0.0,0.0,0.0,0.0,0.0,0.0,0.0,0.0,0.0,0.0,0.0,0.0,0.0,0.0,0.0,0.0,0.0,0.0,0.0,0.0,0.0,0.0,0.0,0.0,0.0,0.0,0.0,0.0,0.415,0.4182,0.0,0.0,0.0,0.0,0.0,0.0,0.0,0.0,0.0,0.0,0.0,0.0,0.0,0.7915,0.8856,0.9105,0.9504,1.0055,1.0275,1.053,1.0732,1.0967,1.1228,1.1378,1.1124,0.0,0.9119,0.8932,0.0,0.0,0.0,0.0,0.0,0.0,0.0,0.0,0.0,0.0,0.0,0.0,0.0,0.0,0.0,0.0,0.0,0.0,0.0,0.0,0.0,0.0,1.4109,1.3729,1.3884,1.4005,0.0,1.1841,1.0178,1.0128,0.9678,0.0,0.0,0.0,0.0,0.0,0.0,0.0,1.0939,1.2016,1.259,1.2486,1.2322,1.1983,1.1211,1.1149,1.0793,0.9904,0.9429,0.8988,0.8466,0.8,0.0,0.0,0.0,0.0,0.0,0.0,0.0,0.0,0.0,0.0,0.0,0.0,0.0,0.0,0.0,0.0,0.0,0.0,0.0,0.0,0.0,0.0,0.0,0.0,0.0,0.0,0.0,0.0,0.0,0.4204,0.454,0.467,0.4985,0.5152,0.0,0.0,0.0,0.0,0.0,0.0,0.0,0.0,0.0,0.8066,0.8759,0.9519,1.036,1.084,1.1307,1.1921,1.1952,1.2135,1.2389,1.2508,1.2653,1.2739,1.2739,1.2338,1.1612,1.0605,0.979,0.913,0.0,0.0,0.0,0.0,1.008,1.0565,1.1665,1.1962,0.0,1.1157,0.0,0.0,0.0,0.0,0.0,0.0,0.0,0.0,0.0,0.0,1.586,1.5552,1.5887,1.6129,1.5909,1.497,1.3776,0.0,1.1973,1.1294,1.0075,0.0,0.0,0.0,0.0,1.0492,1.1414,1.2409,1.2958,1.2681,1.2325,1.1904,1.1531,1.1306,1.1037,1.0577,1.0552,1.0261,0.9645,0.9406,0.8764,0.0,0.0,0.0,0.0,0.0,0.0,0.0,0.0,0.0,0.0,0.0,0.0,0.0,0.0,0.0,0.0,0.0,0.0,0.0,0.0,0.0,0.0,0.0,0.0,0.0,0.0,0.0,0.0,0.4705,0.5066,0.5343,0.5583,0.576,0.0,0.0,0.0,0.0,0.0,0.0,0.7531,0.7794,0.8436,0.9388,1.019,1.095,1.1653,1.22,1.2759,1.3224,1.3296,1.3429,1.3616,1.3682,1.3713,1.3713,1.3713,1.3676,1.3513,1.2192,1.125,1.061,1.0284,1.0116,1.0258,1.1504,1.2254,1.2759,1.4111,1.4387,1.4042,1.3431,0.0,1.1177,0.9927,0.0,0.0,0.0,0.0,1.2749,1.3958,1.5692,1.7134,1.6991,1.7297,1.7578,1.7284,1.722,1.6611,0.0,1.4059,1.334,1.1822,0.0,0.0,0.0,0.0,1.1193,1.1878,1.277,1.3161,1.2823,1.2427,1.2129,1.1942,1.1636,1.136,1.1222,1.1402,1.1168,1.0444,1.0374,0.9772,0.8567,0.0,0.0,0.0,0.0,0.0,0.0,0.0,0.0,0.0,0.0,0.0,0.0,0.0,0.0,0.0,0.0,0.0,0.0,0.0,0.0,0.0,0.0,0.0,0.0,0.0,0.0,0.0,0.0,0.0,0.6293,0.6719,0.0,0.0,0.0,0.0,0.7319,0.779,0.8286,0.8756,0.9265,0.9896,1.0804,1.1337,1.1944,1.2638,1.2934,1.3224,1.3501,1.3749,1.3876,1.3894,1.4141,1.4256,1.4256,1.4256,1.4117,1.3839,1.326,1.2843,1.2518,1.2005,1.2024,1.2557,1.3959,1.4854,1.5661,1.7246,1.746,1.6992,1.6055,1.4141,1.1893,1.0949,1.0549,0.0,0.0,1.2932,1.4386,1.5259,1.6624,1.7766,1.7748,1.7915,1.8082,1.8064,1.8064,1.7697,0.0,1.5724,1.4997,1.3696,0.0,1.1826,1.1756,1.1388,1.154,1.2749,1.3169,1.3212,1.2739,1.2829,1.2738,1.2201,1.1913,1.1696,1.1601,1.1538,1.1241,1.0714,1.0561,1.0047,0.9182,0.8617,0.0,0.0,0.0,0.0,0.0,0.0,0.0,0.0,0.0,0.0,0.0,0.0,0.0,0.0,0.0,0.0,0.0,0.0,0.0,0.0,0.0,0.0,0.0,0.0,0.0,0.0,0.0,0.0,0.6993,0.7483,0.0,0.7828,0.7849,0.8091,0.8544,0.887,0.9341,0.998,1.0404,1.0965,1.1552,1.2248,1.2781,1.3224,1.3658,1.4014,1.4286,1.4383,1.4515,1.4684,1.4775,1.4817,1.4817,1.4817,1.4769,1.4666,1.4479,1.3839,1.2958,1.2771,1.2843,1.3284,1.4705,1.5604,1.6263,1.7777,1.7907,1.7172,1.6072,1.4767,1.3601,1.3265,1.307,1.3047,1.3809,1.4757,1.5811,1.6885,1.7985,1.9002,1.9264,1.9507,1.9514,1.917,1.8758,1.8222,1.7069,1.6648,1.6181,1.5442,1.439,1.3423,1.294,1.2505,1.2425,1.288,1.3087,1.3154,1.3195,1.3123,1.2997,1.2754,1.266,1.2451,1.2077,1.2172,1.2008,1.1366,1.1107,1.0729,1.0174,0.9674,0.8994,0.0,0.0,0.0,0.0,0.0,0.0,0.0,0.0,0.0,0.0,0.0,0.0,0.0,0.0,0.0,0.0,0.0,0.0,0.0,0.0,0.0,0.0,0.0,0.0,0.0,0.0,0.7532,0.772,0.8221,0.8506,0.8506,0.8647,0.8923,0.9548,0.9807,1.0289,1.1027,1.1397,1.1757,1.2182,1.2883,1.3338,1.3513,1.4129,1.4533,1.4714,1.4805,1.4938,1.5107,1.5107,1.5107,1.5107,1.5107,1.5107,1.5107,1.5107,1.4588,1.3791,1.3791,1.3952,1.4263,1.561,1.6328,1.6823,1.7939,1.7918,1.7219,1.626,1.562,1.5273,1.5274,1.5323,1.5531,1.6003,1.6383,1.702,1.7867,1.871,1.9504,1.9938,2.0277,2.0327,1.9669,1.8923,1.8153,1.7252,1.6954,1.6678,1.6017,1.5256,1.4489,1.3778,1.3374,1.3122,1.3113,1.3233,1.3364,1.3473,1.3557,1.3502,1.3372,1.3264,1.3023,1.2471,1.2396,1.2129,1.1436,1.1167,1.0797,1.0431,0.9761,0.9139,0.8494,0.0,0.0,0.0,0.0,0.0,0.0,0.0,0.0,0.0,0.0,0.0,0.0,0.0,0.0,0.0,0.0,0.0,0.0,0.0,0.0,0.0,0.0,0.0,0.6726,0.7591,0.8337,0.8528,0.8969,0.9249,0.9249,0.9464,0.9849,1.0315,1.0539,1.1039,1.1958,1.1981,1.2176,1.2681,1.3224,1.3519,1.3525,1.4328,1.4733,1.4745,1.4998,1.5125,1.5131,1.5131,1.5131,1.5131,1.5131,1.5131,1.5131,1.5131,1.5131,1.5131,1.5113,1.5303,1.5594,1.658,1.7186,1.7491,1.7987,1.7789,1.7295,1.6805,1.6784,1.6922,1.6833,1.7334,1.7945,1.7874,1.7755,1.7818,1.8292,1.874,1.9179,1.9718,2.0229,2.028,1.9457,1.8496,1.7536,1.6971,1.6859,1.651,1.5385,1.5121,1.4917,1.4405,1.3859,0.0,1.3608,1.3831,1.3901,1.3582,1.4114,1.4367,1.4033,1.3695,1.3306,1.2722,1.2104,1.1521,1.0887,1.0565,1.0253,0.9913,0.8849,0.8109,0.7726,0.0,0.0,0.0,0.0,0.0,0.0,0.0,0.0,0.0,0.0,0.0,0.0,0.0,0.0,0.0,0.0,0.0,0.0,0.0,0.0,0.0,0.0,0.7758,0.7758,0.8623,0.9347,0.9774,1.0332,1.0712,1.0712,1.0616,1.0729,1.1312,1.1318,1.1554,1.1969,1.2147,1.2266,1.2415,1.3133,1.3604,1.3797,1.46,1.5095,1.5282,1.5354,1.5493,1.5674,1.5674,1.5674,1.5674,1.5674,1.5674,1.5674,1.5891,1.5996,1.5959,1.536,1.5405,1.5903,1.65,1.7292,1.7995,1.7796,1.7505,1.7186,1.7211,1.7279,1.7347,1.7935,1.8185,1.8152,1.799,1.7617,1.7461,1.8169,1.8676,1.9369,2.0271,2.0961,2.1034,1.975,1.8688,1.7596,1.6365,1.581,1.5506,1.5565,1.5033,1.4584,1.4495,1.4175,0.0,1.3956,1.4018,1.4119,1.4116,1.4263,1.4253,1.3973,1.387,1.3363,1.2201,1.1761,1.1182,1.0308,1.0212,1.0143,1.0045,0.9279,0.8617,0.0,0.0,0.0,0.0,0.0,0.0,0.0,0.0,0.0,0.0,0.0,0.0,0.0,0.0,0.0,0.0,0.0,0.0,0.0,0.0,0.0,0.0,0.767,0.8744,0.9052,0.953,1.0053,1.0415,1.0975,1.1284,1.1284,1.1061,1.1197,1.1781,1.1665,1.1764,1.229,1.2392,1.253,1.265,1.332,1.3803,1.4063,1.4871,1.5348,1.5499,1.5608,1.5741,1.5891,1.5891,1.5891,0.0,1.5891,1.5891,1.5891,1.6217,1.6324,0.0,0.0,0.0,0.0,0.0,1.7381,1.7883,1.768,1.7483,1.7367,1.7636,1.7768,1.7956,1.8378,1.8481,1.8255,1.7765,1.7106,1.6635,1.7422,1.8137,1.8861,2.0047,2.1078,2.1291,1.9965,1.8701,1.7438,1.6131,1.5218,0.0,1.5131,1.4892,1.4637,1.4574,1.4522,1.4467,1.4387,1.447,1.4591,1.464,1.4678,1.4697,1.4425,1.4321,0.0,0.0,0.0,1.1207,1.0147,1.0089,0.0,0.0,0.0,0.0,0.0,0.0,0.0,0.0,0.7795,0.8242,0.0,0.0,0.0,0.0,0.0,0.0,0.0,0.0,0.0,0.0,0.0,0.0,0.0,0.0,0.0,0.0,0.8179,0.9491,1.0173,1.0312,1.0503,1.0732,1.1151,1.145,1.145,1.122,1.1346,1.1987,1.1787,1.2022,1.2674,0.0,0.0,0.0,0.0,1.4093,1.4383,1.5155,1.5547,1.5547,1.5807,1.5934,1.5934,1.597,1.5982,1.5982,1.5982,1.5964,1.5934,1.626,1.6355,1.643,1.663,1.6736,1.6842,1.7166,1.7378,1.7582,1.7582,0.0,0.0,1.7791,1.8186,1.8556,1.8484,1.8365,1.8084,1.7336,1.6425,1.5745,1.6513,1.7361,1.8225,1.9487,2.0739,2.1248,1.9952,1.8523,1.7172,1.6115,1.4949,1.4269,1.4522,1.4671,1.4816,1.469,1.4836,1.4962,1.4743,1.5018,1.5219,1.4992,0.0,0.0,1.5102,1.4749,1.4064,1.3036,1.2307,1.147,1.0479,1.0254,1.0196,1.0231,0.9868,0.9804,1.0003,0.965,0.9801,1.0393,0.9464,0.959,0.0,0.0,0.0,0.0,0.0,0.0,0.0,0.0,0.0,0.0,0.0,0.0,0.0,0.0,0.0,0.6901,0.8284,0.9531,1.0236,1.0616,1.1105,1.1677,1.2111,1.2469,1.2469,1.2153,1.2212,1.2523,1.2302,1.229,1.2687,1.2705,0.0,1.3423,1.3948,1.4455,1.4944,1.5523,1.5813,1.5819,0.0,0.0,1.6211,1.6441,1.6543,1.6543,1.6543,1.6416,1.6205,1.6537,1.6737,1.7073,1.7067,1.7067,1.7173,1.7378,1.7582,1.7582,1.7582,1.7582,1.7681,1.7941,1.7964,1.8034,1.8232,1.7955,0.0,1.7072,1.6314,1.581,1.6669,1.744,1.8317,1.9431,2.0323,2.0643,1.953,1.8375,1.7278,1.6154,1.5362,1.4816,1.487,1.4561,1.4393,1.4655,1.483,1.4976,1.5063,1.5434,1.5554,1.5306,1.5032,1.4774,1.4469,1.418,1.3751,1.3064,1.2183,1.151,1.1127,1.0892,1.0752,1.0792,1.0573,1.051,1.0806,1.0915,1.1261,1.1866,1.1009,1.1084,0.0,0.0,0.0,0.0,0.0,0.0,0.0,0.0,0.0,0.0,0.0,0.3669,0.4154,0.0,0.5922,0.6738,0.8286,0.9476,0.9936,1.0611,1.1196,1.1744,1.212,1.2363,1.2534,1.2386,1.2421,1.2687,1.2457,1.2487,1.2892,1.3037,1.3357,1.3888,1.4425,1.4896,1.53,1.5692,1.5891,1.5891,1.6157,1.6278,1.629,1.6573,1.67,1.67,1.67,1.6543,1.6272,1.647,1.6769,1.7179,1.7179,1.7279,1.7378,1.7582,1.7582,1.7582,1.7582,1.7582,1.7582,1.7799,1.7796,1.775,1.7709,1.7329,1.6777,1.6441,1.5865,1.5466,1.6316,1.7084,1.7961,1.887,1.9653,2.002,1.9178,1.843,1.7646,1.6693,1.6078,1.5571,1.5424,1.4917,1.4649,1.475,1.4789,1.4832,1.4914,1.5299,1.5484,1.5242,1.5166,1.5018,1.486,1.4417,1.3957,1.3316,1.2613,1.2055,1.1692,1.1407,1.1261,1.1209,1.1216,1.1356,1.165,1.2098,1.2619,1.3186,1.2899,1.2761,0.0,0.0,0.0,0.0,0.0,0.0,0.0,0.0,0.3156,0.3447,0.3713,0.4106,0.4538,0.5083,0.5783,0.647,0.8125,0.9346,0.9519,1.0214,1.0914,1.1321,1.164,1.2015,1.2277,1.2391,1.256,1.2771,1.2638,1.2783,1.332,1.355,1.393,1.4509,1.4956,1.5312,1.5572,1.5783,1.5891,1.5891,1.6211,1.6362,1.6374,1.67,1.6857,1.6845,1.6748,1.6573,1.6338,1.6239,1.6568,1.7145,1.7086,1.7311,1.7662,1.7602,1.7582,1.7582,1.7582,1.7582,1.7582,1.7582,1.7582,1.7542,1.7301,1.6867,1.6393,1.6152,1.5705,1.5449,1.6144,1.6899,1.7581,1.8223,1.8964,1.9352,1.8874,1.8434,1.7817,1.7176,1.6599,1.6192,1.5952,1.5438,1.5129,1.4926,1.473,1.4573,1.465,1.4977,1.5151,1.509,1.5257,1.5347,1.5431,1.4955,1.4406,1.3814,1.3404,1.2863,1.2333,1.2047,1.1832,1.1677,1.1917,1.2238,1.2652,1.314,1.3681,1.4262,1.4496,1.4229,0.1157,0.1883,0.2548,0.3003,0.3205,0.3335,0.0,0.0,0.3827,0.3808,0.4148,0.4472,0.4651,0.5167,0.5806,0.6528,0.7805,0.8733,0.8919,0.9456,0.9941,1.0346,1.0966,1.1585,1.2015,1.2638,1.3049,1.3073,1.3266,1.361,1.4135,1.4189,1.4564,1.5342,1.5421,1.5578,1.5843,1.5879,1.5891,1.5897,1.641,1.6652,1.667,1.7171,1.7394,1.737,1.6905,1.6682,1.6616,1.6103,1.6454,1.7188,1.6832,1.7216,1.7963,1.7689,1.7582,1.7582,1.7582,1.7582,1.7582,1.7582,1.7582,1.7575,1.7542,1.7308,1.7041,1.7007,1.6767,1.6619,1.6857,1.7489,1.803,1.8275,1.86,1.8723,1.8542,1.8003,1.7491,1.7172,1.665,1.6259,1.6226,1.5934,1.5531,1.5053,1.4529,1.4243,1.4398,1.4482,1.465,1.509,1.509,1.5173,1.5347,1.5365,1.5167,1.4801,1.4479,1.4004,1.3297,1.2942,1.27,1.2667,1.2708,1.3138,1.3888,1.3955,1.4289,1.4863,1.4897,1.4863,0.1203,0.2196,0.0,0.0,0.3439,0.3656,0.3852,0.4077,0.4287,0.4428,0.4686,0.4985,0.506,0.5277,0.5627,0.0,0.7072,0.7851,0.794,0.8438,0.8986,0.9602,1.0005,1.0655,1.174,1.2463,1.2946,1.3109,1.3369,1.3743,1.4268,1.4455,1.4835,1.5481,1.5644,1.5777,1.5891,1.5891,1.5891,1.5897,1.6441,1.67,1.6718,1.7243,1.7485,1.7455,1.693,1.67,1.6658,1.6337,1.6586,1.7239,1.7064,1.7349,1.8009,1.7695,1.7582,1.7582,1.7582,1.7582,1.7582,1.7582,1.7582,1.7582,1.7582,1.7502,1.7402,1.7402,1.7315,1.7215,1.7324,1.7619,1.7818,1.7929,1.8026,1.8019,1.7929,1.7722,1.7476,1.7204,1.6968,1.678,1.6535,1.6225,1.5876,1.5473,1.5033,1.4689,1.4587,1.4741,1.4986,1.5517,1.5777,1.5886,1.5972,1.5979,1.576,1.5255,1.5101,1.4714,1.3888,1.3746,1.3578,1.3473,1.3826,1.4111,1.4503,1.5033,1.5425,1.5672,1.5844,1.5927,0.1046,0.0,0.0,0.3139,0.3457,0.3835,0.4102,0.4425,0.4662,0.4806,0.5021,0.5214,0.5303,0.5347,0.5466,0.5838,0.6626,0.7232,0.7332,0.7774,0.8376,0.9082,0.9415,1.004,1.1391,1.2342,1.2934,1.3212,1.361,1.4045,1.4497,1.4781,1.5143,1.5596,1.5861,1.6,1.6,1.6072,1.6115,1.6121,1.6585,1.6809,1.6827,1.728,1.7602,1.7578,1.7122,1.7034,1.6998,1.6751,1.7034,1.7573,1.7434,1.7688,1.8123,1.7729,1.7582,1.7582,1.7582,1.7582,1.7582,1.7582,1.7582,1.7582,1.7582,1.7582,1.7582,1.7582,1.7582,1.7582,1.7582,1.7582,1.7582,1.7582,1.7582,1.7582,1.7582,1.7582,1.7522,1.7308,1.7201,1.7123,1.6997,1.6697,1.6351,1.6098,1.5758,1.5354,1.4783,1.4993,1.5396,1.5806,1.6184,1.6367,1.6367,1.6367,1.617,1.5716,1.5606,1.5267,1.464,1.4532,1.4372,1.4289,1.4733,1.5043,1.5126,1.5805,1.626,1.6352,1.6483,1.6588,0.0,0.0,0.2001,0.2636,0.3342,0.384,0.4163,0.4596,0.4969,0.4857,0.5021,0.5186,0.5192,0.529,0.5577,0.6215,0.6779,0.7224,0.7496,0.7676,0.8116,0.8823,0.9244,0.987,0.0,1.2249,1.3224,1.3483,1.4232,1.4799,1.5071,1.533,1.5602,1.5867,1.6133,1.6266,1.6266,1.6537,1.6676,1.6676,1.6954,1.708,1.7086,1.7358,1.7726,1.7954,1.7656,1.7761,1.7976,1.7684,1.7953,1.8372,1.7805,1.7985,1.8404,1.7802,1.7582,1.7582,1.7582,1.7582,1.7582,1.7582,1.7582,1.7582,1.7582,1.7582,1.7582,1.7582,1.7582,1.7582,1.7582,1.7582,1.7582,1.7582,1.7582,1.7582,1.7582,1.7582,1.7582,1.7569,1.7341,1.725,1.7551,1.7244,1.7014,1.7001,1.6588,1.5951,1.4811,1.5177,1.5555,1.5648,1.6097,1.6367,1.6367,1.6367,1.636,1.6338,1.6067,1.5806,1.5612,1.5226,1.512,1.5254,1.5275,1.5578,1.6078,1.6106,1.6274,1.6567,1.6581,1.6588,0.0,0.0,0.1502,0.2209,0.3126,0.3925,0.4179,0.4761,0.5216,0.5094,0.5197,0.5306,0.5306,0.551,0.5664,0.5958,0.6524,0.6969,0.7061,0.7324,0.7796,0.8564,0.9274,0.0,0.0,0.0,0.0,1.3024,1.3613,1.4237,1.4773,1.5251,1.562,1.5879,1.5976,1.6018,1.6018,1.6284,1.6423,1.6429,1.6875,1.7183,1.7352,1.7683,1.7849,1.7954,1.7899,1.7894,1.7989,1.7933,1.8203,1.8531,1.8269,1.8406,1.8731,1.833,1.8183,1.813,1.7722,1.7582,1.7582,1.7582,1.7582,1.7582,1.7582,1.7582,1.7582,1.7582,1.7582,1.7582,1.7582,1.7582,1.7582,1.7582,1.7582,1.7582,1.7582,1.7582,1.7582,1.7582,1.7502,1.7583,1.7804,1.7799,1.7541,1.6986,1.6477,1.59,1.5511,1.585,1.6213,1.6424,1.6821,1.7004,1.7004,1.7004,1.6916,1.6704,1.6594,1.644,1.6133,1.6017,1.6017,1.6031,1.6248,1.6458,1.6668,1.6785,1.6944,1.7052,1.7052,1.7052,-0.0,0.0321,0.0873,0.1544,0.2533,0.3483,0.3766,0.4525,0.5096,0.4933,0.5042,0.5192,0.5235,0.537,0.5586,0.602,0.6396,0.6734,0.6871,0.7185,0.7695,0.8484,0.9261,0.0,0.0,0.0,0.0,1.2349,1.2997,1.3699,1.4435,1.5184,1.5716,1.5885,1.5982,1.603,1.603,1.6392,1.6616,1.6718,1.7062,1.7438,1.7726,1.7849,1.8083,1.8298,1.8346,1.8384,1.8486,1.8531,1.8737,1.8968,1.8918,1.8985,1.9199,1.8911,1.8804,1.8718,1.8116,1.7903,1.7903,1.7903,1.7836,1.7749,1.7749,1.7669,1.7582,1.7582,1.7582,1.7582,1.7582,1.7582,1.7582,1.7582,1.7582,1.7582,1.7582,1.7582,1.7582,1.7582,1.7582,1.7732,1.806,1.8249,1.7981,1.7201,1.6682,1.6301,1.5957,1.6279,1.6667,1.6989,1.7208,1.7377,1.7494,1.7399,1.7245,1.7033,1.7026,1.693,1.6718,1.6711,1.6711,1.6711,1.6916,1.7026,1.7026,1.723,1.7391,1.7501,1.7501,1.756,-0.0,-0.0,0.0142,0.0655,0.1564,0.2499,0.3102,0.3921,0.4557,0.4498,0.4672,0.4852,0.0,0.0,0.5357,0.6123,0.6481,0.6711,0.7021,0.7275,0.7654,0.0,0.0,0.0,0.0,0.0,0.0,1.152,0.0,1.3339,1.3922,1.5261,1.5891,1.5891,1.6133,1.626,1.626,1.6785,1.7189,1.7461,1.7461,1.7713,1.7972,1.7966,1.8311,1.8874,1.8881,1.912,1.9366,1.9366,1.9539,1.9773,1.9499,1.9566,1.9786,1.9512,1.9412,1.9332,1.8778,1.8557,1.8537,1.8537,1.8337,1.809,1.807,1.7862,1.7622,1.7609,1.7615,1.7629,1.7629,1.7629,1.7622,1.7609,1.7609,1.7602,1.7589,1.7582,1.7582,1.7582,1.7582,1.7793,1.8318,1.8583,1.8474,1.7545,1.7391,1.7033,1.6089,1.6484,1.6982,1.7318,1.7355,1.7479,1.7786,1.753,1.7347,1.7326,1.7326,1.7326,1.7326,1.7326,1.7326,1.7326,1.7326,1.7326,1.7326,1.7347,1.7508,1.7816,1.783,1.8006,-0.0,-0.0,-0.0,0.0154,0.0928,0.1786,0.2564,0.3604,0.4389,0.4336,0.447,0.4599,0.0,0.0,0.0,0.5817,0.6379,0.0,0.6976,0.7305,0.0,0.0,0.0,0.9255,0.9225,0.9121,0.0,0.0,1.1587,1.2827,1.3858,1.5141,1.5891,1.5891,1.5958,1.5988,1.5988,1.632,1.6724,1.7195,1.7195,1.753,1.7972,1.8194,1.8538,1.8881,1.9127,1.9366,1.9366,1.9366,1.9539,1.9793,1.972,1.9867,2.0114,2.004,2.0013,1.9993,1.984,1.9506,1.9145,1.9145,1.8938,1.8657,1.8444,1.8323,1.8217,1.7989,1.809,1.8257,1.8257,1.8257,1.8203,1.7983,1.7929,1.7862,1.7629,1.7582,1.7582,1.7582,1.7898,1.8213,1.8422,1.8583,1.8701,1.8452,1.8211,1.7706,1.674,1.6755,1.7069,1.7633,1.7691,1.7728,1.7808,1.7735,1.7589,1.7347,1.7326,1.7326,1.7326,1.7326,1.7326,1.7326,1.7326,1.7326,1.7326,1.7574,1.7735,1.7823,1.8064,1.8218,-0.0,-0.0,-0.0,-0.0,0.0392,0.0939,0.1704,0.2832,0.3757,0.3842,0.4024,0.0,0.0,0.0,0.0,0.0,0.0,0.0,0.6919,0.7258,0.7649,0.0,0.8501,0.0,0.8726,0.8621,0.891,0.0,1.1182,1.2563,1.3744,1.5399,1.6247,1.6247,1.6247,1.6247,1.6247,1.6272,1.6555,1.7092,1.7092,1.7463,1.8194,1.8305,1.8655,1.912,0.0,1.9366,1.9366,1.9366,1.9539,1.98,1.98,1.9973,2.0234,2.0234,2.0234,2.0254,2.0381,2.0214,1.992,1.9793,1.9546,1.9279,1.9118,1.8885,1.8644,1.8477,1.8457,1.849,1.849,1.849,1.8417,1.8116,1.805,1.7963,1.7649,1.7582,1.7582,1.7799,1.8108,1.8422,1.8541,1.8808,1.8957,1.8811,1.8635,1.8269,1.7582,1.7486,1.7684,1.8189,1.8116,1.8086,1.8233,1.8108,1.7947,1.7765,1.7757,1.7757,1.7757,1.7757,1.7757,1.7757,1.7757,1.7757,1.7757,1.794,1.8101,1.8247,1.843,1.8591,-0.0,-0.0,-0.0,-0.0,-0.0,0.0156,0.091,0.1988,0.2912,0.3295,0.0,0.3873,0.4164,0.0,0.4812,0.5454,0.0,0.6632,0.6766,0.7139,0.743,0.7699,0.804,0.8254,0.8276,0.8295,0.8649,0.9661,1.1128,1.2471,1.3594,1.559,1.67,1.67,1.6664,1.6646,1.6646,1.6368,1.6501,1.7038,1.7038,1.7541,1.8421,1.8421,1.8777,1.9366,1.9366,0.0,1.9366,1.9366,1.9539,1.98,1.98,1.9973,2.0234,2.0234,2.0261,2.0327,2.0588,2.0702,2.0688,2.0434,2.0154,1.9907,1.9867,1.9499,1.9092,1.9052,1.8885,1.8711,1.8677,1.8664,1.8577,1.8243,1.8163,1.8076,1.7769,1.7669,1.7754,1.7973,1.8247,1.8534,1.8869,1.9071,1.9177,1.8891,1.8855,1.8752,1.8467,1.8357,1.843,1.8752,1.854,1.8482,1.8767,1.8525,1.835,1.8306,1.8299,1.8299,1.8299,1.8299,1.8299,1.8299,1.8299,1.8299,1.8299,1.8343,1.8511,1.8789,1.8833,1.9001,-0.0,-0.0,-0.0,-0.0,-0.0,0.0155,0.0816,0.1765,0.0,0.0,0.0,0.3542,0.3859,0.4096,0.0,0.4853,0.0,0.0,0.0,0.0,0.718,0.0,0.0,0.0,0.0,0.0,0.0,0.0,0.0,1.2755,1.3739,1.5678,1.67,1.67,1.6477,1.6356,1.6356,1.6091,1.6229,1.6767,1.6767,1.7363,1.8421,1.8421,1.8777,1.9366,1.9366,0.0,1.9366,1.9366,1.9539,1.98,1.98,1.9973,2.0234,2.0234,2.0388,2.0608,2.0661,2.0835,2.1029,2.0975,2.0762,2.0481,2.0227,2.0087,1.9953,1.9713,1.9786,1.9873,1.9633,1.9573,1.9439,1.8898,1.8771,1.8691,1.8397,1.8354,1.8393,1.8393,1.8618,1.8869,1.8869,1.9071,1.9257,1.9199,1.9191,1.9169,1.9111,1.8635,1.843,1.8752,1.8738,1.873,1.8789,1.8738,1.8591,1.8321,1.8299,1.8299,1.8299,1.8299,1.8299,1.8299,1.8299,1.8299,1.8299,1.8577,1.873,1.8796,1.9067,1.922,-0.0,-0.0,-0.0,-0.0,-0.0,0.0152,0.0781,0.0,0.0,0.0,0.0,0.3289,0.3526,0.0,0.0,0.0,0.0,0.0,0.0,0.0,0.0,0.0,0.0,0.0,0.0,0.0,0.0,0.0,0.0,1.2901,1.4098,1.6034,1.7111,1.7111,1.6845,1.67,1.67,1.6441,1.6513,1.6905,1.6905,1.7449,1.8421,1.8421,1.8777,1.9366,1.9366,0.0,1.9366,1.9366,1.9452,1.9579,1.9579,1.9659,1.98,1.9953,2.01,2.0267,2.0568,2.0768,2.0909,2.1056,2.1015,2.0875,2.0735,2.0581,2.0434,2.0294,2.0247,2.0201,2.006,1.9913,1.9693,1.9259,1.8918,1.8657,1.8732,1.8578,1.8583,1.8905,1.8872,1.8974,1.9078,1.9175,1.9279,1.9279,1.9279,1.9279,1.9279,1.9001,1.8869,1.9023,1.9038,1.9038,1.9038,1.9038,1.8979,1.8818,1.8811,1.8811,1.8811,1.8811,1.8811,1.8811,1.8811,1.8811,1.8811,1.8964,1.9038,1.9045,1.9206,1.9279,-0.0,-0.0,-0.0,-0.0,-0.0,0.0147,0.0742,0.1578,0.0,0.0,0.0,0.3027,0.3286,0.0,0.0,0.0,0.0,0.0,0.0,0.0,0.0,0.0,0.0,0.0,0.0,0.0,0.0,0.0,0.0,0.0,1.4822,1.6539,1.7485,1.7485,1.7231,1.7062,1.7008,1.6742,1.6718,1.6923,1.6917,1.7399,1.8243,1.83,1.868,1.9279,1.9339,0.0,0.0,1.9432,1.9459,1.9466,1.9533,1.9553,1.9579,1.9806,1.9933,2.0054,2.0514,2.0715,2.0808,2.1036,2.1109,2.1109,2.1109,2.0949,2.0768,2.0768,2.0601,2.0408,2.0341,2.016,1.99,1.9546,1.9172,1.8894,1.8999,1.8988,1.8993,1.9427,1.9284,1.9281,1.9484,1.9425,1.9381,1.9381,1.9323,1.9279,1.9279,1.9279,1.9279,1.9279,1.9279,1.9279,1.9279,1.9279,1.9279,1.9279,1.9279,1.9279,1.9279,1.9279,1.9279,1.9279,1.9279,1.9279,1.9279,1.9279,1.9279,1.9279,1.9279,1.9279,-0.0,-0.0,-0.0,-0.0,-0.0,0.0142,0.0639,0.0,0.0,0.2225,0.2609,0.2925,0.3011,0.0,0.0,0.0,0.0,0.0,0.0,0.0,0.0,0.0,0.0,0.0,0.0,0.0,0.0,0.0,0.0,0.0,1.6714,1.7304,1.7485,1.7485,1.7231,1.6978,1.6742,1.6459,1.6344,1.638,1.6362,1.6833,1.7684,1.7932,1.8389,1.8978,1.9252,0.0,0.0,1.9653,1.976,1.9786,2.0047,2.0154,2.0154,2.018,2.0361,2.0601,2.0661,2.0848,2.1076,2.1102,2.1109,2.1109,2.1109,2.1089,2.1069,2.1069,2.1049,2.0969,2.0702,2.0615,2.0454,1.9893,1.9746,1.9733,1.9733,1.9955,2.02,2.02,2.0156,2.0041,2.015,1.9908,1.9718,1.9718,1.9469,1.9279,1.9279,1.9279,1.9279,1.9279,1.9279,1.9279,1.9279,1.9279,1.9279,1.9279,1.9279,1.9279,1.9279,1.9279,1.9279,1.9279,1.9279,1.9279,1.9279,1.9279,1.9279,1.9279,1.9279,1.9279,-0.0,-0.0,0.0076,0.0521,0.0871,0.1108,0.1297,0.0,0.2385,0.2325,0.2626,0.2929,0.293,0.3036,0.0,0.0,0.0,0.0,0.0,0.0,0.0,0.0,0.0,0.0,0.0,0.0,0.0,0.0,0.0,0.0,1.6468,1.7171,1.7485,1.7485,1.7382,1.7201,1.6936,1.6827,1.6694,1.6543,1.6537,1.6925,1.7601,1.7709,1.8188,1.8918,1.8865,0.0,0.0,1.9225,1.9379,1.9573,1.986,2.008,2.0254,2.0434,2.0575,2.0702,2.0875,2.1009,2.1109,2.1109,2.1109,2.1109,2.1109,2.1109,2.1109,2.1109,2.1109,2.1082,2.0969,2.0675,2.0261,1.9908,1.9788,1.9931,2.0263,2.0267,2.0399,2.0504,2.0354,2.0237,2.0237,1.9974,1.9762,1.9762,1.9484,1.9279,1.9279,1.9279,1.9279,1.9279,1.9279,1.9279,1.9279,1.9279,1.9279,1.9279,1.9279,1.9279,1.9279,1.9279,1.9279,1.9279,1.9279,1.9279,1.9279,1.9279,1.9279,1.9279,1.9279,1.9279,-0.0,-0.0,0.0223,0.116,0.1909,0.2223,0.0,0.0,0.2618,0.247,0.2695,0.2912,0.2912,0.2966,0.3064,0.0,0.0,0.0,0.0,0.0,0.0,0.0,0.0,0.0,0.0,0.0,0.0,0.0,0.0,0.0,0.0,1.6863,1.7322,1.7473,1.7485,1.7322,1.6984,1.6978,1.6803,1.6459,1.6575,1.6906,1.734,1.754,1.8072,1.8784,1.8577,0.0,0.0,1.9018,1.9178,1.9406,1.978,2.0107,2.0388,2.0601,2.0675,2.0722,2.1009,2.1049,2.0995,2.1082,2.1109,2.1109,2.1109,2.1109,2.1109,2.1109,2.1049,2.0982,2.0982,2.0664,2.024,1.9931,1.9993,2.0155,2.0601,2.0679,2.0648,2.0754,2.0684,2.0523,2.0523,2.0179,1.9901,1.9901,1.955,1.9279,1.9279,1.9279,1.9279,1.9279,1.9279,1.9279,1.9279,1.9279,1.9279,1.9279,1.9279,1.9279,1.9279,1.9279,1.9279,1.9279,1.9279,1.9279,1.9279,1.9279,1.9279,1.9279,1.9376,1.9636,-0.0,-0.0,0.0362,0.1836,0.2892,0.334,0.0,0.2658,0.2965,0.2597,0.2732,0.2912,0.2912,0.2966,0.304,0.0,0.0,0.0,0.0,0.0,0.0,0.0,0.0,0.0,0.0,0.0,0.0,0.0,0.0,0.0,0.0,1.641,1.6948,1.7467,1.7485,1.7231,1.6712,1.6706,1.6435,1.5897,1.6223,1.6436,1.6749,1.7358,1.7875,0.0,0.0,0.0,0.0,1.9239,1.9366,1.9426,2.0,2.0408,2.0675,2.0675,2.0675,2.0722,2.1009,2.0922,2.0728,2.1015,2.1109,2.1109,2.1109,2.1109,2.1109,2.1109,2.0902,2.0681,2.0681,2.0483,2.0274,2.0267,2.0494,2.0716,2.0716,2.096,2.1203,2.1203,2.1203,2.1203,2.1203,2.0662,2.023,2.023,1.9689,1.9279,1.9279,1.9279,1.9279,1.9279,1.9279,1.9279,1.9279,1.9279,1.9279,1.9279,1.9279,1.9279,1.9279,1.9279,1.9279,1.9279,1.9279,1.9279,1.9279,1.9279,1.9279,1.9279,1.9576,2.0373,0.0487,0.0901,0.1342,0.1726,0.2235,0.2591,0.2263,0.2507,0.2723,0.267,0.2776,0.2912,0.2912,0.29,0.2963,0.3035,0.0,0.0,0.0,0.0,0.0,0.0,0.0,0.0,0.0,0.0,0.0,0.0,0.0,0.0,0.0,1.5861,1.6555,1.7455,1.7485,1.7231,1.6706,1.67,1.6539,1.6217,1.6217,1.6537,1.7067,1.7264,1.7793,0.0,0.0,0.0,0.0,1.849,1.8571,1.8804,1.9192,1.9639,2.008,2.008,2.0201,2.0414,2.0708,2.0755,2.0722,2.1015,2.1109,2.1109,2.1109,2.1109,2.1109,2.1109,2.0902,2.0752,2.0666,2.0448,2.0337,2.0575,2.0679,2.0723,2.0967,2.1089,2.1211,2.1211,2.1211,2.1211,2.1211,2.0669,2.0237,2.0237,1.9689,1.9279,1.9279,1.9279,1.9279,1.9279,1.9279,1.9279,1.9279,1.9279,1.9279,1.9279,1.9279,1.9279,1.9279,1.9279,1.9279,1.9279,1.9279,1.9279,1.9279,1.9279,1.9376,1.9576,1.9887,2.0906,0.0,0.1655,0.215,0.1899,0.2202,0.2499,0.2438,0.2589,0.2775,0.2755,0.2823,0.2912,0.2912,0.2906,0.296,0.2989,0.0,0.0,0.0,0.0,0.0,0.0,0.0,0.0,0.0,0.0,0.0,0.0,0.0,0.0,0.0,1.5421,1.6085,1.7153,1.7376,1.7231,1.6706,1.6806,1.6643,1.6324,1.6537,1.6855,1.7179,1.7279,1.7755,0.0,0.0,0.0,0.0,1.811,1.8143,1.835,1.8644,1.9052,1.9466,1.9466,1.9586,1.98,2.0207,2.0347,2.0414,2.0815,2.1022,2.1109,2.1235,2.1235,2.1109,2.1109,2.102,2.0882,2.093,2.0815,2.0683,2.0829,2.0924,2.096,2.1203,2.1211,2.1211,2.1211,2.1211,2.1211,2.1211,2.0669,2.0237,2.0237,1.9689,1.9279,1.9279,1.9279,1.9323,1.9447,1.9352,1.9374,1.9616,1.9418,1.9279,1.9279,1.9279,1.9279,1.9279,1.9279,1.9279,1.9279,1.9376,1.948,1.948,1.9687,1.999,2.0498,2.0593,2.1698,0.0,0.2111,0.2736,0.228,0.2611,0.3002,0.2755,0.2878,0.0,0.2892,0.2912,0.2912,0.2912,0.296,0.2992,0.3,0.0,0.0,0.0,0.0,0.0,0.0,0.0,0.0,0.0,0.0,0.0,0.0,0.0,0.0,0.0,1.5089,1.5572,1.6585,1.7141,1.7195,1.6706,1.7024,1.6857,1.6324,1.6961,1.7179,1.7279,1.7483,1.7756,0.0,0.0,0.0,0.0,1.8023,1.8016,1.8043,1.8317,1.8604,1.8865,1.8865,1.8878,1.8978,1.9566,1.978,1.99,2.0488,2.0855,2.1202,2.1427,2.1328,2.1102,2.1082,2.1098,2.1224,2.1224,2.1131,2.1138,2.116,2.1184,2.1211,2.1211,2.1325,2.1325,2.1318,2.1325,2.1325,2.1325,2.0669,2.0237,2.0237,1.9689,1.9279,1.9279,1.9279,1.9403,1.9725,1.9469,1.9535,2.0179,1.9667,1.9323,1.9345,1.9323,1.9316,1.9316,1.9286,1.9279,1.9279,1.9576,1.9783,1.9783,2.03,2.1019,2.1827,2.1818,2.2826,0.1741,0.0,0.2228,0.2223,0.248,0.2714,0.0,0.2856,0.2903,0.0,0.0,0.0,0.0,0.0,0.0,0.0,0.0,0.0,0.0,0.0,0.0,0.0,0.0,0.0,0.0,0.0,0.0,0.0,0.0,0.0,0.0,1.4883,1.5318,1.5771,1.6716,1.7153,1.7024,1.7018,1.7076,1.6967,1.7179,1.7279,1.7483,1.7582,1.7756,0.0,0.0,0.0,1.8029,1.7789,1.7695,1.7695,1.7769,1.7983,1.825,1.825,1.8397,1.8677,1.9265,1.9613,1.99,2.0488,2.0839,2.1094,2.0992,2.1121,2.1434,2.1451,2.1119,2.083,2.1082,2.0857,2.0672,2.114,2.1377,2.1668,2.1888,2.2116,2.2343,2.257,2.2456,2.223,2.1888,2.1107,2.0456,2.0237,1.9689,1.9279,1.9279,1.9279,1.9403,1.9725,1.9672,1.9949,2.0823,2.0193,1.9755,1.9996,1.9784,1.9652,1.9652,1.9411,1.9279,1.9279,1.9783,2.0189,2.0609,2.1404,2.1996,2.2601,2.3302,2.4326,0.18,0.2051,0.2294,0.233,0.2502,0.2655,0.2744,0.0,0.0,0.0,0.0,0.0,0.0,0.0,0.0,0.0,0.0,0.0,0.0,0.0,0.0,0.0,0.0,0.0,0.0,0.0,0.0,0.0,0.0,0.0,0.0,1.4576,1.5014,1.5505,1.6174,1.6758,1.7129,1.7353,1.7476,1.7368,1.7338,1.7483,1.7582,1.7582,1.7675,0.0,0.0,0.0,1.7822,1.7649,1.7582,1.7582,1.7582,1.7689,1.7836,1.7836,1.7936,1.8163,1.8758,1.9332,1.9853,2.0281,2.0625,2.0711,2.092,2.132,2.1649,2.1488,2.1216,2.101,2.1396,2.1082,2.0844,2.1547,2.1881,2.2268,2.2867,2.3241,2.3586,2.4031,2.3674,2.3223,2.2659,2.1896,2.1118,2.0567,1.9908,1.9499,1.9499,1.9367,1.9455,1.993,1.9971,2.0483,2.19,2.1318,2.0903,2.0876,2.0467,2.0181,2.0181,1.9859,1.9783,1.9998,2.0403,2.1113,2.203,2.2509,2.34,2.4372,2.4771,2.5733,0.1815,0.2235,0.2636,0.2568,0.2613,0.2713,0.0,0.0,0.0,0.0,0.0,0.0,0.0,0.0,0.0,0.0,0.0,0.0,0.0,0.0,0.0,0.0,0.0,0.0,0.0,0.0,0.0,0.0,0.0,0.0,0.0,1.4298,1.4619,1.5413,1.571,1.6337,1.7227,1.7759,1.7883,1.7711,1.7669,1.7629,1.7582,1.7582,1.7582,1.7582,0.0,0.0,1.7582,1.7582,1.7582,1.7582,1.7582,1.7582,1.7582,1.7582,1.7582,1.7675,1.833,1.9105,1.9912,2.0087,2.0192,2.042,2.0861,2.1296,2.1539,2.135,2.1306,2.1281,2.1658,2.1496,2.1413,2.2068,2.2591,2.3154,2.4178,2.4565,2.488,2.5561,2.5026,2.4214,2.3424,2.2712,2.1945,2.0944,2.0325,2.0049,2.0049,1.9805,1.9842,2.0389,2.0574,2.1341,2.3126,2.3018,2.2699,2.2325,2.1462,2.0901,2.0695,2.0412,2.0553,2.1027,2.1326,2.2123,2.3429,2.3827,2.4833,2.6139,2.6238,2.6999,0.2106,0.2475,0.2845,0.27,0.2763,0.2885,0.0,0.0,0.0,0.0,0.0,0.0,0.0,0.0,0.0,0.0,0.0,0.0,0.0,0.0,0.0,0.0,0.0,0.0,0.0,0.0,0.0,0.0,0.0,0.0,0.0,1.4298,1.4534,1.5146,1.5733,1.6375,1.7197,1.7779,1.7994,1.7935,1.7888,1.7836,1.7582,1.7582,1.7582,1.7582,0.0,1.7582,1.7582,1.7582,1.7582,1.7582,1.7582,1.7582,1.7582,1.7582,1.7582,1.7702,1.8564,1.9503,2.0226,1.9966,2.0238,2.0658,2.0508,2.0873,2.13,2.1569,2.1613,2.1591,2.1635,2.1399,2.1414,2.2412,2.3223,2.4203,2.5484,2.5846,2.6134,2.6798,2.6158,2.5229,2.4667,2.3599,2.249,2.1605,2.1159,2.0917,2.0917,2.1087,2.1417,2.1734,2.2372,2.3249,2.423,2.4511,2.4905,2.5339,2.3687,2.2253,2.1352,2.1273,2.1418,2.153,2.2325,2.3129,2.3935,2.5206,2.6123,2.7061,2.7435,2.8123,0.2249,0.2547,0.2812,0.2988,0.3147,0.3239,0.0,0.0,0.0,0.0,0.0,0.0,0.0,0.0,0.0,0.0,0.0,0.0,0.0,0.0,0.0,0.0,0.0,0.0,0.0,0.0,0.0,0.0,0.0,0.0,0.0,1.4298,1.4551,1.5067,1.5541,1.6085,1.6902,1.7483,1.7901,1.805,1.805,1.7963,1.7822,1.7996,1.8076,1.8076,0.0,1.8076,1.8063,1.7896,1.7836,1.7816,1.7649,1.7582,1.7582,1.7582,1.7789,1.813,1.8759,1.9407,1.9973,2.0023,2.0274,2.0472,2.0554,2.0955,2.1658,2.2266,2.2053,2.1737,2.1913,2.1948,2.2314,2.3442,2.4541,2.5812,2.7237,2.7739,2.8152,2.87,2.8145,2.7243,2.6229,2.5386,2.4206,2.2552,2.223,2.2009,2.19,2.2169,2.247,2.2782,2.3719,2.4615,2.5441,2.6019,2.6004,2.5432,2.4316,2.3444,2.2689,2.2664,2.2896,2.3444,2.3746,2.4556,2.5887,2.6468,2.7309,2.8379,2.8569,2.9032,0.2322,0.2562,0.2832,0.3187,0.0,0.0,0.0,0.0,0.0,0.0,0.0,0.0,0.0,0.0,0.0,0.0,0.0,0.0,0.0,0.0,0.0,0.0,0.0,0.0,0.0,0.0,0.0,0.0,0.0,0.0,1.4395,1.4485,1.4684,1.5178,1.5415,1.5823,1.66,1.7121,1.7562,1.7943,1.8009,1.8036,1.8029,1.8277,1.8424,1.849,1.849,1.849,1.847,1.8243,1.811,1.8023,1.7782,1.7649,1.7582,1.7582,1.807,1.8594,1.8809,1.9422,1.9991,2.0274,2.0286,2.0391,2.0616,2.1181,2.2032,2.302,2.2971,2.2674,2.2699,2.2978,2.3559,2.4754,2.5974,2.7261,2.8847,2.9231,2.9537,3.0091,2.9637,2.8792,2.7781,2.6951,2.5909,2.3828,2.355,2.3456,2.3027,2.3319,2.3755,2.4175,2.5089,2.6017,2.6873,2.7439,2.7132,2.5738,2.5218,2.4843,2.4439,2.4421,2.4693,2.543,2.5229,2.5939,2.75,2.7371,2.8013,2.9301,2.9301,2.9559,0.2436,0.2668,0.2947,0.321,0.0,0.0,0.0,0.0,0.0,0.0,0.0,0.0,0.0,0.0,0.0,0.0,0.0,0.0,0.0,0.0,0.0,0.0,0.0,0.0,0.0,0.0,0.0,0.0,0.0,0.0,1.4684,1.4875,1.5164,1.5464,1.5512,1.5813,1.6299,1.6613,1.7054,1.7615,1.7909,1.805,1.8043,1.807,1.823,1.849,1.849,1.849,1.849,1.847,1.8297,1.8043,1.8023,1.7836,1.7582,1.7582,1.8178,1.8913,1.8913,1.964,2.0558,2.0379,2.0511,2.072,2.072,2.1286,2.236,2.3707,2.4593,2.5082,2.4531,2.4625,2.5144,2.6118,2.7164,2.8228,2.9592,2.9833,2.9881,3.0081,2.9637,2.9,2.8625,2.7946,2.6891,2.5457,2.5283,2.5034,2.4676,2.5168,2.5666,2.6134,2.7072,2.7961,2.886,2.8976,2.8754,2.8426,2.7669,2.6943,2.6539,2.6625,2.6551,2.6583,2.6673,2.7063,2.7814,2.7856,2.8301,2.9301,2.9301,2.9559,0.2436,0.2615,0.2915,0.3529,0.0,0.0,0.0,0.0,0.0,0.0,0.0,0.0,0.0,0.0,0.0,0.0,0.0,0.0,0.0,0.0,0.0,0.0,0.0,0.0,0.0,0.0,0.0,0.0,0.0,0.0,0.0,1.4843,1.5036,1.5518,1.5504,1.5688,1.5999,1.6286,1.664,1.7048,1.7722,1.805,1.8056,1.8237,1.8384,1.849,1.849,1.849,1.849,1.849,1.8424,1.8303,1.8123,1.7856,1.7582,1.7799,1.8285,1.8913,1.9346,2.0089,2.106,2.1292,2.1587,2.1925,2.203,2.267,2.3432,2.449,2.5413,2.5917,2.603,2.6465,2.7103,2.7828,2.8591,2.9371,3.0372,3.0519,3.0519,3.0635,3.0383,3.0073,2.9669,2.9165,2.8452,2.7101,2.7056,2.7124,2.6736,2.717,2.7427,2.739,2.7604,2.8106,2.9095,2.9249,2.9258,2.9544,2.8485,2.7883,2.7728,2.7719,2.7853,2.8212,2.7991,2.8299,2.9167,2.891,2.9104,2.9735,2.9735,2.9829,0.2476,0.2659,0.2936,0.0,0.0,0.0,0.0,0.0,0.0,0.0,0.0,0.0,0.0,0.0,0.0,0.0,0.0,0.0,0.0,0.0,0.0,0.0,0.0,0.0,0.0,0.0,0.0,0.0,0.0,0.0,0.0,1.5017,1.521,1.5588,1.5593,1.5642,1.5832,1.6126,1.6373,1.6573,1.7288,1.7769,1.8056,1.8257,1.8404,1.849,1.849,1.849,1.849,1.849,1.8437,1.8323,1.8016,1.7769,1.7799,1.7911,1.8452,1.9104,1.9533,2.039,2.139,2.2053,2.2581,2.3119,2.344,2.3983,2.4616,2.557,2.6359,2.6929,2.775,2.8056,2.8237,2.8836,2.9376,2.9804,3.0519,3.0674,3.0713,3.0859,3.0889,3.0791,3.0469,3.019,2.9575,2.8452,2.8501,2.8577,2.8314,2.8506,2.8584,2.8277,2.8006,2.8202,2.9032,2.9218,2.9446,2.9756,2.9167,2.8824,2.8824,2.8824,2.9036,2.9353,2.9021,2.9115,2.9994,2.9528,2.9539,2.9994,2.9994,2.9994,0.263,0.2739,0.0,0.0,0.0,0.0,0.0,0.0,0.0,0.0,0.0,0.0,0.0,0.0,0.0,0.0,0.0,0.0,0.0,0.0,0.0,0.0,0.0,0.0,0.0,0.0,0.0,0.0,0.0,0.0,0.0,1.5588,1.5895,1.5895,1.5794,1.5832,1.5832,1.6119,1.6273,1.6279,1.6567,1.7168,1.8029,1.8036,1.8196,1.8477,1.8477,1.8484,1.8484,1.8484,1.831,1.8016,1.7709,1.7799,1.8016,1.8016,1.8533,1.9334,1.9334,2.0288,2.1716,2.2348,2.3132,2.3983,2.4514,2.5177,2.5815,2.6902,2.7586,2.8468,2.9848,2.9193,2.8436,2.9097,2.9212,2.935,2.9994,3.0195,3.0332,3.0801,3.0889,3.0889,3.0889,3.0635,3.0131,2.9479,2.9412,2.9241,2.9273,2.9069,2.8917,2.8899,2.8685,2.8607,2.8607,2.9032,2.929,2.9301,2.9735,2.9994,2.9994,2.9994,2.9994,2.9994,2.9539,2.9539,2.9994,2.9539,2.9549,2.9994,2.9994,2.9994,0.2929,0.0,0.0,0.0,0.0,0.0,0.0,0.0,0.0,0.0,0.0,0.0,0.0,0.0,0.0,0.0,0.0,0.0,0.0,0.0,0.0,0.0,0.0,0.0,0.0,0.0,0.0,0.0,0.0,0.0,0.0,1.5071,1.537,1.5564,1.5677,1.5832,1.5832,1.5919,1.6066,1.6273,1.6359,1.6647,1.7114,1.7321,1.7462,1.7562,1.7762,1.7849,1.7869,1.809,1.813,1.8036,1.8158,1.8201,1.8325,1.8952,1.9679,2.0279,2.0605,2.1687,2.2913,2.3545,2.4352,2.5229,2.5872,2.6309,2.6673,2.7238,2.7611,2.817,2.904,2.8765,2.8607,2.9621,2.9657,2.9575,3.0107,3.0195,3.0332,3.0801,3.0889,3.0889,3.0889,3.0772,3.0723,3.048,3.0558,3.062,3.0429,3.0077,2.9566,2.8757,2.8311,2.8131,2.8131,2.8255,2.8618,2.9259,2.9435,2.9653,2.9984,2.9994,2.9994,2.9994,2.986,2.986,2.9994,2.986,2.986,2.9994,2.9994,2.9994,0.3287,0.0,0.0,0.0,0.0,0.0,0.0,0.0,0.0,0.0,0.0,0.0,0.0,0.0,0.0,0.0,0.0,0.0,0.0,0.0,0.0,0.0,0.0,0.0,0.0,0.0,0.0,0.0,0.0,0.0,0.0,1.4845,1.5087,1.5391,1.5565,1.5712,1.5832,1.5832,1.5919,1.6092,1.6092,1.6192,1.6373,1.6787,1.7041,1.7161,1.7455,1.7582,1.7595,1.7782,1.7862,1.7976,1.8183,1.8597,1.9049,1.9768,2.0416,2.1099,2.1626,2.2628,2.3653,2.4289,2.5201,2.6217,2.6854,2.7289,2.753,2.7745,2.7853,2.8164,2.87,2.8603,2.8525,2.9463,2.9365,2.918,2.96,2.9687,2.9824,3.0283,3.0498,3.0615,3.0741,3.1004,3.1112,3.1228,3.1566,3.1526,3.1248,3.0744,3.0083,2.927,2.8421,2.7924,2.7924,2.7924,2.8162,2.8721,2.9104,2.9435,2.9704,2.9891,2.9994,2.9994,2.9994,2.9994,2.9994,2.9994,2.9994,2.9994,2.9994,2.9994,0.0,0.0,0.0,0.0,0.0,0.0,0.0,0.0,0.0,0.0,0.0,0.0,0.0,0.0,0.0,0.0,0.0,0.0,0.0,0.0,0.0,0.0,0.0,0.0,0.0,0.0,0.0,0.0,0.0,0.0,0.0,1.4814,1.5044,1.5311,1.5344,1.5484,1.5745,1.5772,1.5792,1.5792,1.5812,1.5832,1.5845,1.6413,1.684,1.7161,1.7428,1.7555,1.7582,1.7582,1.7799,1.8016,1.8122,1.8848,1.9879,2.0483,2.1191,2.1887,2.2492,2.3256,2.4101,2.4637,2.5712,2.6921,2.7561,2.7959,2.8291,2.8291,2.8291,2.8379,2.876,2.8574,2.8389,2.8769,2.8574,2.8408,2.8828,2.8916,2.9053,2.9482,2.9873,3.027,3.068,3.1007,3.1401,3.1777,3.2133,3.2085,3.1748,3.121,3.0605,3.0056,2.8825,2.8017,2.7935,2.7883,2.7883,2.7924,2.8752,2.9259,2.9301,2.9746,2.9994,2.9994,2.9994,2.9994,2.9994,2.9994,2.9994,2.9994,3.0099,3.0099,0.0,0.0,0.0,0.0,0.0,0.0,0.0,0.0,0.0,0.0,0.0,0.0,0.0,0.0,0.0,0.0,0.0,0.0,0.0,0.0,0.0,0.0,0.0,0.0,0.0,0.0,0.0,0.0,0.0,0.0,1.4183,1.4489,1.4643,1.4703,1.4937,1.5084,1.515,1.5378,1.5491,0.0,1.5718,1.5832,1.5838,1.6199,1.6653,1.7154,1.7215,1.7375,1.7582,1.7799,1.8115,1.8429,1.9056,1.9872,2.079,2.1709,2.2417,2.302,2.3619,2.4181,2.4923,2.5254,2.6218,2.7218,2.7552,2.7959,2.8291,2.8291,2.8291,2.831,2.8408,2.8359,2.831,2.8408,2.8359,2.8408,2.8828,2.8916,2.9053,2.9482,2.9872,3.0162,3.0631,3.0987,3.1385,3.2082,3.2248,3.2209,3.1983,3.1756,3.1298,3.0118,2.9404,2.8711,2.7986,2.7603,2.7552,2.7903,2.8452,2.8928,2.929,2.9746,2.9994,2.9994,2.9994,2.9994,2.9994,2.9994,3.0099,3.0287,3.0484,3.0703,0.0,0.0,0.0,0.0,0.0,0.0,0.0,0.0,0.0,0.0,0.0,0.0,0.0,0.0,0.0,0.0,0.0,0.0,0.0,0.0,0.0,0.0,0.0,0.0,0.0,0.0,0.0,0.0,0.0,1.3913,1.4088,1.4229,1.4376,1.4516,1.4669,1.4823,1.4963,1.5117,1.519,1.5197,1.5484,1.5698,1.5838,1.6139,1.6513,1.6947,1.7088,1.7418,1.7799,1.7911,1.8429,1.9049,1.9776,2.0688,2.1802,2.2911,2.3619,2.4134,2.4637,2.5074,2.5452,2.5561,2.6203,2.6836,2.7051,2.75,2.7988,2.7988,2.8135,2.8291,2.8291,2.8291,2.8291,2.8291,2.8291,2.835,2.8682,2.8839,2.8908,2.9233,2.9669,3.0068,3.0731,3.139,3.1983,3.2457,3.2487,3.2405,3.2406,3.2178,3.1681,3.076,3.0046,2.9352,2.8649,2.7966,2.7676,2.7914,2.8359,2.8721,2.8959,2.9632,2.9994,2.9994,2.9994,2.9994,2.9994,2.9994,3.0193,3.0588,3.0981,3.1403,0.0,0.0,0.0,0.0,0.0,0.0,0.0,0.0,0.0,0.0,0.0,0.0,0.0,0.0,0.0,0.0,0.0,0.0,0.0,0.0,0.0,0.0,0.0,0.0,0.0,0.0,0.0,0.0,0.0,1.4088,1.4088,1.4088,1.4202,1.4436,1.4442,1.4563,1.481,1.4863,1.4883,1.489,1.5184,1.5478,1.5765,1.6108,1.6404,1.6746,1.7049,1.7551,1.8046,1.8101,1.875,1.9783,2.0388,2.1404,2.2627,2.3809,2.451,2.4932,2.5538,2.5742,2.5742,2.5742,2.6035,2.6387,2.6387,2.6982,2.7666,2.7666,2.7969,2.8291,2.8398,2.8408,2.8398,2.8398,2.8398,2.8504,2.8621,2.8727,2.8834,2.9026,2.9554,3.0245,3.0829,3.1891,3.2727,3.2727,3.2727,3.2727,3.2727,3.2395,3.1992,3.1536,3.0739,3.0046,2.958,2.869,2.8162,2.8162,2.8524,2.8731,2.8731,2.9622,3.0182,3.0099,3.0099,3.0203,3.0203,3.0203,3.0599,3.1197,3.1688,3.2286,0.0,0.0,0.0,0.0,0.0,0.0,0.0,0.0,0.0,0.0,0.0,0.0,0.0,0.0,0.0,0.0,0.0,0.0,0.0,0.0,0.0,0.0,0.0,0.0,0.0,0.0,0.0,0.0,1.3941,1.4088,1.4088,1.4088,1.4108,1.4142,1.4142,1.4162,1.4202,1.4456,1.4583,1.4583,1.4883,1.5359,1.5841,1.5876,1.6204,1.6751,1.7237,1.7642,1.8051,1.8547,1.9175,1.9783,2.0806,2.1725,2.2627,2.3926,2.4627,2.4932,2.5538,2.5742,2.5742,2.5742,2.6035,2.6387,2.6387,2.6982,2.7666,2.7666,2.7969,2.8398,2.8621,2.8631,2.8727,2.893,2.9026,2.893,2.8727,2.893,2.9026,2.9132,3.0012,3.0829,3.1241,3.2126,3.2727,3.2727,3.2727,3.2727,3.2727,3.2675,3.2457,3.2002,3.1495,3.1008,3.0543,2.9653,2.9125,2.9125,2.9177,2.9208,2.9208,3.0098,3.061,3.0692,3.0692,3.0795,3.1023,3.1322,3.1812,3.251,3.3089,3.3784,0.0,0.0,0.0,0.0,0.0,0.0,0.0,0.0,0.0,0.0,0.0,0.0,0.0,0.0,0.0,0.0,0.0,0.0,0.0,0.0,0.0,0.0,0.0,0.0,0.0,0.0,0.0,0.0,1.3768,1.3908,1.4082,1.4088,1.4088,1.4088,1.4088,1.4088,1.4088,1.4215,1.4448,1.4703,1.5,1.5308,1.5694,1.6057,1.6476,1.687,1.7274,1.7788,1.8309,1.874,1.9279,1.9983,2.0798,2.1615,2.2627,2.3818,2.452,2.4932,2.5538,2.5742,2.5742,2.5742,2.5869,2.6025,2.6025,2.6621,2.7305,2.7305,2.7888,2.8514,2.8631,2.8834,2.893,2.9026,2.9237,2.9343,2.9248,2.9343,2.9448,2.9564,3.0514,3.1251,3.1371,3.2126,3.2727,3.2727,3.2727,3.2727,3.2727,3.2727,3.2551,3.2095,3.1868,3.1567,3.1112,3.046,3.0068,2.9901,3.0087,3.019,3.0395,3.1251,3.1927,3.2413,3.1897,3.1766,3.2117,3.2488,3.3078,3.3871,3.4362,3.5054,0.0,0.0,0.0,0.0,0.0,0.0,0.0,0.0,0.0,0.0,0.0,0.0,0.0,0.0,0.0,0.0,0.0,0.0,0.0,0.0,0.0,0.0,0.0,0.0,0.0,0.0,0.0,0.0,1.3554,1.3741,1.3961,1.4048,1.4088,1.4088,1.4088,1.4088,1.4088,1.4166,1.4365,1.4847,1.5005,1.5245,1.5641,1.6067,1.6515,1.7018,1.7414,1.7967,1.8492,1.892,1.9612,2.0388,2.0995,2.181,2.2728,2.3809,2.452,2.4932,2.5538,2.5742,2.5732,2.583,2.583,2.583,2.5927,2.6527,2.7216,2.7216,2.7949,2.8834,2.894,2.9036,2.9237,2.9343,2.9564,2.9669,2.9669,2.9669,2.9774,2.9994,3.0739,3.1381,3.1381,3.2126,3.2727,3.2727,3.2727,3.2727,3.2727,3.2727,3.2602,3.225,3.2219,3.2085,3.1754,3.1298,3.0982,3.1053,3.1315,3.1657,3.2082,3.2938,3.3592,3.415,3.3754,3.3413,3.33,3.3871,3.4447,3.5138,3.563,3.6118,0.0,0.0,0.0,0.0,0.0,0.0,0.0,0.0,0.0,0.0,0.0,0.0,0.0,0.0,0.0,0.0,0.0,0.0,0.0,0.0,0.0,0.0,0.0,0.0,0.0,0.0,0.0,0.0,1.332,1.3654,1.3667,1.3935,1.4088,1.4088,1.4088,1.4088,1.4088,1.4321,1.4489,1.4678,1.4762,1.5014,1.5591,1.5605,1.6132,1.6938,1.7567,1.8118,1.8738,1.936,2.0101,2.0917,2.1725,2.2426,2.3029,2.4125,2.4637,2.4932,2.5538,2.5742,2.5732,2.6004,2.61,2.61,2.64,2.712,2.7713,2.7713,2.8448,2.9132,2.9448,2.9554,2.9659,2.9889,2.9994,2.9994,2.9994,2.9994,2.9994,2.9994,3.0739,3.1381,3.1381,3.2126,3.2727,3.2727,3.2727,3.2727,3.2727,3.2727,3.2727,3.2696,3.2696,3.2685,3.2664,3.224,3.2173,3.2696,3.3105,3.3576,3.4218,3.548,3.5904,3.5545,3.6427,3.6184,3.4678,3.5271,3.575,3.6225,3.6521,3.6909,0.0,0.0,0.0,0.0,0.0,0.0,0.0,0.0,0.0,0.0,0.0,0.0,0.0,0.0,0.0,0.0,0.0,0.0,0.0,0.0,0.0,0.0,0.0,0.0,0.0,0.0,0.0,0.0,0.0,1.3464,1.4021,1.4145,1.4207,1.4207,1.4393,1.4496,1.4496,1.4748,1.4992,1.5151,1.5492,1.5808,1.6095,1.6484,1.6799,1.7154,1.7825,1.8348,1.8715,1.9735,2.044,2.1086,2.2013,2.271,2.322,2.4007,2.452,2.4932,2.5538,2.583,2.6014,2.61,2.6197,2.639,2.6496,2.712,2.7814,2.7814,2.8551,2.9448,2.9554,2.9774,2.9879,2.9994,2.9994,2.9994,2.9994,2.9994,2.9994,2.9994,3.0739,3.1381,3.1381,3.2126,3.2727,3.2727,3.2727,3.2727,3.2965,3.3182,3.3409,3.3523,3.3727,3.3829,3.3829,3.3658,3.3766,3.4325,3.4769,3.5398,3.6131,3.692,3.7307,3.7097,3.7667,3.723,3.6036,3.6534,3.7015,3.7307,3.7413,3.7611,0.0,0.0,0.0,0.0,0.0,0.0,0.0,0.0,0.0,0.0,0.0,0.0,0.0,0.0,0.0,0.0,0.0,0.0,0.0,0.0,0.0,0.0,0.0,0.0,0.0,0.0,0.0,0.0,0.0,0.0,1.395,1.4069,1.4125,1.4125,1.4426,1.4587,1.467,1.4949,1.5249,1.565,1.6072,1.6476,1.6722,1.721,1.7554,1.7692,1.8173,1.8587,1.9028,2.0289,2.1147,2.1691,2.2655,2.3311,2.3728,2.4214,2.4618,2.5137,2.5538,2.5917,2.6091,2.6197,2.64,2.6699,2.6784,2.7405,2.8116,2.8116,2.886,2.9764,2.9764,2.9889,2.9994,2.9994,2.9994,2.9994,2.9994,3.0118,3.0222,3.0222,3.0967,3.1598,3.1598,3.223,3.2727,3.2727,3.2727,3.2841,3.3296,3.3625,3.4054,3.4613,3.5024,3.5223,3.5322,3.5322,3.5504,3.6047,3.6661,3.7397,3.8148,3.8776,3.9032,3.8774,3.8958,3.8505,3.7377,3.7596,3.7703,3.79,3.79,3.7992,0.0,0.0,0.0,0.0,0.0,0.0,0.0,0.0,0.0,0.0,0.0,0.0,0.0,0.0,0.0,0.0,0.0,0.0,0.0,0.0,0.0,0.0,0.0,0.0,0.0,0.0,0.0,0.0,1.3023,1.3265,1.3348,1.3635,1.381,1.3817,1.4111,1.4434,1.4617,1.4932,1.5423,1.6087,1.655,1.6944,1.744,1.7836,1.8203,1.8471,1.8479,1.8938,1.9646,2.096,2.1987,2.2779,2.3772,2.4332,2.4538,2.4833,2.5137,2.5342,2.5635,2.5917,2.6197,2.64,2.6699,2.6996,2.7262,2.7893,2.8618,2.8618,2.928,2.9994,2.9994,2.9994,2.9994,2.9994,2.9994,2.9994,2.9994,3.0356,3.0677,3.0667,3.1402,3.2023,3.2023,3.2416,3.2727,3.2727,3.2737,3.2955,3.3512,3.4166,3.4914,3.5761,3.6294,3.6823,3.7002,3.7002,3.7335,3.789,3.8755,3.9506,4.007,4.0896,4.1036,4.0422,4.0396,3.9834,3.871,3.8187,3.7926,3.79,3.79,3.8161,0.4364,0.0,0.0,0.0,0.0,0.0,0.0,0.0,0.0,0.0,0.0,0.0,0.0,0.0,0.0,0.0,0.0,0.0,0.0,0.0,0.0,0.0,0.0,0.0,0.0,0.0,0.0,0.0,1.3124,1.3422,1.3809,1.391,1.4062,1.4301,1.4395,1.4547,1.4772,1.518,1.559,1.6095,1.664,1.7196,1.761,1.8193,1.8584,1.8698,1.9126,1.968,2.0416,2.1563,2.261,2.3541,2.4754,2.5333,2.5333,2.543,2.5538,2.5635,2.5635,2.6014,2.64,2.6496,2.6784,2.7167,2.7262,2.7893,2.8618,2.8618,2.928,2.9994,2.9994,2.9994,2.9994,2.9994,2.9994,2.9994,2.9994,3.0356,3.0584,3.0253,3.0936,3.1557,3.1557,3.2209,3.2727,3.3079,3.3182,3.3738,3.4725,3.5564,3.6306,3.718,3.782,3.8243,3.8348,3.8336,3.8546,3.9067,3.9622,4.0058,4.0681,4.111,4.1036,4.0422,4.003,3.9564,3.9017,3.866,3.8292,3.79,3.8253,3.8666,0.0,0.0,0.0,0.0,0.0,0.0,0.0,0.6617,0.0,0.0,0.0,0.0,0.0,0.0,0.0,0.0,0.0,0.0,0.0,0.0,0.0,0.0,0.0,0.0,0.0,1.2864,1.3163,1.3393,1.3597,1.3906,1.4172,1.4187,1.4209,1.4267,1.4399,1.4494,1.4538,1.4999,1.539,1.5881,1.6569,1.7115,1.761,1.8184,1.8514,1.8692,1.9236,1.9989,2.0932,2.1973,2.2972,2.3935,2.4995,2.5566,2.5742,2.5742,2.5742,2.5742,2.582,2.611,2.6496,2.6602,2.6976,2.7262,2.7262,2.7893,2.8618,2.8618,2.928,2.9994,2.9994,2.9994,2.9994,2.9994,2.9994,2.9994,3.0088,3.0506,3.0674,3.04,3.1029,3.165,3.165,3.225,3.2841,3.3296,3.3727,3.4491,3.5674,3.6738,3.769,3.8687,3.9312,3.9737,3.984,3.984,3.9943,4.0249,4.0478,4.0694,4.1097,4.1211,4.1036,4.0422,4.0109,3.982,3.9547,3.8939,3.8569,3.8512,3.8948,3.9455,0.5468,0.0,0.0,0.0,0.0,0.0,0.6276,0.655,0.0,0.0,0.0,0.0,0.0,0.0,0.0,0.0,0.0,0.0,0.0,0.0,0.0,0.0,0.0,0.0,1.2476,1.3121,1.3515,1.359,1.4074,1.4377,1.4484,1.4521,1.4396,1.414,1.4451,1.4466,1.4133,1.4661,1.5225,1.5743,1.6427,1.6993,1.744,1.7925,1.8327,1.8745,1.9143,2.0003,2.1294,2.2107,2.3115,2.4127,2.4789,2.5312,2.5674,2.5723,2.5742,2.583,2.6004,2.6294,2.6602,2.6805,2.7081,2.7262,2.7262,2.7852,2.8556,2.8659,2.9321,2.9994,2.9994,2.9994,2.9994,2.9994,2.9994,3.0099,3.0391,3.0692,3.0912,3.0937,3.1517,3.1989,3.1989,3.2384,3.2912,3.3578,3.4216,3.5067,3.6456,3.7616,3.8687,3.988,4.0501,4.0802,4.1128,4.1128,4.1128,4.1128,4.1128,4.1128,4.1128,4.1128,4.0867,4.0331,4.035,4.0346,4.0128,3.919,3.9024,3.9469,3.9908,4.043,0.5566,0.5596,0.5608,0.5663,0.0,0.0,0.0,0.6137,0.0,0.0,0.0,0.0,0.0,0.0,0.0,0.0,0.0,0.0,0.0,0.0,0.0,0.0,0.0,0.0,1.2054,1.2353,1.2596,1.2735,1.3353,1.3866,1.4343,1.4774,1.4927,1.4741,1.5202,1.5286,1.4875,1.528,1.5779,1.6301,1.6834,1.7334,1.787,1.8362,1.8683,1.8993,1.9399,2.0173,2.1275,2.1953,2.2926,2.3903,2.4766,2.5127,2.5244,2.5605,2.583,2.6004,2.6091,2.64,2.6805,2.69,2.7081,2.7262,2.7262,2.7634,2.8214,2.8959,2.957,2.9994,2.9994,2.9994,2.9994,2.9994,2.9994,3.0088,3.0588,3.1084,3.1618,3.2035,3.2126,3.2211,3.2211,3.2609,3.3247,3.3977,3.4581,3.5399,3.6867,3.7779,3.8601,3.9329,3.9635,3.9842,3.9939,3.9939,3.9939,3.9939,3.9939,3.9939,3.9939,3.9939,3.997,4.0004,4.0294,4.0535,4.0597,3.9908,3.9927,4.036,4.0788,4.131,0.5967,0.6003,0.6003,0.6003,0.0,0.0,0.0,0.0,0.0,0.0,0.0,0.0,0.0,0.0,0.0,0.0,0.0,0.0,0.0,0.0,0.0,0.0,0.0,0.0,1.1934,1.2391,1.276,1.3228,1.3704,1.4266,1.4894,1.5535,1.5874,1.5912,1.6374,1.6286,1.5741,1.6104,1.6385,1.6721,1.7061,1.7497,1.8023,1.8264,1.8505,1.8913,1.9311,2.0061,2.1135,2.186,2.272,2.3612,2.4703,2.5258,2.5496,2.5952,2.6207,2.6294,2.6496,2.6699,2.69,2.7081,2.7167,2.7262,2.7262,2.7728,2.8411,2.9104,2.9642,2.9994,3.0193,3.0297,3.0391,3.0609,3.0713,3.1002,3.1699,3.2196,3.2789,3.3499,3.3807,3.3761,3.3287,3.3634,3.4181,3.512,3.56,3.6416,3.7568,3.8285,3.8897,3.931,3.9503,3.9612,3.9612,3.9612,3.9612,3.9612,3.9612,3.9612,3.9612,3.9612,3.9741,3.9947,4.0384,4.081,4.1339,4.138,4.1449,4.1463,4.1811,4.2237,0.0,0.0,0.0,0.0,0.0,0.6398,0.0,0.0,0.0,0.0,0.0,0.0,0.0,0.0,0.0,0.0,0.0,0.0,0.0,0.0,0.0,0.0,0.0,0.0,0.0,1.228,1.2906,1.3558,1.3909,1.4491,1.5349,1.6126,1.6685,1.6949,1.7407,1.7299,1.661,1.6841,1.6998,1.7006,1.7388,1.777,1.8214,1.8284,1.8559,1.8975,1.9381,2.0089,2.1079,2.1935,2.2712,2.3402,2.4565,2.5319,2.5762,2.6205,2.6426,2.6602,2.6805,2.69,2.6996,2.7262,2.7262,2.7262,2.7262,2.7893,2.869,2.9063,2.957,3.0088,3.0391,3.0681,3.0991,3.1322,3.1721,3.2117,3.2901,3.3499,3.419,3.4969,3.5559,3.5586,3.4587,3.4797,3.5294,3.6126,3.6614,3.722,3.8054,3.8672,3.9068,3.9285,3.9272,3.9272,3.9272,3.9272,3.9272,3.9367,3.9367,3.9462,3.9449,3.9638,3.9947,4.024,4.074,4.1423,4.2237,4.282,4.2915,4.2592,4.285,4.3155,0.0,0.0,0.0,0.0,0.6586,0.0,0.0,0.0,0.0,0.0,0.0,0.0,0.0,0.0,0.0,0.0,0.0,0.0,0.0,0.0,0.0,0.0,0.0,0.0,0.0,1.1153,1.156,1.2204,1.2555,1.3289,1.4494,1.5654,1.6521,1.7188,1.7707,1.7788,1.7351,1.7397,1.7415,1.7424,1.7972,1.8526,1.8923,1.9422,1.9825,2.0079,2.0323,2.081,2.149,2.2433,2.3042,2.353,2.4311,2.4867,2.5309,2.5742,2.6259,2.69,2.69,2.7081,2.7262,2.7262,2.7262,2.7262,2.7262,2.7893,2.8628,2.868,2.9321,3.0088,3.0588,3.1084,3.1688,3.2106,3.2611,3.3201,3.4091,3.4678,3.5271,3.6023,3.6521,3.664,3.5633,3.5502,3.5731,3.621,3.6508,3.6899,3.75,3.7898,3.8096,3.8096,3.8096,3.8096,3.8096,3.8096,3.8175,3.8319,3.8607,3.8789,3.893,3.9809,4.0382,4.0929,4.1673,4.2467,4.3126,4.3379,4.3566,4.3518,4.3754,4.391,0.0,0.0,0.0,0.0,0.0,0.0,0.6264,0.0,0.6459,0.0,0.0,0.0,0.0,0.0,0.0,0.0,0.0,0.0,0.0,0.0,0.0,0.0,0.0,0.0,0.0,0.0,0.0,0.0,1.178,1.2653,1.4205,1.5559,1.6727,1.771,1.8611,1.8917,1.8581,1.881,1.882,1.8745,1.9222,1.9587,1.9866,2.0438,2.0722,2.0809,2.0886,2.1151,2.1517,2.2198,2.2818,2.3371,2.3934,2.4774,2.5675,2.6126,2.6587,2.7177,2.7177,2.7167,2.7357,2.7452,2.7536,2.7726,2.7925,2.8668,2.9511,2.9511,3.0184,3.1105,3.1801,3.2398,3.2889,3.3598,3.419,3.4775,3.5355,3.5846,3.6238,3.6909,3.7307,3.7413,3.7028,3.6828,3.6828,3.7214,3.7307,3.7505,3.7703,3.7808,3.79,3.79,3.79,3.79,3.79,3.79,3.807,3.8408,3.8997,3.9502,3.9839,4.0603,4.1281,4.1728,4.2452,4.3126,4.3723,4.3879,4.405,4.4065,4.4127,4.4205,0.6629,0.0,0.0,0.0,0.0,0.0,0.0,0.0,0.0,0.0,0.0,0.0,0.0,0.0,0.0,0.0,0.0,0.0,0.0,0.0,0.0,0.0,0.0,0.0,0.0,0.0,0.0,0.0,0.0,1.211,1.3749,1.5261,1.6606,1.7743,1.9084,1.96,1.9287,1.9781,1.9797,1.9429,2.0112,2.0446,2.0636,2.1278,2.1541,2.1541,2.1541,2.1547,2.1619,2.208,2.2611,2.3236,2.3701,2.4695,2.5916,2.6258,2.6755,2.7262,2.7262,2.7262,2.7357,2.7631,2.7904,2.8269,2.8653,2.9708,3.0663,3.076,3.145,3.2398,3.3089,3.3685,3.4276,3.5066,3.5655,3.6143,3.6521,3.6815,3.7015,3.7505,3.7808,3.79,3.79,3.7703,3.7703,3.79,3.79,3.79,3.79,3.79,3.79,3.79,3.79,3.79,3.7979,3.807,3.8434,3.9203,4.0014,4.0675,4.1099,4.1767,4.2275,4.2629,4.3284,4.3786,4.4127,4.4281,4.4358,4.4358,4.4358,4.4435,0.0,0.0,0.0,0.6793,0.0,0.0,0.0,0.0,0.6643,0.0,0.0,0.0,0.0,0.0,0.0,0.0,0.0,0.0,0.0,0.0,0.0,0.0,0.0,0.0,0.0,0.0,0.0,0.0,0.0,0.0,1.2752,1.4436,1.5883,1.6978,1.85,1.9297,1.9287,1.992,1.9776,1.8934,2.0265,2.0849,2.0954,2.1989,2.248,2.248,2.248,2.2221,2.1838,2.2304,2.277,2.3236,2.3701,2.4695,2.5875,2.5896,2.6475,2.7262,2.7262,2.7262,2.7357,2.7809,2.8269,2.8817,2.9543,3.0766,3.203,3.2218,3.3027,3.3911,3.4545,3.5041,3.5534,3.6131,3.6615,3.7108,3.74,3.7505,3.7611,3.7808,3.79,3.79,3.79,3.79,3.79,3.79,3.79,3.79,3.79,3.79,3.79,3.79,3.79,3.7979,3.8213,3.8408,3.9292,4.0816,4.1576,4.214,4.2548,4.2951,4.3364,4.3551,4.4035,4.4358,4.4587,4.4587,4.4572,4.4572,4.4572,4.4572,0.0,0.0,0.6805,0.6805,0.0,0.0,0.0,0.0,0.0,0.0,0.0,0.0,0.0,0.0,0.0,0.0,0.0,0.0,0.0,0.0,0.0,0.0,0.0,0.0,0.0,0.0,0.0,0.0,1.0054,0.0,0.0,1.3836,1.5195,1.6526,1.8328,1.936,1.9495,2.0301,2.0522,2.0151,2.0917,2.1363,2.1535,2.2221,2.2501,2.2501,2.2501,2.2232,2.1818,2.1973,2.249,2.3205,2.336,2.4426,2.5875,2.5875,2.6557,2.7547,2.7914,2.8102,2.8351,2.8991,2.9543,3.0,3.0812,3.2063,3.3256,3.3349,3.4217,3.5138,3.563,3.6023,3.6414,3.7015,3.7413,3.7611,3.7716,3.7795,3.7808,3.79,3.79,3.79,3.79,3.79,3.79,3.79,3.79,3.79,3.79,3.79,3.79,3.79,3.79,3.807,3.8408,3.953,4.0717,4.1947,4.2534,4.3046,4.3488,4.3786,4.4035,4.4035,4.4343,4.4496,4.4572,4.4572,4.4572,4.4572,4.4874,4.5024,0.7199,0.712,0.0,0.709,0.6879,0.0,0.6755,0.0,0.0,0.0,0.0,0.0,0.0,0.0,0.0,0.0,0.0,0.0,0.0,0.0,0.0,0.0,0.0,0.0,0.0,0.0,0.9065,0.9432,0.9727,0.0,0.0,0.0,1.4899,1.615,1.8308,1.9588,1.9733,2.0611,2.0903,2.0594,2.1281,2.1655,2.1828,2.2459,2.2739,2.2739,2.2739,2.2387,2.1807,2.1807,2.2434,2.3346,2.3416,2.4609,2.6235,2.5965,2.6823,2.8092,2.8653,2.9095,2.9429,3.0158,3.08,3.1247,3.2064,3.3343,3.456,3.465,3.5558,3.6439,3.6815,3.7015,3.7201,3.7598,3.7795,3.79,3.79,3.79,3.79,3.79,3.79,3.79,3.79,3.79,3.79,3.7979,3.807,3.8161,3.8239,3.833,3.8434,3.8434,3.8434,3.8692,3.9367,4.0745,4.199,4.2936,4.3364,4.3786,4.4205,4.4435,4.4587,4.4663,4.4799,4.4949,4.5024,4.5024,4.5024,4.5024,4.5379,4.5672]},{"header":{"parameterUnit":"m.s-1","parameterCategory":1,"la1":30.6,"la2":29.2853,"lo1":-89.7004,"lo2":-87.6739,"dy":0.0162,"dx":0.0183,"nx":112,"ny":82,"refTime":"2026-03-16T12:00:00:Z","depth":0,"parameterNumber":3,"parameterNumberName":"V-component_of_WINDS"},"data":[0.0,0.0,0.0,0.0,0.0,0.0,0.0,0.0,0.0,0.0,0.0,0.0,0.0,0.0,0.0,0.0,0.0,0.0,0.0,0.0,0.0,0.0,0.0,0.0,0.0,0.0,0.0,0.0,0.0,0.0,0.0,0.0,0.0,0.0,0.0,0.0,0.0,0.0,0.0,0.0,0.0,0.0,0.0,0.0,0.0,0.0,0.0,0.0,0.0,0.0,0.0,0.0,0.0,0.0,0.0,0.0,0.0,0.0,0.0,0.0,0.0,0.0,0.0,0.0,0.0,0.0,0.0,0.0,0.0,0.0,0.0,0.0,0.0,0.0,0.0,0.0,0.0,0.0,0.0,0.0,0.0,0.0,0.0,0.0,0.0,0.0,0.0,0.0,0.0,0.0,0.0,-1.8659,-1.9513,-1.9578,-1.8652,-1.6664,-1.5324,-1.4981,0.0,0.0,0.0,0.0,0.0,0.0,0.0,0.0,0.0,0.0,0.0,0.0,0.0,0.0,0.0,0.0,0.0,0.0,0.0,0.0,0.0,0.0,0.0,0.0,0.0,0.0,0.0,0.0,0.0,0.0,0.0,0.0,0.0,0.0,0.0,0.0,0.0,0.0,0.0,0.0,0.0,0.0,0.0,0.0,0.0,0.0,0.0,0.0,0.0,0.0,0.0,0.0,0.0,0.0,0.0,0.0,0.0,0.0,0.0,0.0,0.0,0.0,0.0,0.0,0.0,0.0,0.0,0.0,0.0,0.0,0.0,0.0,0.0,0.0,0.0,0.0,0.0,0.0,0.0,0.0,0.0,0.0,0.0,0.0,0.0,0.0,0.0,0.0,0.0,0.0,0.0,0.0,0.0,0.0,0.0,0.0,0.0,0.0,0.0,0.0,0.0,0.0,0.0,0.0,-1.715,-2.0131,-2.1157,-2.1031,-1.9541,-1.9077,-1.7969,-1.5863,0.0,0.0,0.0,0.0,0.0,0.0,0.0,0.0,0.0,0.0,0.0,0.0,0.0,0.0,0.0,0.0,0.0,0.0,0.0,0.0,0.0,0.0,0.0,0.0,0.0,0.0,0.0,0.0,0.0,0.0,0.0,0.0,0.0,0.0,0.0,0.0,0.0,0.0,0.0,0.0,0.0,0.0,0.0,0.0,0.0,0.0,0.0,0.0,0.0,0.0,0.0,0.0,0.0,0.0,0.0,0.0,0.0,0.0,0.0,0.0,0.0,0.0,0.0,0.0,0.0,0.0,0.0,0.0,0.0,0.0,0.0,0.0,0.0,0.0,0.0,0.0,0.0,0.0,0.0,0.0,0.0,0.0,0.0,0.0,0.0,0.0,0.0,0.0,0.0,0.0,0.0,0.0,0.0,0.0,0.0,0.0,0.0,0.0,0.0,0.0,0.0,0.0,0.0,-1.7228,-1.8856,-2.1198,-2.1773,-2.1513,-2.0311,-1.8994,-1.7751,-1.6571,-1.3514,0.0,0.0,0.0,0.0,0.0,0.0,0.0,0.0,0.0,0.0,0.0,0.0,0.0,0.0,0.0,0.0,0.0,0.0,0.0,0.0,0.0,0.0,0.0,0.0,0.0,0.0,0.0,0.0,0.0,0.0,0.0,0.0,0.0,0.0,0.0,0.0,0.0,0.0,0.0,0.0,0.0,0.0,0.0,0.0,0.0,0.0,0.0,0.0,0.0,0.0,0.0,0.0,0.0,0.0,0.0,0.0,0.0,0.0,0.0,0.0,0.0,0.0,0.0,0.0,0.0,0.0,0.0,0.0,0.0,0.0,0.0,0.0,0.0,0.0,0.0,0.0,0.0,0.0,0.0,0.0,0.0,0.0,0.0,0.0,0.0,0.0,0.0,0.0,0.0,0.0,0.0,0.0,0.0,0.0,0.0,0.0,0.0,0.0,0.0,0.0,0.0,0.0,-1.9141,-2.0567,-2.2402,-2.2773,-2.2442,-2.139,-1.9397,-1.7853,-1.7038,-1.4138,0.0,0.0,0.0,0.0,0.0,0.0,0.0,0.0,0.0,0.0,0.0,0.0,0.0,0.0,0.0,0.0,0.0,0.0,0.0,0.0,0.0,0.0,0.0,0.0,0.0,0.0,0.0,0.0,0.0,0.0,0.0,0.0,0.0,0.0,0.0,0.0,0.0,0.0,0.0,0.0,0.0,0.0,0.0,0.0,0.0,0.0,0.0,0.0,0.0,0.0,0.0,0.0,0.0,0.0,0.0,0.0,0.0,0.0,0.0,0.0,0.0,0.0,0.0,0.0,0.0,0.0,0.0,0.0,0.0,0.0,0.0,0.0,0.0,0.0,0.0,0.0,0.0,0.0,0.0,0.0,0.0,0.0,0.0,0.0,0.0,0.0,0.0,0.0,0.0,0.0,0.0,0.0,0.0,0.0,0.0,0.0,0.0,0.0,0.0,0.0,0.0,0.0,-1.9244,-2.164,-2.4072,-2.5001,-2.4779,-2.3151,-2.2068,-2.0194,-1.7191,-1.4632,0.0,0.0,0.0,0.0,0.0,0.0,0.0,0.0,0.0,0.0,0.0,0.0,0.0,0.0,0.0,0.0,0.0,0.0,0.0,0.0,0.0,0.0,0.0,0.0,0.0,0.0,0.0,0.0,0.0,0.0,0.0,0.0,0.0,0.0,0.0,0.0,0.0,0.0,0.0,0.0,0.0,0.0,0.0,0.0,0.0,0.0,0.0,0.0,0.0,0.0,0.0,0.0,0.0,0.0,0.0,0.0,0.0,0.0,0.0,0.0,0.0,0.0,0.0,0.0,0.0,0.0,0.0,0.0,0.0,0.0,0.0,0.0,0.0,0.0,0.0,0.0,0.0,0.0,0.0,0.0,0.0,0.0,0.0,0.0,0.0,0.0,0.0,0.0,0.0,0.0,0.0,0.0,0.0,0.0,0.0,0.0,0.0,0.0,0.0,0.0,0.0,0.0,-1.8988,-2.0428,0.0,-2.2377,-2.2083,-2.0873,-1.9519,-1.8005,-1.6245,0.0,0.0,0.0,0.0,0.0,0.0,0.0,0.0,0.0,0.0,0.0,0.0,0.0,0.0,0.0,0.0,0.0,0.0,0.0,0.0,0.0,0.0,0.0,0.0,0.0,0.0,0.0,0.0,0.0,0.0,0.0,0.0,0.0,0.0,0.0,0.0,0.0,0.0,0.0,0.0,0.0,0.0,0.0,0.0,0.0,0.0,0.0,0.0,0.0,0.0,0.0,0.0,0.0,0.0,0.0,0.0,0.0,0.0,0.0,0.0,0.0,0.0,0.0,0.0,0.0,0.0,0.0,0.0,0.0,0.0,0.0,0.0,0.0,0.0,0.0,0.0,0.0,0.0,0.0,0.0,0.0,0.0,0.0,0.0,0.0,0.0,0.0,0.0,0.0,0.0,0.0,0.0,0.0,0.0,0.0,0.0,0.0,0.0,0.0,0.0,0.0,0.0,-1.7381,-1.8791,-1.9872,0.0,-2.1176,-2.1009,-2.0101,-1.8532,-1.6994,-1.5619,0.0,0.0,0.0,0.0,0.0,0.0,0.0,0.0,0.0,0.0,0.0,0.0,0.0,0.0,0.0,0.0,0.0,0.0,0.0,0.0,0.0,0.0,0.0,0.0,0.0,0.0,0.0,0.0,0.0,0.0,0.0,0.0,0.0,0.0,0.0,0.0,0.0,0.0,0.0,0.0,0.0,0.0,0.0,0.0,0.0,0.0,0.0,0.0,0.0,0.0,0.0,0.0,0.0,0.0,0.0,0.0,0.0,0.0,0.0,0.0,0.0,0.0,0.0,0.0,0.0,0.0,0.0,0.0,0.0,0.0,0.0,0.0,0.0,0.0,0.0,0.0,0.0,0.0,0.0,0.0,0.0,0.0,0.0,0.0,0.0,0.0,0.0,0.0,0.0,0.0,0.0,0.0,0.0,0.0,0.0,0.0,0.0,0.0,0.0,0.0,0.0,0.0,-1.6504,-1.8641,-2.0389,-2.1388,-2.2264,-2.2447,-2.1644,-1.9971,-1.7946,0.0,0.0,0.0,0.0,0.0,0.0,0.0,0.0,0.0,0.0,0.0,0.0,0.0,0.0,0.0,0.0,0.0,0.0,0.0,0.0,0.0,0.0,0.0,0.0,0.0,0.0,0.0,0.0,0.0,0.0,0.0,0.0,0.0,0.0,0.0,0.0,0.0,0.0,0.0,0.0,0.0,0.0,0.0,0.0,0.0,0.0,0.0,0.0,0.0,0.0,0.0,0.0,0.0,0.0,0.0,0.0,0.0,0.0,0.0,0.0,0.0,0.0,0.0,0.0,0.0,0.0,0.0,0.0,0.0,0.0,0.0,0.0,0.0,0.0,0.0,0.0,0.0,0.0,0.0,0.0,0.0,0.0,0.0,0.0,0.0,0.0,0.0,0.0,0.0,0.0,0.0,0.0,0.0,0.0,0.0,0.0,0.0,0.0,0.0,0.0,0.0,0.0,0.0,-1.7188,-1.9287,-2.0797,-2.1189,-2.0984,-2.0733,-2.0497,-1.8482,-1.6671,-1.5342,0.0,0.0,0.0,0.0,0.0,0.0,0.0,0.0,0.0,0.0,0.0,0.0,0.0,0.0,0.0,0.0,0.0,0.0,0.0,0.0,0.0,0.0,0.0,0.0,0.0,0.0,0.0,0.0,0.0,0.0,0.0,0.0,0.0,0.0,0.0,0.0,0.0,0.0,0.0,0.0,0.0,0.0,0.0,0.0,0.0,0.0,0.0,0.0,0.0,0.0,0.0,0.0,0.0,0.0,0.0,0.0,0.0,0.0,0.0,0.0,0.0,0.0,0.0,0.0,0.0,0.0,0.0,0.0,0.0,0.0,0.0,0.0,0.0,0.0,0.0,0.0,0.0,0.0,0.0,0.0,0.0,0.0,0.0,0.0,0.0,0.0,0.0,0.0,0.0,0.0,0.0,0.0,0.0,0.0,0.0,0.0,0.0,0.0,0.0,0.0,0.0,0.0,-1.7416,-1.9688,-2.1113,-2.0929,-2.0519,-2.0172,-1.9886,-1.8288,-1.669,-1.5239,0.0,0.0,0.0,0.0,0.0,0.0,0.0,0.0,0.0,0.0,0.0,0.0,0.0,0.0,0.0,0.0,0.0,0.0,0.0,0.0,0.0,0.0,0.0,0.0,0.0,0.0,0.0,0.0,0.0,0.0,0.0,0.0,0.0,0.0,0.0,0.0,0.0,0.0,0.0,0.0,0.0,0.0,0.0,0.0,0.0,0.0,0.0,0.0,0.0,0.0,0.0,0.0,0.0,0.0,0.0,0.0,0.0,0.0,0.0,0.0,0.0,0.0,0.0,0.0,0.0,0.0,0.0,0.0,0.0,0.0,0.0,0.0,0.0,0.0,0.0,0.0,0.0,0.0,0.0,0.0,0.0,0.0,0.0,0.0,0.0,0.0,0.0,0.0,0.0,0.0,0.0,0.0,0.0,0.0,0.0,0.0,0.0,0.0,0.0,0.0,0.0,0.0,-1.7488,-2.0008,-2.1485,-2.0877,-2.0795,-2.0495,-1.9742,-1.8939,-1.7573,-1.5444,0.0,0.0,0.0,0.0,0.0,0.0,0.0,0.0,0.0,0.0,0.0,0.0,0.0,0.0,0.0,0.0,0.0,0.0,0.0,0.0,0.0,0.0,0.0,0.0,0.0,0.0,0.0,0.0,0.0,0.0,0.0,0.0,0.0,0.0,0.0,0.0,0.0,0.0,0.0,0.0,0.0,0.0,0.0,0.0,0.0,0.0,0.0,0.0,0.0,0.0,0.0,0.0,0.0,0.0,0.0,0.0,0.0,0.0,0.0,0.0,-1.8116,0.0,0.0,0.0,0.0,0.0,0.0,0.0,0.0,0.0,0.0,0.0,0.0,0.0,0.0,0.0,0.0,0.0,0.0,0.0,0.0,0.0,0.0,0.0,0.0,0.0,0.0,0.0,0.0,0.0,0.0,0.0,0.0,0.0,0.0,0.0,0.0,0.0,0.0,0.0,0.0,0.0,-1.9039,-2.112,-2.2444,-2.2348,-2.1833,-2.1202,-2.0436,-1.9133,-1.7914,-1.6886,-1.483,0.0,0.0,0.0,0.0,0.0,0.0,0.0,0.0,0.0,0.0,0.0,0.0,0.0,0.0,0.0,0.0,0.0,0.0,0.0,0.0,0.0,0.0,0.0,0.0,0.0,0.0,0.0,0.0,0.0,0.0,0.0,0.0,0.0,0.0,0.0,0.0,0.0,0.0,0.0,0.0,0.0,0.0,0.0,0.0,0.0,0.0,0.0,0.0,0.0,0.0,0.0,0.0,0.0,0.0,0.0,0.0,0.0,0.0,0.0,0.0,-2.0423,0.0,0.0,0.0,0.0,0.0,0.0,0.0,0.0,0.0,0.0,0.0,0.0,0.0,0.0,0.0,0.0,0.0,0.0,0.0,0.0,0.0,0.0,0.0,0.0,0.0,0.0,0.0,0.0,0.0,0.0,0.0,0.0,0.0,0.0,0.0,0.0,0.0,0.0,0.0,0.0,-1.9517,-2.1451,-2.2712,-2.2764,-2.2427,-2.1898,-2.1136,-2.0356,-1.9269,-1.7857,-1.6343,0.0,0.0,0.0,0.0,0.0,0.0,0.0,0.0,0.0,0.0,0.0,0.0,0.0,0.0,0.0,0.0,0.0,0.0,0.0,0.0,0.0,0.0,0.0,0.0,0.0,0.0,0.0,0.0,0.0,0.0,0.0,0.0,0.0,0.0,0.0,0.0,0.0,0.0,0.0,0.0,0.0,0.0,0.0,0.0,0.0,0.0,0.0,0.0,0.0,0.0,0.0,0.0,0.0,-2.8222,-2.9098,-3.0572,-3.0721,-3.0775,-3.0588,-2.7214,-2.5626,-2.533,0.0,0.0,0.0,0.0,0.0,0.0,0.0,0.0,0.0,0.0,0.0,0.0,0.0,0.0,0.0,0.0,0.0,0.0,0.0,0.0,0.0,0.0,0.0,0.0,0.0,-2.3807,-2.29,0.0,0.0,0.0,0.0,0.0,0.0,0.0,0.0,0.0,0.0,0.0,0.0,-2.0058,-2.1816,-2.2901,-2.2901,-2.2928,-2.2583,-2.1702,-2.1633,-2.0748,-1.8652,-1.7805,-1.65,0.0,0.0,0.0,0.0,0.0,0.0,0.0,0.0,0.0,0.0,0.0,0.0,0.0,0.0,0.0,0.0,0.0,0.0,0.0,0.0,0.0,0.0,0.0,0.0,0.0,0.0,0.0,0.0,0.0,0.0,0.0,0.0,-1.4354,-1.4466,0.0,0.0,0.0,0.0,0.0,0.0,0.0,0.0,0.0,0.0,0.0,0.0,0.0,-2.6092,-2.852,-2.9322,-3.0609,-3.2381,-3.309,-3.3911,-3.4829,-3.5595,-3.5882,-3.5814,-3.528,0.0,-2.8703,-2.7697,0.0,0.0,0.0,0.0,0.0,0.0,0.0,0.0,0.0,0.0,0.0,0.0,0.0,0.0,0.0,0.0,0.0,0.0,0.0,0.0,0.0,0.0,-2.784,-2.7091,-2.6814,-2.6619,0.0,-2.3493,-2.122,-2.1115,-2.0636,0.0,0.0,0.0,0.0,0.0,0.0,0.0,-2.2306,-2.3206,-2.3677,-2.3732,-2.3796,-2.3267,-2.1885,-2.1764,-2.1068,-1.9439,-1.8606,-1.7735,-1.6796,-1.6046,0.0,0.0,0.0,0.0,0.0,0.0,0.0,0.0,0.0,0.0,0.0,0.0,0.0,0.0,0.0,0.0,0.0,0.0,0.0,0.0,0.0,0.0,0.0,0.0,0.0,0.0,0.0,0.0,0.0,-1.4541,-1.5704,-1.6155,-1.7243,-1.7967,0.0,0.0,0.0,0.0,0.0,0.0,0.0,0.0,0.0,-2.6801,-2.8427,-3.042,-3.2858,-3.412,-3.5591,-3.724,-3.762,-3.8197,-3.8997,-3.9369,-3.9528,-3.95,-3.95,-3.8255,-3.6006,-3.2883,-3.0355,-2.831,0.0,0.0,0.0,0.0,-2.5754,-2.6149,-2.7151,-2.7512,0.0,-2.6285,0.0,0.0,0.0,0.0,0.0,0.0,0.0,0.0,0.0,0.0,-3.0959,-3.0195,-3.0197,-3.0334,-2.992,-2.8605,-2.6892,0.0,-2.3755,-2.2653,-2.0771,0.0,0.0,0.0,0.0,-2.1394,-2.2768,-2.3838,-2.4499,-2.4622,-2.4321,-2.3877,-2.3255,-2.28,-2.2017,-2.0871,-2.0379,-1.9606,-1.8429,-1.8069,-1.7016,0.0,0.0,0.0,0.0,0.0,0.0,0.0,0.0,0.0,0.0,0.0,0.0,0.0,0.0,0.0,0.0,0.0,0.0,0.0,0.0,0.0,0.0,0.0,0.0,0.0,0.0,0.0,0.0,-1.6409,-1.7667,-1.8481,-1.9469,-2.0089,0.0,0.0,0.0,0.0,0.0,0.0,-2.5839,-2.6311,-2.7811,-3.0706,-3.2318,-3.4208,-3.6403,-3.7827,-3.9268,-4.0698,-4.0921,-4.133,-4.1906,-4.211,-4.2203,-4.2203,-4.2203,-4.2092,-4.159,-3.7522,-3.4624,-3.2655,-3.1652,-3.0454,-2.9374,-3.0166,-3.0522,-3.0802,-3.188,-3.2313,-3.2294,-3.1642,0.0,-2.9308,-2.7273,0.0,0.0,0.0,0.0,-2.9853,-3.0986,-3.2352,-3.3269,-3.2639,-3.2876,-3.3059,-3.2507,-3.2386,-3.1405,0.0,-2.6722,-2.549,-2.3328,0.0,0.0,0.0,0.0,-2.2573,-2.3693,-2.4927,-2.5692,-2.5579,-2.5339,-2.5007,-2.462,-2.3857,-2.3035,-2.2143,-2.1787,-2.1004,-1.9642,-1.9613,-1.8672,-1.6634,0.0,0.0,0.0,0.0,0.0,0.0,0.0,0.0,0.0,0.0,0.0,0.0,0.0,0.0,0.0,0.0,0.0,0.0,0.0,0.0,0.0,0.0,0.0,0.0,0.0,0.0,0.0,0.0,0.0,-2.1948,-2.3431,0.0,0.0,0.0,0.0,-2.5737,-2.7167,-2.8426,-2.9326,-3.0784,-3.2369,-3.4008,-3.5684,-3.7314,-3.8897,-3.9807,-4.0698,-4.1553,-4.2314,-4.2705,-4.276,-4.3522,-4.3875,-4.3875,-4.3875,-4.3448,-4.2593,-4.081,-3.9528,-3.8525,-3.6946,-3.62,-3.5956,-3.5436,-3.5642,-3.6233,-3.6567,-3.6811,-3.6858,-3.6274,-3.4352,-3.2023,-3.0496,-2.9996,0.0,0.0,-3.1808,-3.289,-3.3484,-3.3897,-3.4129,-3.4094,-3.4051,-3.4007,-3.3973,-3.3973,-3.3283,0.0,-2.9886,-2.8657,-2.645,0.0,-2.3981,-2.3971,-2.3478,-2.3925,-2.6139,-2.7151,-2.739,-2.6707,-2.7356,-2.7161,-2.5579,-2.4699,-2.3849,-2.2892,-2.2046,-2.1253,-2.0471,-2.0506,-1.9826,-1.8316,-1.7571,0.0,0.0,0.0,0.0,0.0,0.0,0.0,0.0,0.0,0.0,0.0,0.0,0.0,0.0,0.0,0.0,0.0,0.0,0.0,0.0,0.0,0.0,0.0,0.0,0.0,0.0,0.0,0.0,-2.4591,-2.6097,0.0,-2.7075,-2.7373,-2.8218,-2.9795,-3.0433,-3.1536,-3.3425,-3.4031,-3.5043,-3.664,-3.8263,-3.963,-4.0698,-4.2036,-4.3132,-4.3968,-4.4265,-4.4674,-4.5194,-4.5472,-4.5602,-4.5602,-4.5602,-4.5454,-4.5138,-4.4562,-4.2593,-3.9881,-3.9305,-3.8665,-3.804,-3.8059,-3.8142,-3.8312,-3.8561,-3.8844,-3.9026,-3.8562,-3.7489,-3.6138,-3.5013,-3.4272,-3.3988,-3.4613,-3.5407,-3.6146,-3.6627,-3.7079,-3.7293,-3.7203,-3.7076,-3.6895,-3.6437,-3.6035,-3.5191,-3.35,-3.1981,-3.0594,-2.935,-2.7497,-2.6063,-2.5673,-2.5497,-2.5905,-2.731,-2.8227,-2.8863,-2.9123,-2.8963,-2.8355,-2.7197,-2.6247,-2.511,-2.3702,-2.3257,-2.2703,-2.2069,-2.2157,-2.1756,-2.0745,-1.9946,-1.8647,0.0,0.0,0.0,0.0,0.0,0.0,0.0,0.0,0.0,0.0,0.0,0.0,0.0,0.0,0.0,0.0,0.0,0.0,0.0,0.0,0.0,0.0,0.0,0.0,0.0,0.0,-2.6266,-2.7146,-2.8669,-2.9664,-2.9664,-2.9908,-3.0865,-3.2758,-3.3109,-3.4188,-3.6352,-3.6423,-3.7005,-3.8346,-3.9946,-4.1051,-4.159,-4.3485,-4.4729,-4.5287,-4.5565,-4.5974,-4.6494,-4.6494,-4.6494,-4.6494,-4.6494,-4.6494,-4.6494,-4.6494,-4.4896,-4.2445,-4.2445,-4.2001,-4.1422,-4.1476,-4.1451,-4.1379,-4.1504,-4.1704,-4.1829,-4.1016,-4.0427,-3.9786,-3.8528,-3.7688,-3.7264,-3.7701,-3.8133,-3.8452,-3.8756,-3.9007,-3.9118,-3.8921,-3.8745,-3.8432,-3.7784,-3.6939,-3.6016,-3.5177,-3.382,-3.2383,-3.1098,-2.9622,-2.8436,-2.7787,-2.7572,-2.7823,-2.8774,-2.9898,-3.0736,-3.0987,-3.0993,-3.0505,-2.9343,-2.8123,-2.67,-2.5013,-2.4329,-2.3676,-2.3063,-2.3151,-2.2894,-2.2117,-2.0813,-1.9487,-1.8215,0.0,0.0,0.0,0.0,0.0,0.0,0.0,0.0,0.0,0.0,0.0,0.0,0.0,0.0,0.0,0.0,0.0,0.0,0.0,0.0,0.0,0.0,0.0,-2.3652,-2.6472,-2.8838,-2.9739,-3.1278,-3.2255,-3.2255,-3.3006,-3.3789,-3.4547,-3.5296,-3.639,-3.7925,-3.8,-3.8327,-3.9027,-4.0698,-4.1609,-4.1627,-4.4098,-4.5342,-4.5379,-4.616,-4.655,-4.6568,-4.6568,-4.6568,-4.6568,-4.6568,-4.6568,-4.6568,-4.6568,-4.6568,-4.6568,-4.6513,-4.6409,-4.6271,-4.5865,-4.5662,-4.5567,-4.5373,-4.5451,-4.5349,-4.378,-4.316,-4.2686,-4.089,-4.0105,-3.9836,-3.9911,-3.9878,-3.9786,-3.9678,-3.9511,-3.9322,-3.912,-3.8859,-3.8545,-3.7982,-3.6696,-3.5756,-3.5984,-3.5345,-3.4039,-3.172,-3.1348,-3.11,-3.037,-2.972,0.0,-3.0564,-3.2194,-3.2949,-3.2193,-3.3453,-3.3643,-3.1893,-3.0226,-2.8534,-2.6823,-2.5235,-2.402,-2.3348,-2.3453,-2.3164,-2.2396,-2.0112,-1.8538,-1.7768,0.0,0.0,0.0,0.0,0.0,0.0,0.0,0.0,0.0,0.0,0.0,0.0,0.0,0.0,0.0,0.0,0.0,0.0,0.0,0.0,0.0,0.0,-2.7054,-2.7054,-2.9345,-3.1555,-3.2997,-3.4604,-3.5591,-3.5591,-3.5273,-3.5647,-3.7001,-3.6733,-3.6926,-3.7962,-3.7947,-3.8032,-3.8209,-4.042,-4.1869,-4.2463,-4.4934,-4.6457,-4.7033,-4.7256,-4.7683,-4.824,-4.824,-4.824,-4.824,-4.824,-4.824,-4.824,-4.819,-4.8155,-4.8044,-4.6925,-4.6376,-4.6186,-4.5956,-4.5643,-4.5391,-4.5469,-4.5603,-4.5662,-4.513,-4.4434,-4.3757,-4.3033,-4.1823,-4.077,-4.0885,-4.0515,-4.0157,-4.057,-4.0512,-4.038,-4.0656,-4.0481,-3.998,-3.8972,-3.8105,-3.7309,-3.6542,-3.636,-3.5874,-3.4353,-3.3179,-3.2375,-3.2179,-3.1466,0.0,-3.2289,-3.343,-3.4297,-3.472,-3.5082,-3.4622,-3.2919,-3.1709,-2.984,-2.7086,-2.5956,-2.4824,-2.3567,-2.4204,-2.4486,-2.4252,-2.254,-2.0932,0.0,0.0,0.0,0.0,0.0,0.0,0.0,0.0,0.0,0.0,0.0,0.0,0.0,0.0,0.0,0.0,0.0,0.0,0.0,0.0,0.0,0.0,-2.8133,-2.9757,-3.0807,-3.2173,-3.3403,-3.4334,-3.5899,-3.6907,-3.6907,-3.6179,-3.6341,-3.794,-3.728,-3.731,-3.8393,-3.8422,-3.8562,-3.8934,-4.0996,-4.2482,-4.328,-4.5769,-4.7237,-4.7701,-4.8036,-4.8444,-4.8909,-4.8909,-4.8909,0.0,-4.8909,-4.8909,-4.8909,-4.8822,-4.8787,0.0,0.0,0.0,0.0,0.0,-4.6798,-4.6588,-4.6665,-4.676,-4.6762,-4.6243,-4.569,-4.5007,-4.4097,-4.2503,-4.1002,-4.0856,-4.0055,-3.9427,-4.0068,-4.0263,-4.0447,-4.0876,-4.0926,-4.0683,-3.9826,-3.8989,-3.8264,-3.7774,-3.7667,0.0,-3.7217,-3.5732,-3.4483,-3.4128,-3.3598,-3.3472,-3.4101,-3.4934,-3.5666,-3.6236,-3.6558,-3.615,-3.4826,-3.3535,0.0,0.0,0.0,-2.6242,-2.4802,-2.5288,0.0,0.0,0.0,0.0,0.0,0.0,0.0,0.0,-2.1564,-2.1899,0.0,0.0,0.0,0.0,0.0,0.0,0.0,0.0,0.0,0.0,0.0,0.0,0.0,0.0,0.0,0.0,-3.0262,-3.2042,-3.4345,-3.4813,-3.4899,-3.4829,-3.6192,-3.7163,-3.7163,-3.6416,-3.6541,-3.8018,-3.7385,-3.7556,-3.9008,0.0,0.0,0.0,0.0,-4.3373,-4.4265,-4.6643,-4.785,-4.785,-4.8649,-4.9039,-4.9039,-4.915,-4.9187,-4.9187,-4.9187,-4.9132,-4.9039,-4.8952,-4.8879,-4.8751,-4.8642,-4.8605,-4.8569,-4.8476,-4.8401,-4.8306,-4.8306,0.0,0.0,-4.727,-4.6764,-4.6219,-4.4624,-4.2745,-4.11,-4.0594,-3.9409,-3.8486,-3.914,-3.9689,-4.0224,-4.0627,-4.0924,-4.1036,-4.0683,-3.9722,-3.9026,-3.939,-3.9199,-3.9203,-3.99,-3.8469,-3.6902,-3.6132,-3.5818,-3.5681,-3.5814,-3.6483,-3.697,-3.7105,0.0,0.0,-3.6913,-3.5389,-3.3538,-3.1279,-2.953,-2.8037,-2.6772,-2.6713,-2.6735,-2.6826,-2.6045,-2.6048,-2.6933,-2.6334,-2.7298,-2.9554,-2.636,-2.5649,0.0,0.0,0.0,0.0,0.0,0.0,0.0,0.0,0.0,0.0,0.0,0.0,0.0,0.0,0.0,-3.0498,-3.2617,-3.4367,-3.5405,-3.6719,-3.7491,-3.7317,-3.8122,-3.8664,-3.8664,-3.7966,-3.7865,-3.8831,-3.8143,-3.8106,-3.9045,-3.9101,0.0,-4.1311,-4.2927,-4.4488,-4.5992,-4.7776,-4.8667,-4.8686,0.0,0.0,-4.9893,-5.0599,-5.0915,-5.0915,-5.0915,-5.0525,-4.9875,-4.9786,-4.9307,-4.855,-4.8532,-4.8532,-4.8494,-4.8401,-4.8306,-4.8306,-4.8306,-4.8306,-4.8249,-4.7986,-4.7414,-4.6676,-4.6285,-4.444,0.0,-4.2521,-4.1414,-4.0395,-4.0999,-4.1589,-4.2127,-4.2637,-4.2608,-4.2324,-4.1881,-4.127,-4.0703,-4.049,-4.0547,-4.0708,-4.0855,-3.947,-3.824,-3.7931,-3.717,-3.6606,-3.6591,-3.7262,-3.7783,-3.7884,-3.8162,-3.799,-3.7207,-3.623,-3.4909,-3.3164,-3.0929,-2.9598,-2.9369,-2.8748,-2.8759,-2.9452,-2.8659,-2.8682,-2.9489,-2.9989,-3.1152,-3.2823,-3.0246,-2.9844,0.0,0.0,0.0,0.0,0.0,0.0,0.0,0.0,0.0,0.0,0.0,-2.5302,-2.6987,0.0,-3.0823,-3.2393,-3.4186,-3.5677,-3.6443,-3.7939,-3.8726,-3.8115,-3.8734,-3.921,-3.9156,-3.8404,-3.8228,-3.9045,-3.8339,-3.8432,-3.9677,-4.0123,-4.1107,-4.2742,-4.4395,-4.5844,-4.7088,-4.8296,-4.8909,-4.8909,-4.9726,-5.0098,-5.0135,-5.1008,-5.1398,-5.1398,-5.1398,-5.0915,-5.0079,-4.9582,-4.9048,-4.8513,-4.8513,-4.8457,-4.8401,-4.8306,-4.8306,-4.8306,-4.8306,-4.8306,-4.8306,-4.8247,-4.7915,-4.7474,-4.7051,-4.544,-4.3707,-4.3396,-4.2152,-4.1092,-4.1686,-4.2285,-4.2832,-4.3399,-4.3629,-4.3677,-4.3584,-4.3418,-4.3132,-4.265,-4.2719,-4.2782,-4.2378,-4.0983,-3.9708,-3.9191,-3.8277,-3.7653,-3.762,-3.7866,-3.8086,-3.8204,-3.8256,-3.8125,-3.7725,-3.6599,-3.5205,-3.359,-3.2019,-3.1,-3.0659,-3.0307,-3.032,-3.0797,-3.0815,-3.1201,-3.2008,-3.3238,-3.4669,-3.6229,-3.544,-3.4825,0.0,0.0,0.0,0.0,0.0,0.0,0.0,0.0,-2.2455,-2.4525,-2.642,-2.8317,-3.0366,-3.1645,-3.2795,-3.4079,-3.5548,-3.68,-3.7482,-3.8795,-3.9354,-3.8527,-3.8983,-3.9298,-3.9237,-3.871,-3.8655,-3.9305,-3.8897,-3.9342,-4.0996,-4.1702,-4.2872,-4.4655,-4.603,-4.7125,-4.7924,-4.8574,-4.8909,-4.8909,-4.9893,-5.0358,-5.0395,-5.1398,-5.1881,-5.1844,-5.1546,-5.1008,-5.0283,-4.9247,-4.8807,-4.8753,-4.8587,-4.8549,-4.8526,-4.8361,-4.8306,-4.8306,-4.8306,-4.8306,-4.8306,-4.8306,-4.8306,-4.8196,-4.7535,-4.6342,-4.5039,-4.4378,-4.3149,-4.2161,-4.2611,-4.3178,-4.379,-4.4267,-4.4677,-4.5042,-4.5287,-4.5341,-4.5231,-4.4746,-4.4693,-4.4488,-4.3828,-4.2415,-4.1009,-4.0189,-3.9136,-3.8465,-3.8415,-3.8267,-3.8219,-3.8307,-3.8241,-3.8225,-3.8192,-3.7015,-3.5657,-3.419,-3.3386,-3.2655,-3.1919,-3.1798,-3.1858,-3.2082,-3.2742,-3.3623,-3.4761,-3.6101,-3.7588,-3.9184,-3.9827,-3.9093,-1.9614,-2.0009,-2.1529,-2.3205,-2.3552,-2.3732,0.0,0.0,-2.7232,-2.7531,-2.9515,-3.1323,-3.1593,-3.3569,-3.5168,-3.522,-3.7118,-3.8595,-3.8632,-3.9388,-3.9873,-3.9649,-3.9543,-3.9427,-3.9298,-3.9779,-4.016,-4.0234,-4.0828,-4.1887,-4.3503,-4.367,-4.4822,-4.7218,-4.746,-4.7943,-4.876,-4.8872,-4.8909,-4.8927,-5.0506,-5.1249,-5.1305,-5.2847,-5.3534,-5.346,-5.2029,-5.1342,-5.1138,-4.9559,-4.9176,-4.9565,-4.8882,-4.8955,-4.9352,-4.86,-4.8306,-4.8306,-4.8306,-4.8306,-4.8306,-4.8306,-4.8306,-4.8288,-4.8196,-4.7553,-4.6819,-4.6728,-4.6067,-4.5352,-4.5389,-4.586,-4.6364,-4.6394,-4.6327,-4.6341,-4.6477,-4.5997,-4.5567,-4.5625,-4.5132,-4.4672,-4.458,-4.319,-4.1818,-4.1079,-3.9648,-3.8609,-3.851,-3.8478,-3.8415,-3.8307,-3.8307,-3.8274,-3.8225,-3.8029,-3.754,-3.6635,-3.5838,-3.5102,-3.4415,-3.3715,-3.3744,-3.4568,-3.4679,-3.5852,-3.8157,-3.834,-3.9258,-4.0836,-4.0928,-4.0836,-2.2037,-2.2294,0.0,0.0,-2.5689,-2.6014,-2.7406,-2.9012,-3.0501,-3.1507,-3.3344,-3.4919,-3.5441,-3.6397,-3.7095,0.0,-3.8159,-3.9023,-3.9025,-3.9699,-4.0119,-3.9996,-3.9394,-3.9081,-3.932,-3.9527,-3.9844,-4.0346,-4.1144,-4.2296,-4.3912,-4.4488,-4.5658,-4.7646,-4.8147,-4.8556,-4.8909,-4.8909,-4.8909,-4.8927,-5.0599,-5.1398,-5.1454,-5.307,-5.3813,-5.372,-5.2104,-5.1398,-5.1268,-4.9544,-4.9214,-4.9713,-4.8864,-4.8991,-4.9481,-4.8618,-4.8306,-4.8306,-4.8306,-4.8306,-4.8306,-4.8306,-4.8306,-4.8306,-4.8306,-4.8086,-4.781,-4.781,-4.7572,-4.7297,-4.7277,-4.7439,-4.7657,-4.7636,-4.7579,-4.756,-4.7636,-4.7401,-4.7055,-4.6635,-4.6305,-4.5792,-4.4821,-4.3686,-4.2461,-4.111,-3.994,-3.9026,-3.8501,-3.8401,-3.8536,-3.8894,-3.9295,-3.9567,-3.9532,-3.955,-3.9007,-3.7757,-3.7377,-3.6649,-3.5484,-3.5121,-3.5144,-3.5561,-3.6492,-3.7491,-3.8533,-3.994,-4.0982,-4.164,-4.2097,-4.2317,-2.3961,0.0,0.0,-2.7025,-2.7656,-2.8178,-2.9659,-3.1487,-3.317,-3.4195,-3.5723,-3.7096,-3.7735,-3.8044,-3.8284,-3.8485,-3.9071,-3.95,-3.9561,-3.9994,-4.0271,-4.0138,-3.9218,-3.882,-3.9402,-3.9442,-3.9807,-4.0661,-4.1887,-4.3225,-4.4618,-4.5491,-4.6605,-4.7999,-4.8816,-4.9243,-4.9243,-4.9466,-4.9596,-4.9615,-5.1045,-5.1732,-5.1788,-5.3181,-5.3774,-5.37,-5.2308,-5.1658,-5.1547,-5.0065,-4.9825,-5.0321,-4.9231,-4.9265,-4.9793,-4.871,-4.8306,-4.8306,-4.8306,-4.8306,-4.8306,-4.8306,-4.8306,-4.8306,-4.8306,-4.8306,-4.8306,-4.8306,-4.8306,-4.8306,-4.8306,-4.8306,-4.8306,-4.8306,-4.8306,-4.8306,-4.8306,-4.8306,-4.8141,-4.7553,-4.726,-4.6727,-4.5461,-4.4364,-4.3159,-4.1666,-4.052,-3.9483,-3.851,-3.8554,-3.8837,-3.9367,-4.0057,-4.051,-4.051,-4.051,-4.0021,-3.8898,-3.8627,-3.8026,-3.693,-3.6658,-3.6721,-3.6984,-3.8132,-3.8933,-3.9404,-4.1172,-4.2085,-4.2322,-4.2941,-4.3214,0.0,0.0,-2.6154,-2.8688,-2.9911,-3.0718,-3.1622,-3.3771,-3.5356,-3.4563,-3.5723,-3.6903,-3.6942,-3.7638,-3.8465,-3.9237,-3.9976,-4.0454,-4.0444,-4.043,-4.0344,-4.0215,-3.9258,-3.8864,0.0,-4.0064,-4.0698,-4.1497,-4.3801,-4.5547,-4.6382,-4.7181,-4.8017,-4.8834,-4.9652,-5.006,-5.006,-5.0896,-5.1323,-5.1323,-5.2178,-5.2568,-5.2587,-5.3423,-5.3754,-5.3658,-5.2769,-5.2321,-5.2207,-5.1357,-5.1408,-5.1882,-5.028,-5.0092,-5.0563,-4.8912,-4.8306,-4.8306,-4.8306,-4.8306,-4.8306,-4.8306,-4.8306,-4.8306,-4.8306,-4.8306,-4.8306,-4.8306,-4.8306,-4.8306,-4.8306,-4.8306,-4.8306,-4.8306,-4.8306,-4.8306,-4.8306,-4.8306,-4.8306,-4.8269,-4.7645,-4.7075,-4.6943,-4.5515,-4.4034,-4.3159,-4.1579,-3.9982,-3.8583,-3.9028,-3.9488,-3.9472,-4.0092,-4.051,-4.051,-4.051,-4.0492,-4.0437,-3.9767,-3.9367,-3.9381,-3.8652,-3.8631,-3.948,-3.9534,-4.0318,-4.1883,-4.1956,-4.2394,-4.316,-4.3196,-4.3214,0.0,0.0,-2.8652,-3.0624,-3.1741,-3.2557,-3.3431,-3.5562,-3.7116,-3.6245,-3.698,-3.7754,-3.7754,-3.8001,-3.8472,-3.9277,-4.0058,-4.0558,-4.0562,-4.1011,-4.1063,-4.0291,-3.9773,0.0,0.0,0.0,0.0,-4.1623,-4.3506,-4.5152,-4.6499,-4.7289,-4.8073,-4.8872,-4.9169,-4.9299,-4.9299,-5.0116,-5.0543,-5.0562,-5.1936,-5.2884,-5.3404,-5.3624,-5.3734,-5.3658,-5.2728,-5.2338,-5.2243,-5.1353,-5.1403,-5.1971,-5.0882,-5.0916,-5.1463,-5.0362,-4.9958,-4.9811,-4.8691,-4.8306,-4.8306,-4.8306,-4.8306,-4.8306,-4.8306,-4.8306,-4.8306,-4.8306,-4.8306,-4.8306,-4.8306,-4.8306,-4.8306,-4.8306,-4.8306,-4.8306,-4.8306,-4.8306,-4.8306,-4.8306,-4.8086,-4.7661,-4.6994,-4.6369,-4.5108,-4.2576,-4.0782,-3.9603,-3.9127,-3.9728,-4.0382,-4.0908,-4.1633,-4.2085,-4.2085,-4.2085,-4.1868,-4.1343,-4.1071,-4.0691,-4.0183,-3.9893,-3.9893,-4.0182,-4.0726,-4.1252,-4.1778,-4.2341,-4.274,-4.3013,-4.3013,-4.3013,-2.7988,-2.9393,-3.0769,-3.215,-3.3106,-3.3845,-3.4384,-3.6203,-3.7448,-3.6248,-3.645,-3.6942,-3.7251,-3.7035,-3.7378,-3.911,-3.9822,-4.0241,-4.0515,-4.1274,-4.1519,-4.0787,-4.0517,0.0,0.0,0.0,0.0,-4.136,-4.3184,-4.4808,-4.6134,-4.7434,-4.837,-4.889,-4.9187,-4.9336,-4.9336,-5.045,-5.1138,-5.1454,-5.2512,-5.3273,-5.3754,-5.3734,-5.3656,-5.3521,-5.2905,-5.2644,-5.2567,-5.1971,-5.2187,-5.2831,-5.1977,-5.216,-5.2747,-5.1958,-5.1665,-5.1426,-4.9774,-4.9187,-4.9187,-4.9187,-4.9003,-4.8765,-4.8765,-4.8545,-4.8306,-4.8306,-4.8306,-4.8306,-4.8306,-4.8306,-4.8306,-4.8306,-4.8306,-4.8306,-4.8306,-4.8306,-4.8306,-4.8306,-4.8306,-4.8064,-4.7357,-4.6928,-4.5649,-4.2574,-4.1289,-4.0347,-3.9496,-4.0293,-4.1252,-4.2049,-4.2592,-4.3009,-4.3299,-4.3063,-4.2683,-4.2158,-4.214,-4.1904,-4.1379,-4.1361,-4.1361,-4.1361,-4.1868,-4.214,-4.214,-4.2647,-4.3045,-4.3317,-4.3317,-4.3462,-3.0332,-3.1641,-3.25,-3.3333,-3.4105,-3.4656,-3.4588,-3.5801,-3.6455,-3.4749,-3.4332,-3.4524,0.0,0.0,-3.5319,-3.8659,-3.9254,-3.9572,-4.0331,-4.1258,-4.1805,0.0,0.0,0.0,0.0,0.0,0.0,-4.0848,0.0,-4.4672,-4.5536,-4.7675,-4.8909,-4.8909,-4.9652,-5.0042,-5.0042,-5.1658,-5.2902,-5.3738,-5.3738,-5.3717,-5.3714,-5.3695,-5.3558,-5.33,-5.3318,-5.3254,-5.3206,-5.3206,-5.3683,-5.4326,-5.3573,-5.3757,-5.4363,-5.361,-5.3335,-5.3115,-5.1591,-5.0986,-5.093,-5.093,-5.038,-4.9701,-4.9646,-4.9077,-4.8416,-4.8379,-4.8398,-4.8434,-4.8434,-4.8434,-4.8416,-4.8379,-4.8379,-4.8361,-4.8324,-4.8306,-4.8306,-4.8306,-4.8306,-4.8229,-4.8032,-4.7175,-4.5725,-4.3425,-4.3045,-4.2158,-3.9822,-4.08,-4.2031,-4.2864,-4.2955,-4.3262,-4.4023,-4.3389,-4.2936,-4.2882,-4.2882,-4.2882,-4.2882,-4.2882,-4.2882,-4.2882,-4.2882,-4.2882,-4.2882,-4.2936,-4.3335,-4.4095,-4.4132,-4.4566,-3.2422,-3.3867,-3.5059,-3.5273,-3.5457,-3.5561,-3.5552,-3.5795,-3.5747,-3.4691,-3.3393,-3.2725,0.0,0.0,0.0,-3.6215,-3.8122,0.0,-3.9565,-4.1431,0.0,0.0,0.0,-4.3079,-4.2487,-4.157,0.0,0.0,-4.3624,-4.5106,-4.6413,-4.8021,-4.8909,-4.8909,-4.9113,-4.9206,-4.9206,-5.0228,-5.1472,-5.2921,-5.2921,-5.3161,-5.3714,-5.3598,-5.3459,-5.3318,-5.3272,-5.3206,-5.3206,-5.3206,-5.3683,-5.4381,-5.4179,-5.4583,-5.5262,-5.506,-5.4987,-5.4932,-5.4509,-5.3592,-5.2601,-5.2601,-5.2032,-5.1261,-5.0674,-5.0343,-5.005,-4.9426,-4.9701,-5.016,-5.016,-5.016,-5.0013,-4.9407,-4.926,-4.9077,-4.8434,-4.8306,-4.8306,-4.8306,-4.819,-4.8072,-4.7992,-4.7175,-4.6287,-4.5671,-4.5073,-4.3824,-4.1433,-4.147,-4.2248,-4.3643,-4.3788,-4.3878,-4.4077,-4.3896,-4.3534,-4.2936,-4.2882,-4.2882,-4.2882,-4.2882,-4.2882,-4.2882,-4.2882,-4.2882,-4.2882,-4.3498,-4.3896,-4.4114,-4.4711,-4.5091,-3.373,-3.4961,-3.5996,-3.5996,-3.5974,-3.5847,-3.5467,-3.5003,-3.4307,-3.3078,-3.1088,0.0,0.0,0.0,0.0,0.0,0.0,0.0,-3.9238,-4.1162,-4.2302,0.0,-4.2737,0.0,-4.2891,-4.2374,-4.2374,0.0,-4.4435,-4.5687,-4.6772,-4.8841,-5.0005,-5.0005,-5.0005,-5.0005,-5.0005,-5.0079,-5.0952,-5.2605,-5.2605,-5.2957,-5.3598,-5.3539,-5.3418,-5.3254,0.0,-5.3206,-5.3206,-5.3206,-5.3683,-5.4399,-5.4399,-5.4876,-5.5592,-5.5592,-5.5592,-5.5647,-5.5996,-5.5537,-5.473,-5.4381,-5.3702,-5.2968,-5.2527,-5.1885,-5.1224,-5.0765,-5.071,-5.0802,-5.0802,-5.0802,-5.06,-4.9774,-4.9591,-4.9352,-4.8489,-4.8306,-4.8306,-4.8247,-4.8111,-4.7992,-4.7988,-4.7443,-4.692,-4.6558,-4.6124,-4.5218,-4.3516,-4.3281,-4.3769,-4.5019,-4.4838,-4.4765,-4.5128,-4.482,-4.4421,-4.3969,-4.3951,-4.3951,-4.3951,-4.3951,-4.3951,-4.3951,-4.3951,-4.3951,-4.3951,-4.4403,-4.4802,-4.5164,-4.5617,-4.6015,-3.4668,-3.543,-3.5996,-3.5996,-3.5996,-3.5742,-3.4754,-3.3711,-3.2467,-3.0703,0.0,-2.7127,-2.9631,0.0,-3.0383,-3.4434,0.0,-3.8099,-3.8869,-4.0489,-4.1607,-4.1539,-4.2349,-4.2964,-4.3079,-4.3175,-4.3484,-4.4031,-4.5475,-4.6542,-4.702,-4.9825,-5.1398,-5.1398,-5.1286,-5.1231,-5.1231,-5.0376,-5.0785,-5.2438,-5.2438,-5.2807,-5.3499,-5.3499,-5.3396,-5.3206,-5.3206,0.0,-5.3206,-5.3206,-5.3683,-5.4399,-5.4399,-5.4876,-5.5592,-5.5592,-5.5666,-5.5849,-5.6565,-5.6877,-5.684,-5.6143,-5.5372,-5.4693,-5.4583,-5.3573,-5.2454,-5.2344,-5.1885,-5.1408,-5.1316,-5.1279,-5.1041,-5.0123,-4.9903,-4.9664,-4.882,-4.8545,-4.8451,-4.8391,-4.8163,-4.797,-4.7902,-4.7801,-4.7464,-4.6757,-4.6667,-4.6413,-4.5707,-4.5436,-4.5617,-4.6413,-4.5888,-4.5743,-4.645,-4.5852,-4.5417,-4.5309,-4.5291,-4.5291,-4.5291,-4.5291,-4.5291,-4.5291,-4.5291,-4.5291,-4.5291,-4.5399,-4.5816,-4.6504,-4.6613,-4.7029,-3.5723,-3.5879,-3.5996,-3.5996,-3.5996,-3.5586,-3.3994,-3.2335,0.0,0.0,0.0,-2.5201,-2.7031,-2.7825,0.0,-3.1997,0.0,0.0,0.0,0.0,-4.0719,0.0,0.0,0.0,0.0,0.0,0.0,0.0,0.0,-4.8022,-4.7913,-5.0104,-5.1398,-5.1398,-5.0711,-5.0339,-5.0339,-4.9522,-4.9949,-5.1602,-5.1602,-5.227,-5.3499,-5.3499,-5.3396,-5.3206,-5.3206,0.0,-5.3206,-5.3206,-5.3683,-5.4399,-5.4399,-5.4876,-5.5592,-5.5592,-5.6014,-5.662,-5.6767,-5.7244,-5.7776,-5.7629,-5.7042,-5.6271,-5.5574,-5.5188,-5.4821,-5.4161,-5.4363,-5.4601,-5.394,-5.3775,-5.3408,-5.1922,-5.1573,-5.1353,-5.0545,-4.975,-4.9193,-4.9193,-4.8502,-4.7902,-4.7902,-4.7801,-4.7663,-4.7518,-4.75,-4.7446,-4.7301,-4.6124,-4.5617,-4.6413,-4.6377,-4.6359,-4.6504,-4.6377,-4.6015,-4.5345,-4.5291,-4.5291,-4.5291,-4.5291,-4.5291,-4.5291,-4.5291,-4.5291,-4.5291,-4.5979,-4.6359,-4.6522,-4.7192,-4.7572,-3.5879,-3.5996,-3.5898,-3.5449,-3.5312,-3.4746,-3.2549,0.0,0.0,0.0,0.0,-2.3403,-2.5085,0.0,0.0,0.0,0.0,0.0,0.0,0.0,0.0,0.0,0.0,0.0,0.0,0.0,0.0,0.0,0.0,-4.857,-4.8765,-5.1241,-5.2661,-5.2661,-5.1844,-5.1398,-5.1398,-5.0599,-5.0822,-5.2029,-5.2029,-5.2529,-5.3499,-5.3499,-5.3396,-5.3206,-5.3206,0.0,-5.3206,-5.3206,-5.3445,-5.3794,-5.3794,-5.4014,-5.4399,-5.4821,-5.5225,-5.5684,-5.651,-5.706,-5.7446,-5.785,-5.774,-5.7354,-5.6969,-5.6547,-5.6143,-5.5757,-5.5629,-5.55,-5.5115,-5.4711,-5.4106,-5.2913,-5.1977,-5.1261,-5.0776,-5.0021,-4.9373,-4.925,-4.853,-4.7861,-4.7819,-4.7759,-4.7717,-4.7717,-4.7717,-4.7717,-4.7717,-4.7029,-4.6703,-4.7083,-4.712,-4.712,-4.712,-4.712,-4.6975,-4.6576,-4.6558,-4.6558,-4.6558,-4.6558,-4.6558,-4.6558,-4.6558,-4.6558,-4.6558,-4.6939,-4.712,-4.7138,-4.7536,-4.7717,-3.5547,-3.5859,-3.5781,-3.4922,-3.4551,-3.3691,-3.0909,-2.8902,0.0,0.0,0.0,-2.1881,-2.3383,0.0,0.0,0.0,0.0,0.0,0.0,0.0,0.0,0.0,0.0,0.0,0.0,0.0,0.0,0.0,0.0,0.0,-5.0038,-5.2454,-5.3813,-5.3813,-5.3032,-5.2512,-5.2345,-5.1528,-5.1454,-5.2085,-5.2067,-5.2381,-5.2982,-5.3148,-5.312,-5.2968,-5.3133,0.0,0.0,-5.339,-5.3463,-5.3482,-5.3665,-5.372,-5.3794,-5.4418,-5.4766,-5.5097,-5.6363,-5.6914,-5.7171,-5.7795,-5.7997,-5.7997,-5.7997,-5.7556,-5.706,-5.706,-5.6602,-5.6069,-5.5886,-5.539,-5.4675,-5.3702,-5.232,-5.1216,-5.1156,-5.0451,-4.9802,-4.9634,-4.8956,-4.8327,-4.8224,-4.8079,-4.7971,-4.7971,-4.7826,-4.7717,-4.7717,-4.7717,-4.7717,-4.7717,-4.7717,-4.7717,-4.7717,-4.7717,-4.7717,-4.7717,-4.7717,-4.7717,-4.7717,-4.7717,-4.7717,-4.7717,-4.7717,-4.7717,-4.7717,-4.7717,-4.7717,-4.7717,-4.7717,-4.7717,-3.4805,-3.5391,-3.5781,-3.4922,-3.4101,-3.2636,-2.929,0.0,0.0,-2.2586,-2.1247,-2.0811,-2.1765,0.0,0.0,0.0,0.0,0.0,0.0,0.0,0.0,0.0,0.0,0.0,0.0,0.0,0.0,0.0,0.0,0.0,-5.2214,-5.3255,-5.3813,-5.3813,-5.3032,-5.2252,-5.1528,-5.0655,-5.0302,-5.0413,-5.0358,-5.0676,-5.1357,-5.2077,-5.229,-5.2142,-5.2894,0.0,0.0,-5.3995,-5.4289,-5.4363,-5.5078,-5.5372,-5.5372,-5.5445,-5.5941,-5.6602,-5.6767,-5.7281,-5.7905,-5.7978,-5.7997,-5.7997,-5.7997,-5.7941,-5.7886,-5.7886,-5.7831,-5.7611,-5.6877,-5.6638,-5.6198,-5.4656,-5.3524,-5.2779,-5.2779,-5.1985,-5.1282,-5.1282,-5.0522,-4.9916,-4.9872,-4.9275,-4.8804,-4.8804,-4.8188,-4.7717,-4.7717,-4.7717,-4.7717,-4.7717,-4.7717,-4.7717,-4.7717,-4.7717,-4.7717,-4.7717,-4.7717,-4.7717,-4.7717,-4.7717,-4.7717,-4.7717,-4.7717,-4.7717,-4.7717,-4.7717,-4.7717,-4.7717,-4.7717,-4.7717,-3.3633,-3.4551,-3.5019,-3.4137,-3.327,-3.1719,-2.8291,0.0,-2.4219,-2.2124,-2.1008,-2.0515,-2.085,-2.1604,0.0,0.0,0.0,0.0,0.0,0.0,0.0,0.0,0.0,0.0,0.0,0.0,0.0,0.0,0.0,0.0,-5.1062,-5.2847,-5.3813,-5.3813,-5.3497,-5.294,-5.2122,-5.1788,-5.1379,-5.0915,-5.0896,-5.0954,-5.1117,-5.1431,-5.1719,-5.1977,-5.183,0.0,0.0,-5.2821,-5.3243,-5.3775,-5.4564,-5.517,-5.5647,-5.6143,-5.6528,-5.6877,-5.7354,-5.7721,-5.7997,-5.7997,-5.7997,-5.7997,-5.7997,-5.7997,-5.7997,-5.7997,-5.7997,-5.7923,-5.7611,-5.6804,-5.5666,-5.3964,-5.328,-5.2955,-5.2787,-5.2116,-5.1456,-5.1393,-5.0695,-5.009,-5.009,-4.9438,-4.8912,-4.8912,-4.8224,-4.7717,-4.7717,-4.7717,-4.7717,-4.7717,-4.7717,-4.7717,-4.7717,-4.7717,-4.7717,-4.7717,-4.7717,-4.7717,-4.7717,-4.7717,-4.7717,-4.7717,-4.7717,-4.7717,-4.7717,-4.7717,-4.7717,-4.7717,-4.7717,-4.7717,-3.2207,-3.3476,-3.4101,-3.3222,-3.2366,-3.0818,0.0,0.0,-2.3428,-2.1676,-2.0822,-2.0399,-2.0399,-2.1101,-2.2152,0.0,0.0,0.0,0.0,0.0,0.0,0.0,0.0,0.0,0.0,0.0,0.0,0.0,0.0,0.0,0.0,-5.1899,-5.3311,-5.3775,-5.3813,-5.3311,-5.2271,-5.2252,-5.1714,-5.0655,-5.0637,-5.0528,-5.036,-5.058,-5.1035,-5.161,-5.1041,0.0,0.0,-5.2252,-5.2692,-5.3316,-5.4344,-5.5244,-5.6014,-5.6602,-5.6804,-5.6932,-5.7721,-5.7831,-5.7685,-5.7923,-5.7997,-5.7997,-5.7997,-5.7997,-5.7997,-5.7997,-5.7831,-5.7648,-5.7648,-5.6392,-5.4862,-5.3664,-5.312,-5.285,-5.2635,-5.2164,-5.1756,-5.1692,-5.1194,-5.0796,-5.0796,-4.9945,-4.9257,-4.9257,-4.8387,-4.7717,-4.7717,-4.7717,-4.7717,-4.7717,-4.7717,-4.7717,-4.7717,-4.7717,-4.7717,-4.7717,-4.7717,-4.7717,-4.7717,-4.7717,-4.7717,-4.7717,-4.7717,-4.7717,-4.7717,-4.7717,-4.7717,-4.7717,-4.7657,-4.7698,-3.0449,-3.2148,-3.3201,-3.2331,-3.1469,-2.9892,0.0,-2.4269,-2.252,-2.0776,-2.0404,-2.0399,-2.0399,-2.1101,-2.1978,0.0,0.0,0.0,0.0,0.0,0.0,0.0,0.0,0.0,0.0,0.0,0.0,0.0,0.0,0.0,0.0,-5.0506,-5.2159,-5.3757,-5.3813,-5.3032,-5.1435,-5.1416,-5.058,-4.8927,-4.8841,-4.8769,-4.8642,-4.9361,-5.0131,0.0,0.0,0.0,0.0,-5.2858,-5.3206,-5.3371,-5.495,-5.6069,-5.6804,-5.6804,-5.6804,-5.6932,-5.7721,-5.7483,-5.695,-5.774,-5.7997,-5.7997,-5.7997,-5.7997,-5.7997,-5.7997,-5.7428,-5.6822,-5.6822,-5.5522,-5.4224,-5.4206,-5.3389,-5.259,-5.259,-5.2536,-5.248,-5.248,-5.248,-5.248,-5.248,-5.114,-5.0071,-5.0071,-4.8731,-4.7717,-4.7717,-4.7717,-4.7717,-4.7717,-4.7717,-4.7717,-4.7717,-4.7717,-4.7717,-4.7717,-4.7717,-4.7717,-4.7717,-4.7717,-4.7717,-4.7717,-4.7717,-4.7717,-4.7717,-4.7717,-4.7717,-4.7717,-4.7554,-4.7707,-2.7925,-2.9498,-3.0732,-3.04,-2.9211,-2.7535,-2.5231,-2.3362,-2.1784,-2.0629,-2.0398,-2.0399,-2.0399,-2.0637,-2.1082,-2.194,0.0,0.0,0.0,0.0,0.0,0.0,0.0,0.0,0.0,0.0,0.0,0.0,0.0,0.0,0.0,-4.8816,-5.0952,-5.372,-5.3813,-5.3032,-5.1416,-5.1398,-5.0526,-4.8822,-4.8822,-4.8715,-4.8532,-4.8752,-4.9559,0.0,0.0,0.0,0.0,-5.0802,-5.1022,-5.1665,-5.2729,-5.3959,-5.517,-5.517,-5.55,-5.6088,-5.6895,-5.7024,-5.6932,-5.774,-5.7997,-5.7997,-5.7997,-5.7997,-5.7997,-5.7997,-5.7428,-5.663,-5.6016,-5.5056,-5.4034,-5.3253,-5.2835,-5.2608,-5.2554,-5.2526,-5.2498,-5.2498,-5.2498,-5.2498,-5.2498,-5.1158,-5.009,-5.009,-4.8731,-4.7717,-4.7717,-4.7717,-4.7717,-4.7717,-4.7717,-4.7717,-4.7717,-4.7717,-4.7717,-4.7717,-4.7717,-4.7717,-4.7717,-4.7717,-4.7717,-4.7717,-4.7717,-4.7717,-4.7717,-4.7717,-4.7657,-4.7554,-4.7425,-4.7796,0.0,-2.7059,-2.8101,-2.8041,-2.7216,-2.5954,-2.4213,-2.2724,-2.1442,-2.0578,-2.0411,-2.0399,-2.0399,-2.0676,-2.1062,-2.1611,0.0,0.0,0.0,0.0,0.0,0.0,0.0,0.0,0.0,0.0,0.0,0.0,0.0,0.0,0.0,-4.746,-4.9503,-5.2791,-5.3478,-5.3032,-5.1416,-5.1343,-5.0471,-4.8787,-4.8715,-4.8606,-4.8513,-4.8457,-4.9116,0.0,0.0,0.0,0.0,-4.9756,-4.9848,-5.0417,-5.1224,-5.2344,-5.3482,-5.3482,-5.3812,-5.4399,-5.5519,-5.5904,-5.6088,-5.7189,-5.7758,-5.7997,-5.795,-5.795,-5.7997,-5.7997,-5.7363,-5.6603,-5.5981,-5.4939,-5.3881,-5.3217,-5.2781,-5.2536,-5.248,-5.2498,-5.2498,-5.2498,-5.2498,-5.2498,-5.2498,-5.1158,-5.009,-5.009,-4.8731,-4.7717,-4.7717,-4.7717,-4.7826,-4.8134,-4.7898,-4.7953,-4.855,-4.8061,-4.7717,-4.7717,-4.7717,-4.7717,-4.7717,-4.7717,-4.7717,-4.7717,-4.7657,-4.7615,-4.7615,-4.7529,-4.7381,-4.7143,-4.708,-4.7613,0.0,-2.4754,-2.5498,-2.5425,-2.5374,-2.4898,-2.3275,-2.2236,0.0,-2.0579,-2.0399,-2.0399,-2.0399,-2.1062,-2.163,-2.1688,0.0,0.0,0.0,0.0,0.0,0.0,0.0,0.0,0.0,0.0,0.0,0.0,0.0,0.0,0.0,-4.6438,-4.7924,-5.1045,-5.2754,-5.2921,-5.1416,-5.125,-5.038,-4.8787,-4.8569,-4.8513,-4.8457,-4.8363,-4.8783,0.0,0.0,0.0,0.0,-4.9517,-4.9499,-4.9572,-5.0325,-5.1114,-5.183,-5.183,-5.1867,-5.2142,-5.3757,-5.4344,-5.4675,-5.629,-5.7299,-5.7859,-5.7692,-5.7812,-5.7978,-5.7923,-5.7189,-5.6392,-5.6392,-5.5048,-5.3662,-5.3717,-5.3098,-5.2498,-5.2498,-5.2452,-5.2452,-5.2434,-5.2452,-5.2452,-5.2452,-5.1158,-5.009,-5.009,-4.8731,-4.7717,-4.7717,-4.7717,-4.8025,-4.8822,-4.8188,-4.8351,-4.9945,-4.8677,-4.7826,-4.788,-4.7826,-4.7808,-4.7808,-4.7735,-4.7717,-4.7717,-4.7554,-4.7468,-4.7468,-4.7249,-4.6934,-4.6542,-4.6525,-4.7061,-1.9904,0.0,-2.3684,-2.3626,-2.3109,-2.2513,0.0,-2.1333,-2.0656,0.0,0.0,0.0,0.0,0.0,0.0,0.0,0.0,0.0,0.0,0.0,0.0,0.0,0.0,0.0,0.0,0.0,0.0,0.0,0.0,0.0,0.0,-4.5807,-4.7144,-4.8537,-5.0694,-5.164,-5.125,-5.1232,-5.0306,-4.8587,-4.8513,-4.8457,-4.8363,-4.8306,-4.8783,0.0,0.0,0.0,-4.9536,-4.8875,-4.8618,-4.8618,-4.882,-4.9407,-5.0141,-5.0141,-5.0545,-5.1316,-5.2931,-5.3885,-5.4675,-5.629,-5.6868,-5.6795,-5.6145,-5.6868,-5.7711,-5.6995,-5.5743,-5.462,-5.4565,-5.329,-5.2146,-5.2653,-5.2578,-5.2311,-5.2198,-5.2102,-5.2005,-5.1907,-5.1956,-5.2054,-5.2198,-5.0958,-5.0001,-5.009,-4.8731,-4.7717,-4.7717,-4.7717,-4.8025,-4.8822,-4.8085,-4.8161,-4.9658,-4.9053,-4.8894,-4.9492,-4.8967,-4.8641,-4.8641,-4.8043,-4.7717,-4.7717,-4.7468,-4.7276,-4.7116,-4.6695,-4.6376,-4.6084,-4.5734,-4.6237,-1.8271,-1.9934,-2.1381,-2.1711,-2.1141,-2.0512,-2.0501,0.0,0.0,0.0,0.0,0.0,0.0,0.0,0.0,0.0,0.0,0.0,0.0,0.0,0.0,0.0,0.0,0.0,0.0,0.0,0.0,0.0,0.0,0.0,0.0,-4.4859,-4.5867,-4.7021,-4.8692,-5.0083,-5.1195,-5.1119,-5.0396,-4.9047,-4.8622,-4.8363,-4.8306,-4.8306,-4.8563,0.0,0.0,0.0,-4.8967,-4.8489,-4.8306,-4.8306,-4.8306,-4.86,-4.9003,-4.9003,-4.9279,-4.9903,-5.1536,-5.3115,-5.4546,-5.5346,-5.5532,-5.5395,-5.4857,-5.5541,-5.6398,-5.5978,-5.4911,-5.4027,-5.4317,-5.318,-5.2245,-5.3331,-5.3153,-5.278,-5.2906,-5.2508,-5.2054,-5.1829,-5.1649,-5.1554,-5.1804,-5.0964,-5.0361,-5.0588,-4.9275,-4.8261,-4.8261,-4.7935,-4.8152,-4.9329,-4.8215,-4.8254,-5.0367,-4.9618,-4.9243,-4.9784,-4.9109,-4.872,-4.872,-4.7944,-4.7468,-4.7399,-4.7205,-4.687,-4.6447,-4.6151,-4.5925,-4.5837,-4.5623,-4.6186,-1.7641,-1.8538,-1.9372,-2.0189,-1.9848,-1.9302,0.0,0.0,0.0,0.0,0.0,0.0,0.0,0.0,0.0,0.0,0.0,0.0,0.0,0.0,0.0,0.0,0.0,0.0,0.0,0.0,0.0,0.0,0.0,0.0,0.0,-4.4005,-4.466,-4.6064,-4.6953,-4.8473,-5.0749,-5.0855,-5.0501,-4.9671,-4.8877,-4.8434,-4.8306,-4.8306,-4.8306,-4.8306,0.0,0.0,-4.8306,-4.8306,-4.8306,-4.8306,-4.8306,-4.8306,-4.8306,-4.8306,-4.8306,-4.8563,-5.0362,-5.2491,-5.4338,-5.4085,-5.4005,-5.3898,-5.3645,-5.4062,-5.468,-5.4901,-5.4436,-5.4026,-5.4633,-5.3541,-5.2669,-5.4279,-5.3873,-5.325,-5.3673,-5.2981,-5.2163,-5.1833,-5.1312,-5.1052,-5.1398,-5.1012,-5.0773,-5.1194,-4.9991,-4.9007,-4.9007,-4.841,-4.85,-4.9838,-4.847,-4.8501,-5.104,-4.993,-4.9238,-4.9559,-4.9066,-4.8649,-4.8461,-4.7797,-4.7268,-4.6952,-4.6795,-4.6381,-4.5735,-4.5529,-4.55,-4.5733,-4.5676,-4.6296,-1.7471,-1.8487,-1.9323,-2.0172,-2.0301,-2.0205,0.0,0.0,0.0,0.0,0.0,0.0,0.0,0.0,0.0,0.0,0.0,0.0,0.0,0.0,0.0,0.0,0.0,0.0,0.0,0.0,0.0,0.0,0.0,0.0,0.0,-4.4005,-4.44,-4.5268,-4.6018,-4.7222,-4.89,-5.0207,-5.0462,-4.9612,-4.9483,-4.9003,-4.8306,-4.8306,-4.8306,-4.8306,0.0,-4.8306,-4.8306,-4.8306,-4.8306,-4.8306,-4.8306,-4.8306,-4.8306,-4.8306,-4.8306,-4.8636,-5.1004,-5.2865,-5.4096,-5.3401,-5.3069,-5.2781,-5.2063,-5.2318,-5.3052,-5.3722,-5.3831,-5.3777,-5.3885,-5.2633,-5.1697,-5.3122,-5.3092,-5.2803,-5.313,-5.2411,-5.1568,-5.1205,-5.0788,-5.0602,-5.0857,-5.0608,-5.0513,-5.0897,-5.0153,-4.9577,-4.9577,-4.9377,-4.9256,-4.9395,-4.8808,-4.8743,-4.9679,-4.9432,-4.941,-5.0,-4.9941,-4.9399,-4.824,-4.8061,-4.7547,-4.6702,-4.6284,-4.5887,-4.5494,-4.478,-4.4794,-4.5261,-4.499,-4.5668,-1.7375,-1.8123,-1.8814,-2.0605,-2.1055,-2.1041,0.0,0.0,0.0,0.0,0.0,0.0,0.0,0.0,0.0,0.0,0.0,0.0,0.0,0.0,0.0,0.0,0.0,0.0,0.0,0.0,0.0,0.0,0.0,0.0,0.0,-4.4005,-4.4128,-4.4387,-4.5134,-4.6061,-4.7077,-4.8695,-4.952,-4.9591,-4.9591,-4.9352,-4.8967,-4.9444,-4.9664,-4.9664,0.0,-4.9664,-4.9627,-4.9169,-4.9003,-4.8948,-4.8489,-4.8306,-4.8306,-4.8306,-4.8875,-4.9811,-5.0849,-5.2254,-5.3419,-5.2503,-5.2134,-5.1972,-5.152,-5.1864,-5.2611,-5.3755,-5.3905,-5.3802,-5.4237,-5.3315,-5.2569,-5.3913,-5.3851,-5.3514,-5.3746,-5.3004,-5.2121,-5.1777,-5.1302,-5.0969,-5.0927,-5.0917,-5.1035,-5.1254,-5.0521,-5.002,-5.0068,-4.9501,-4.9021,-4.8856,-4.8364,-4.8309,-4.8872,-4.8678,-4.8907,-4.9646,-4.9855,-4.9429,-4.8381,-4.8328,-4.8003,-4.728,-4.6604,-4.6182,-4.5988,-4.5159,-4.5226,-4.6084,-4.5943,-4.646,-1.7345,-1.7943,-1.8673,-2.101,0.0,0.0,0.0,0.0,0.0,0.0,0.0,0.0,0.0,0.0,0.0,0.0,0.0,0.0,0.0,0.0,0.0,0.0,0.0,0.0,0.0,0.0,0.0,0.0,0.0,0.0,-4.4302,-4.4252,-4.4207,-4.4081,-4.4454,-4.4994,-4.5608,-4.704,-4.8251,-4.9297,-4.9481,-4.9554,-4.9536,-5.0215,-5.0618,-5.0802,-5.0802,-5.0802,-5.0747,-5.0123,-4.9756,-4.9517,-4.8857,-4.8489,-4.8306,-4.8306,-4.9313,-5.0743,-5.0643,-5.1603,-5.2766,-5.1799,-5.15,-5.1437,-5.1348,-5.1772,-5.254,-5.3904,-5.4115,-5.4071,-5.4801,-5.4133,-5.3542,-5.4634,-5.4455,-5.4084,-5.4253,-5.3558,-5.2742,-5.2382,-5.1854,-5.1412,-5.1167,-5.1499,-5.1682,-5.1686,-5.1083,-5.0588,-5.0528,-4.9725,-4.8976,-4.8487,-4.8196,-4.8169,-4.848,-4.8252,-4.8447,-4.918,-4.9493,-4.9288,-4.8486,-4.8451,-4.8203,-4.7575,-4.6708,-4.6317,-4.6455,-4.5554,-4.5713,-4.6891,-4.6891,-4.7305,-1.733,-1.8401,-1.9426,-2.1164,0.0,0.0,0.0,0.0,0.0,0.0,0.0,0.0,0.0,0.0,0.0,0.0,0.0,0.0,0.0,0.0,0.0,0.0,0.0,0.0,0.0,0.0,0.0,0.0,0.0,0.0,-4.5194,-4.5111,-4.4994,-4.4912,-4.411,-4.4044,-4.4782,-4.5645,-4.6856,-4.8398,-4.9205,-4.9591,-4.9572,-4.9646,-5.0086,-5.0802,-5.0802,-5.0802,-5.0802,-5.0747,-5.027,-4.9572,-4.9517,-4.9003,-4.8306,-4.8306,-4.9273,-5.0584,-5.0584,-5.1499,-5.2526,-5.1736,-5.1411,-5.1285,-5.1285,-5.1708,-5.2359,-5.3562,-5.4278,-5.4721,-5.5098,-5.4349,-5.3616,-5.4147,-5.3893,-5.3652,-5.3939,-5.327,-5.2547,-5.2365,-5.1854,-5.152,-5.164,-5.201,-5.2212,-5.1906,-5.1839,-5.1612,-5.0874,-5.048,-4.9833,-4.8638,-4.8839,-4.8921,-4.8509,-4.8463,-4.8572,-4.8742,-4.9154,-4.911,-4.8374,-4.8282,-4.7899,-4.6986,-4.5966,-4.5715,-4.629,-4.5236,-4.5512,-4.6891,-4.6891,-4.7305,-1.733,-1.8034,-1.8937,-2.1668,0.0,0.0,0.0,0.0,0.0,0.0,0.0,0.0,0.0,0.0,0.0,0.0,0.0,0.0,0.0,0.0,0.0,0.0,0.0,0.0,0.0,0.0,0.0,0.0,0.0,0.0,0.0,-4.436,-4.4295,-4.4128,-4.3781,-4.3695,-4.3956,-4.4745,-4.5718,-4.6838,-4.8691,-4.9591,-4.9609,-5.0105,-5.0508,-5.0802,-5.0802,-5.0802,-5.0802,-5.0802,-5.0618,-5.0288,-4.9793,-4.9058,-4.8306,-4.8247,-4.9233,-5.0584,-5.0399,-5.1326,-5.2454,-5.2043,-5.1795,-5.1652,-5.1587,-5.1522,-5.1716,-5.252,-5.2687,-5.3138,-5.4882,-5.4869,-5.436,-5.4322,-5.4057,-5.3815,-5.3683,-5.3397,-5.3128,-5.3061,-5.289,-5.2617,-5.2174,-5.2345,-5.2403,-5.206,-5.1973,-5.1827,-5.1633,-5.0831,-4.9736,-4.8167,-4.7096,-4.6776,-4.7478,-4.7498,-4.7744,-4.8211,-4.8844,-4.9033,-4.8761,-4.8744,-4.8487,-4.7894,-4.7049,-4.6865,-4.7364,-4.649,-4.6576,-4.7587,-4.7587,-4.7736,-1.7344,-1.7791,-1.8538,0.0,0.0,0.0,0.0,0.0,0.0,0.0,0.0,0.0,0.0,0.0,0.0,0.0,0.0,0.0,0.0,0.0,0.0,0.0,0.0,0.0,0.0,0.0,0.0,0.0,0.0,0.0,0.0,-4.4239,-4.4173,-4.4021,-4.3729,-4.3566,-4.3497,-4.4305,-4.4984,-4.5535,-4.7498,-4.882,-4.9609,-5.016,-5.0563,-5.0802,-5.0802,-5.0802,-5.0802,-5.0802,-5.0655,-5.0343,-4.9499,-4.882,-4.8247,-4.8226,-4.9025,-5.0094,-4.9907,-5.0786,-5.1961,-5.164,-5.1625,-5.1622,-5.1434,-5.114,-5.1034,-5.1567,-5.1454,-5.1731,-5.3879,-5.4183,-5.3956,-5.3949,-5.3545,-5.3219,-5.3128,-5.3129,-5.3196,-5.345,-5.3501,-5.3331,-5.2773,-5.2821,-5.281,-5.2403,-5.2221,-5.209,-5.1878,-5.0901,-4.9509,-4.7765,-4.6152,-4.5573,-4.646,-4.6758,-4.7123,-4.762,-4.8303,-4.869,-4.869,-4.869,-4.8564,-4.8373,-4.7591,-4.7511,-4.8001,-4.7255,-4.7272,-4.8001,-4.8001,-4.8001,-1.7341,-1.7798,0.0,0.0,0.0,0.0,0.0,0.0,0.0,0.0,0.0,0.0,0.0,0.0,0.0,0.0,0.0,0.0,0.0,0.0,0.0,0.0,0.0,0.0,0.0,0.0,0.0,0.0,0.0,0.0,0.0,-4.4952,-4.4886,-4.4886,-4.3989,-4.3497,-4.3497,-4.4287,-4.4709,-4.4727,-4.5516,-4.7168,-4.9536,-4.9554,-4.9994,-5.0765,-5.0765,-5.0784,-5.0784,-5.0784,-5.0306,-4.9499,-4.8655,-4.8247,-4.8187,-4.8187,-4.8598,-4.9083,-4.9083,-4.9901,-5.085,-5.049,-5.0759,-5.114,-5.0822,-5.0497,-5.0393,-5.0863,-5.0807,-5.0833,-5.1959,-5.2128,-5.2101,-5.2763,-5.2162,-5.1613,-5.2213,-5.23,-5.2536,-5.3348,-5.3501,-5.3501,-5.3501,-5.3601,-5.3528,-5.2908,-5.2789,-5.2482,-5.1478,-5.0604,-4.9338,-4.7391,-4.6354,-4.5781,-4.5781,-4.646,-4.6874,-4.6891,-4.7587,-4.8001,-4.8001,-4.8001,-4.8001,-4.8001,-4.7272,-4.7272,-4.8001,-4.7272,-4.7289,-4.8001,-4.8001,-4.8001,-1.7273,0.0,0.0,0.0,0.0,0.0,0.0,0.0,0.0,0.0,0.0,0.0,0.0,0.0,0.0,0.0,0.0,0.0,0.0,0.0,0.0,0.0,0.0,0.0,0.0,0.0,0.0,0.0,0.0,0.0,0.0,-4.2857,-4.3103,-4.3054,-4.3367,-4.3497,-4.3497,-4.3736,-4.414,-4.4709,-4.4947,-4.5736,-4.7021,-4.759,-4.7976,-4.8251,-4.8802,-4.904,-4.9095,-4.9701,-4.9811,-4.9554,-4.9218,-4.8681,-4.805,-4.7806,-4.8103,-4.8658,-4.8542,-4.9287,-5.0279,-4.9922,-5.0207,-5.0602,-5.0233,-5.0005,-4.9901,-4.9906,-4.9812,-4.979,-5.0553,-5.0328,-5.0306,-5.2089,-5.1888,-5.1485,-5.2147,-5.23,-5.2536,-5.3348,-5.3501,-5.3501,-5.3501,-5.3568,-5.3483,-5.333,-5.3195,-5.2505,-5.0894,-5.0057,-4.8723,-4.647,-4.5528,-4.5019,-4.5019,-4.5218,-4.5798,-4.6825,-4.7106,-4.7454,-4.7984,-4.8001,-4.8001,-4.8001,-4.7785,-4.7785,-4.8001,-4.7785,-4.7785,-4.8001,-4.8001,-4.8001,-1.7109,0.0,0.0,0.0,0.0,0.0,0.0,0.0,0.0,0.0,0.0,0.0,0.0,0.0,0.0,0.0,0.0,0.0,0.0,0.0,0.0,0.0,0.0,0.0,0.0,0.0,0.0,0.0,0.0,0.0,0.0,-4.1632,-4.2022,-4.2286,-4.2763,-4.3167,-4.3497,-4.3497,-4.3736,-4.4213,-4.4213,-4.4488,-4.4984,-4.6122,-4.6819,-4.715,-4.7957,-4.8306,-4.8343,-4.8857,-4.9077,-4.9056,-4.8959,-4.8448,-4.7747,-4.7432,-4.7519,-4.7668,-4.7453,-4.7978,-4.8766,-4.8452,-4.8931,-4.9568,-4.9203,-4.9231,-4.9411,-4.929,-4.9229,-4.9277,-4.9961,-4.9543,-4.9407,-5.1031,-5.0862,-5.0541,-5.1268,-5.142,-5.1657,-5.2452,-5.2824,-5.3027,-5.2977,-5.3163,-5.3348,-5.328,-5.3058,-5.2468,-5.0992,-4.9926,-4.8613,-4.6841,-4.5483,-4.4688,-4.4688,-4.4688,-4.5069,-4.5963,-4.6576,-4.7106,-4.7537,-4.7835,-4.8001,-4.8001,-4.8001,-4.8001,-4.8001,-4.8001,-4.8001,-4.8001,-4.8001,-4.8001,0.0,0.0,0.0,0.0,0.0,0.0,0.0,0.0,0.0,0.0,0.0,0.0,0.0,0.0,0.0,0.0,0.0,0.0,0.0,0.0,0.0,0.0,0.0,0.0,0.0,0.0,0.0,0.0,0.0,0.0,0.0,-4.0979,-4.1332,-4.2066,-4.2158,-4.2543,-4.3259,-4.3332,-4.3387,-4.3387,-4.3442,-4.3497,-4.3534,-4.5094,-4.6269,-4.715,-4.7884,-4.8233,-4.8306,-4.8306,-4.8247,-4.8187,-4.8148,-4.7847,-4.7407,-4.7107,-4.6771,-4.6406,-4.6116,-4.6391,-4.6795,-4.6581,-4.7356,-4.8319,-4.7979,-4.8426,-4.9001,-4.9001,-4.9001,-4.9154,-4.9813,-4.9492,-4.9171,-4.983,-4.9492,-4.9204,-4.9932,-5.0084,-5.0321,-5.1065,-5.1742,-5.2166,-5.2085,-5.264,-5.3043,-5.2886,-5.2694,-5.2357,-5.1555,-5.0189,-4.8978,-4.81,-4.6129,-4.4837,-4.4705,-4.4622,-4.4622,-4.4688,-4.6013,-4.6825,-4.6891,-4.7603,-4.8001,-4.8001,-4.8001,-4.8001,-4.8001,-4.8001,-4.8001,-4.8001,-4.7935,-4.7935,0.0,0.0,0.0,0.0,0.0,0.0,0.0,0.0,0.0,0.0,0.0,0.0,0.0,0.0,0.0,0.0,0.0,0.0,0.0,0.0,0.0,0.0,0.0,0.0,0.0,0.0,0.0,0.0,0.0,0.0,-3.9234,-3.9808,-4.023,-4.0396,-4.1038,-4.1442,-4.1625,-4.2249,-4.2561,0.0,-4.3185,-4.3497,-4.3516,-4.4507,-4.5755,-4.7131,-4.7297,-4.7737,-4.8306,-4.8247,-4.813,-4.801,-4.7765,-4.7389,-4.6972,-4.6554,-4.6217,-4.592,-4.5615,-4.596,-4.6384,-4.6272,-4.7056,-4.8107,-4.7962,-4.8426,-4.9001,-4.9001,-4.9001,-4.9035,-4.9204,-4.912,-4.9035,-4.9204,-4.912,-4.9204,-4.9932,-5.0084,-5.0321,-5.1065,-5.1223,-5.1461,-5.2001,-5.2085,-5.2234,-5.2611,-5.2624,-5.2304,-5.1433,-5.1068,-5.0088,-4.8199,-4.7057,-4.5947,-4.4787,-4.4175,-4.4092,-4.4655,-4.5533,-4.6295,-4.6874,-4.7603,-4.8001,-4.8001,-4.8001,-4.8001,-4.8001,-4.8001,-4.7935,-4.777,-4.7621,-4.7504,0.0,0.0,0.0,0.0,0.0,0.0,0.0,0.0,0.0,0.0,0.0,0.0,0.0,0.0,0.0,0.0,0.0,0.0,0.0,0.0,0.0,0.0,0.0,0.0,0.0,0.0,0.0,0.0,0.0,-3.875,-3.8707,-3.9093,-3.9496,-3.9882,-4.0304,-4.0726,-4.1111,-4.1534,-4.1735,-4.1754,-4.2543,-4.313,-4.3516,-4.4342,-4.5369,-4.6562,-4.6948,-4.7534,-4.8247,-4.8226,-4.801,-4.7747,-4.745,-4.7017,-4.6489,-4.5953,-4.5615,-4.5389,-4.514,-4.5234,-4.5448,-4.5409,-4.6078,-4.6954,-4.6853,-4.7631,-4.8477,-4.8477,-4.8731,-4.9001,-4.9001,-4.9001,-4.9001,-4.9001,-4.9001,-4.9103,-4.9429,-4.9451,-4.9569,-4.9877,-5.0118,-5.054,-5.1145,-5.1729,-5.2191,-5.2449,-5.2499,-5.2366,-5.186,-5.1496,-5.0701,-4.9226,-4.8084,-4.6974,-4.5847,-4.4754,-4.4291,-4.4671,-4.5384,-4.5963,-4.6344,-4.7421,-4.8001,-4.8001,-4.8001,-4.8001,-4.8001,-4.8001,-4.7853,-4.7555,-4.7253,-4.6997,0.0,0.0,0.0,0.0,0.0,0.0,0.0,0.0,0.0,0.0,0.0,0.0,0.0,0.0,0.0,0.0,0.0,0.0,0.0,0.0,0.0,0.0,0.0,0.0,0.0,0.0,0.0,0.0,0.0,-3.8707,-3.8707,-3.8707,-3.9019,-3.9662,-3.968,-4.001,-4.0689,-4.0836,-4.0891,-4.091,-4.1717,-4.2525,-4.3314,-4.3958,-4.4765,-4.57,-4.6525,-4.7256,-4.7947,-4.8093,-4.7907,-4.7468,-4.7169,-4.6695,-4.6137,-4.5494,-4.5142,-4.4978,-4.4682,-4.4587,-4.4587,-4.4587,-4.5094,-4.5703,-4.5703,-4.6735,-4.7919,-4.7919,-4.8443,-4.9001,-4.894,-4.8956,-4.894,-4.894,-4.894,-4.8877,-4.8832,-4.8769,-4.8707,-4.8547,-4.9187,-4.9842,-5.0309,-5.1536,-5.2373,-5.2373,-5.2373,-5.2373,-5.2373,-5.1843,-5.1197,-5.0469,-4.9193,-4.8084,-4.7338,-4.5914,-4.5069,-4.5069,-4.5649,-4.598,-4.598,-4.7404,-4.8068,-4.7935,-4.7935,-4.7869,-4.7869,-4.7869,-4.7571,-4.7134,-4.6759,-4.6324,0.0,0.0,0.0,0.0,0.0,0.0,0.0,0.0,0.0,0.0,0.0,0.0,0.0,0.0,0.0,0.0,0.0,0.0,0.0,0.0,0.0,0.0,0.0,0.0,0.0,0.0,0.0,0.0,-3.8303,-3.8707,-3.8707,-3.8707,-3.8762,-3.8854,-3.8854,-3.8909,-3.9019,-3.9717,-4.0065,-4.0065,-4.0891,-4.1632,-4.237,-4.2461,-4.3339,-4.4803,-4.5496,-4.6262,-4.7025,-4.7692,-4.7759,-4.7468,-4.7007,-4.659,-4.6137,-4.5477,-4.5123,-4.4978,-4.4682,-4.4587,-4.4587,-4.4587,-4.5094,-4.5703,-4.5703,-4.6735,-4.7919,-4.7919,-4.8443,-4.894,-4.8832,-4.8849,-4.8769,-4.8627,-4.8547,-4.8627,-4.8769,-4.8627,-4.8547,-4.8483,-4.9458,-5.0309,-5.0239,-5.1413,-5.2373,-5.2373,-5.2373,-5.2373,-5.2373,-5.2291,-5.1943,-5.1214,-5.0402,-4.9624,-4.8879,-4.7454,-4.6609,-4.6609,-4.6692,-4.6742,-4.6742,-4.8166,-4.8514,-4.7488,-4.7488,-4.7421,-4.7319,-4.7098,-4.6722,-4.6214,-4.5753,-4.5243,0.0,0.0,0.0,0.0,0.0,0.0,0.0,0.0,0.0,0.0,0.0,0.0,0.0,0.0,0.0,0.0,0.0,0.0,0.0,0.0,0.0,0.0,0.0,0.0,0.0,0.0,0.0,0.0,-3.7826,-3.8212,-3.8689,-3.8707,-3.8707,-3.8707,-3.8707,-3.8707,-3.8707,-3.9056,-3.9428,-3.9855,-4.0119,-4.0672,-4.1423,-4.1829,-4.2923,-4.4528,-4.5294,-4.6038,-4.6779,-4.7575,-4.7717,-4.7363,-4.6989,-4.6619,-4.6137,-4.5511,-4.5159,-4.4978,-4.4682,-4.4587,-4.4587,-4.4587,-4.4807,-4.5077,-4.5077,-4.6109,-4.7293,-4.7293,-4.8061,-4.8894,-4.8849,-4.8707,-4.8627,-4.8547,-4.842,-4.8356,-4.8436,-4.8356,-4.8292,-4.8244,-4.931,-5.0255,-5.0204,-5.1413,-5.2373,-5.2373,-5.2373,-5.2373,-5.2373,-5.2373,-5.2092,-5.1363,-5.0999,-5.0518,-4.979,-4.8746,-4.7886,-4.739,-4.7227,-4.7161,-4.7029,-4.7893,-4.8009,-4.7162,-4.7513,-4.7318,-4.6512,-4.6182,-4.5737,-4.5153,-4.4781,-4.4266,0.0,0.0,0.0,0.0,0.0,0.0,0.0,0.0,0.0,0.0,0.0,0.0,0.0,0.0,0.0,0.0,0.0,0.0,0.0,0.0,0.0,0.0,0.0,0.0,0.0,0.0,0.0,0.0,-3.7239,-3.7753,-3.8358,-3.8597,-3.8707,-3.8707,-3.8707,-3.8707,-3.8707,-3.8658,-3.8939,-3.9447,-3.9345,-3.9714,-4.0482,-4.105,-4.2196,-4.3761,-4.478,-4.5612,-4.635,-4.7125,-4.7349,-4.7169,-4.688,-4.6507,-4.6087,-4.5494,-4.5159,-4.4978,-4.4682,-4.4587,-4.457,-4.4514,-4.4514,-4.4514,-4.4457,-4.5486,-4.6667,-4.6667,-4.7686,-4.8707,-4.8644,-4.8564,-4.842,-4.8356,-4.8244,-4.8179,-4.8179,-4.8179,-4.8115,-4.8001,-4.9193,-5.022,-5.022,-5.1413,-5.2373,-5.2373,-5.2373,-5.2373,-5.2373,-5.2373,-5.2175,-5.1612,-5.1562,-5.1347,-5.0817,-5.0088,-4.9341,-4.851,-4.7991,-4.7602,-4.7341,-4.7702,-4.7531,-4.6575,-4.7104,-4.6843,-4.5624,-4.5153,-4.469,-4.4174,-4.3804,-4.3427,0.0,0.0,0.0,0.0,0.0,0.0,0.0,0.0,0.0,0.0,0.0,0.0,0.0,0.0,0.0,0.0,0.0,0.0,0.0,0.0,0.0,0.0,0.0,0.0,0.0,0.0,0.0,0.0,-3.6597,-3.7514,-3.7551,-3.8285,-3.8707,-3.8707,-3.8707,-3.8707,-3.8707,-3.8559,-3.8496,-3.8488,-3.8455,-3.886,-3.9579,-3.9615,-4.0436,-4.1922,-4.348,-4.4563,-4.5238,-4.5888,-4.6506,-4.698,-4.659,-4.6235,-4.5938,-4.5372,-4.514,-4.4978,-4.4682,-4.4587,-4.457,-4.4367,-4.431,-4.431,-4.4155,-4.5135,-4.6351,-4.6351,-4.7345,-4.8483,-4.8292,-4.8227,-4.8163,-4.8066,-4.8001,-4.8001,-4.8001,-4.8001,-4.8001,-4.8001,-4.9193,-5.022,-5.022,-5.1413,-5.2373,-5.2373,-5.2373,-5.2373,-5.2373,-5.2373,-5.2373,-5.2324,-5.2324,-5.2307,-5.2274,-5.1595,-5.0991,-5.0588,-4.9313,-4.84,-4.7972,-4.7949,-4.7216,-4.5495,-4.5795,-4.5489,-4.4586,-4.4143,-4.3756,-4.3364,-4.314,-4.2835,0.0,0.0,0.0,0.0,0.0,0.0,0.0,0.0,0.0,0.0,0.0,0.0,0.0,0.0,0.0,0.0,0.0,0.0,0.0,0.0,0.0,0.0,0.0,0.0,0.0,0.0,0.0,0.0,0.0,-3.6252,-3.7253,-3.7582,-3.7747,-3.7747,-3.824,-3.8515,-3.8515,-3.8419,-3.8303,-3.8219,-3.8104,-3.8164,-3.8383,-3.8834,-3.9337,-3.9928,-4.1489,-4.2965,-4.4358,-4.5387,-4.5909,-4.6003,-4.6152,-4.6052,-4.5819,-4.539,-4.5159,-4.4978,-4.4682,-4.4514,-4.4384,-4.431,-4.4253,-4.4138,-4.4097,-4.5135,-4.629,-4.629,-4.7283,-4.8292,-4.8227,-4.8115,-4.8049,-4.8001,-4.8001,-4.8001,-4.8001,-4.8001,-4.8001,-4.8001,-4.9193,-5.022,-5.022,-5.1413,-5.2373,-5.2373,-5.2373,-5.2373,-5.2247,-5.2086,-5.1941,-5.1868,-5.1688,-5.1598,-5.1598,-5.1337,-5.0774,-4.9711,-4.897,-4.8276,-4.773,-4.7469,-4.6692,-4.5405,-4.5289,-4.4764,-4.3521,-4.3155,-4.2769,-4.2541,-4.2474,-4.2325,0.0,0.0,0.0,0.0,0.0,0.0,0.0,0.0,0.0,0.0,0.0,0.0,0.0,0.0,0.0,0.0,0.0,0.0,0.0,0.0,0.0,0.0,0.0,0.0,0.0,0.0,0.0,0.0,0.0,0.0,-3.634,-3.665,-3.6796,-3.6796,-3.758,-3.8,-3.7968,-3.8194,-3.8223,-3.8018,-3.7863,-3.7667,-3.7559,-3.7982,-3.8297,-3.8599,-3.9647,-4.1261,-4.3245,-4.452,-4.5092,-4.5223,-4.5688,-4.5751,-4.558,-4.5302,-4.5106,-4.4886,-4.4682,-4.444,-4.4293,-4.4253,-4.4155,-4.3998,-4.3923,-4.494,-4.6107,-4.6107,-4.7095,-4.8098,-4.8098,-4.8066,-4.8001,-4.8001,-4.8001,-4.8001,-4.8001,-4.8199,-4.8365,-4.8365,-4.9558,-5.0568,-5.0568,-5.1578,-5.2373,-5.2373,-5.2373,-5.2302,-5.2013,-5.1778,-5.145,-5.1075,-5.0723,-5.0538,-5.0445,-5.0445,-5.0006,-4.8938,-4.8431,-4.7865,-4.7319,-4.6831,-4.6107,-4.5198,-4.5014,-4.4295,-4.2998,-4.2494,-4.2242,-4.2092,-4.2092,-4.2009,0.0,0.0,0.0,0.0,0.0,0.0,0.0,0.0,0.0,0.0,0.0,0.0,0.0,0.0,0.0,0.0,0.0,0.0,0.0,0.0,0.0,0.0,0.0,0.0,0.0,0.0,0.0,0.0,-3.4373,-3.4783,-3.4772,-3.552,-3.5976,-3.5994,-3.676,-3.7116,-3.7108,-3.7907,-3.8174,-3.7899,-3.7613,-3.7395,-3.7188,-3.6978,-3.7321,-3.8081,-3.8099,-3.9482,-4.1892,-4.3212,-4.41,-4.4707,-4.5183,-4.5283,-4.5194,-4.5032,-4.4886,-4.4793,-4.4626,-4.444,-4.4253,-4.4155,-4.3998,-4.3839,-4.3628,-4.4638,-4.5798,-4.5798,-4.6858,-4.8001,-4.8001,-4.8001,-4.8001,-4.8001,-4.8001,-4.8001,-4.8001,-4.858,-4.9094,-4.9077,-5.0253,-5.1247,-5.1247,-5.1877,-5.2373,-5.2373,-5.239,-5.223,-5.1851,-5.1376,-5.08,-5.0135,-4.9726,-4.9311,-4.9103,-4.9103,-4.8876,-4.8496,-4.7858,-4.7291,-4.6916,-4.6225,-4.5576,-4.4893,-4.4864,-4.424,-4.2992,-4.2411,-4.2121,-4.2092,-4.2092,-4.1829,-1.343,0.0,0.0,0.0,0.0,0.0,0.0,0.0,0.0,0.0,0.0,0.0,0.0,0.0,0.0,0.0,0.0,0.0,0.0,0.0,0.0,0.0,0.0,0.0,0.0,0.0,0.0,0.0,-3.3749,-3.4073,-3.4613,-3.4867,-3.5248,-3.5846,-3.6082,-3.6463,-3.7025,-3.7809,-3.8106,-3.7917,-3.7595,-3.7301,-3.7129,-3.6891,-3.687,-3.7097,-3.7537,-3.8417,-3.9641,-4.1643,-4.2748,-4.3357,-4.4429,-4.4776,-4.4776,-4.472,-4.4682,-4.4626,-4.4626,-4.4384,-4.4155,-4.4097,-4.3923,-4.3687,-4.3628,-4.4638,-4.5798,-4.5798,-4.6858,-4.8001,-4.8001,-4.8001,-4.8001,-4.8001,-4.8001,-4.8001,-4.8001,-4.858,-4.8945,-4.8415,-4.9508,-5.0502,-5.0502,-5.1545,-5.2373,-5.2175,-5.2086,-5.1704,-5.1,-5.0322,-4.9742,-4.9116,-4.8625,-4.8293,-4.821,-4.8194,-4.8027,-4.7603,-4.7219,-4.6901,-4.6388,-4.606,-4.5576,-4.4893,-4.4458,-4.3748,-4.2767,-4.2748,-4.2528,-4.2092,-4.1745,-4.1283,0.0,0.0,0.0,0.0,0.0,0.0,0.0,-2.0214,0.0,0.0,0.0,0.0,0.0,0.0,0.0,0.0,0.0,0.0,0.0,0.0,0.0,0.0,0.0,0.0,0.0,-3.3953,-3.4069,-3.4,-3.4298,-3.4637,-3.5077,-3.5113,-3.5168,-3.5313,-3.5639,-3.5874,-3.5983,-3.7123,-3.7618,-3.7413,-3.7434,-3.7339,-3.7129,-3.6873,-3.6731,-3.6684,-3.6953,-3.7594,-3.8551,-4.0052,-4.1442,-4.2739,-4.3732,-4.4282,-4.4587,-4.4587,-4.4587,-4.4587,-4.4497,-4.4327,-4.4097,-4.4056,-4.3805,-4.3628,-4.3628,-4.4638,-4.5798,-4.5798,-4.6858,-4.8001,-4.8001,-4.8001,-4.8001,-4.8001,-4.8001,-4.8001,-4.7919,-4.8117,-4.8381,-4.8415,-4.9657,-5.0651,-5.0651,-5.1612,-5.2302,-5.2013,-5.1688,-5.1135,-5.0245,-4.9423,-4.8677,-4.7988,-4.7478,-4.7148,-4.7061,-4.7061,-4.6974,-4.6711,-4.6565,-4.6403,-4.6046,-4.597,-4.5576,-4.4893,-4.4545,-4.3647,-4.2224,-4.2308,-4.2091,-4.148,-4.1043,-4.0502,-1.6706,0.0,0.0,0.0,0.0,0.0,-1.9175,-2.001,0.0,0.0,0.0,0.0,0.0,0.0,0.0,0.0,0.0,0.0,0.0,0.0,0.0,0.0,0.0,0.0,-3.3369,-3.396,-3.4309,-3.428,-3.5054,-3.5584,-3.5625,-3.5716,-3.5408,-3.4563,-3.5322,-3.5358,-3.4545,-3.6059,-3.6757,-3.6644,-3.7113,-3.7287,-3.7188,-3.6956,-3.6759,-3.6591,-3.6385,-3.7033,-3.8218,-3.8679,-4.0239,-4.2428,-4.3152,-4.3842,-4.4468,-4.4553,-4.4587,-4.4514,-4.4367,-4.4196,-4.4056,-4.3956,-4.3763,-4.3628,-4.3628,-4.4572,-4.5698,-4.5864,-4.6924,-4.8001,-4.8001,-4.8001,-4.8001,-4.8001,-4.8001,-4.7935,-4.7704,-4.7488,-4.7601,-4.8561,-4.9951,-5.0946,-5.0946,-5.1574,-5.1911,-5.1459,-5.0967,-5.0314,-4.9268,-4.8363,-4.7561,-4.6694,-4.6182,-4.5916,-4.5677,-4.5677,-4.5677,-4.5677,-4.5677,-4.5677,-4.5677,-4.5677,-4.5387,-4.4792,-4.4617,-4.3455,-4.1373,-4.1298,-4.0944,-4.0516,-4.0083,-3.9557,-1.7003,-1.7096,-1.7133,-1.73,0.0,0.0,0.0,-1.8748,0.0,0.0,0.0,0.0,0.0,0.0,0.0,0.0,0.0,0.0,0.0,0.0,0.0,0.0,0.0,0.0,-3.1608,-3.1765,-3.1774,-3.1719,-3.3049,-3.4105,-3.4627,-3.5231,-3.5166,-3.4311,-3.4963,-3.4947,-3.4211,-3.5142,-3.5862,-3.6399,-3.6307,-3.6547,-3.7048,-3.6829,-3.6667,-3.6485,-3.6293,-3.6962,-3.8184,-3.8024,-3.9311,-4.1611,-4.2895,-4.3521,-4.3724,-4.435,-4.4514,-4.4367,-4.4293,-4.4155,-4.3956,-4.3898,-4.3763,-4.3628,-4.3628,-4.4224,-4.5152,-4.6344,-4.7322,-4.8001,-4.8001,-4.8001,-4.8001,-4.8001,-4.8001,-4.7919,-4.7555,-4.7186,-4.6876,-4.6829,-4.7853,-4.8665,-4.8665,-4.9268,-4.9523,-4.8978,-4.8481,-4.7839,-4.6766,-4.6033,-4.5397,-4.4846,-4.4602,-4.4443,-4.4356,-4.4356,-4.4356,-4.4356,-4.4356,-4.4356,-4.4356,-4.4356,-4.4197,-4.3849,-4.2647,-4.1249,-3.9721,-4.0083,-3.9927,-3.9489,-3.9046,-3.8522,-1.8228,-1.8339,-1.8339,-1.8339,0.0,0.0,0.0,0.0,0.0,0.0,0.0,0.0,0.0,0.0,0.0,0.0,0.0,0.0,0.0,0.0,0.0,0.0,0.0,0.0,-3.1089,-3.1456,-3.1982,-3.2741,-3.3918,-3.487,-3.5519,-3.6159,-3.6076,-3.5118,-3.5314,-3.4925,-3.3756,-3.4535,-3.5137,-3.5454,-3.5768,-3.6274,-3.6952,-3.6834,-3.6713,-3.6527,-3.6318,-3.6757,-3.7546,-3.7672,-3.8571,-4.0086,-4.1937,-4.2879,-4.3283,-4.4057,-4.427,-4.4196,-4.4097,-4.3998,-4.3898,-4.3763,-4.3687,-4.3628,-4.3628,-4.4373,-4.5467,-4.6576,-4.7438,-4.8001,-4.7853,-4.7787,-4.7704,-4.7588,-4.7521,-4.7286,-4.6775,-4.641,-4.5969,-4.5478,-4.5688,-4.6255,-4.71,-4.7812,-4.8142,-4.7462,-4.7029,-4.6401,-4.5574,-4.5025,-4.4549,-4.4237,-4.4065,-4.3993,-4.3993,-4.3993,-4.3993,-4.3993,-4.3993,-4.3993,-4.3993,-4.3993,-4.356,-4.2651,-4.1095,-3.9755,-3.8549,-3.8419,-3.8315,-3.8328,-3.7978,-3.7533,0.0,0.0,0.0,0.0,0.0,-1.9546,0.0,0.0,0.0,0.0,0.0,0.0,0.0,0.0,0.0,0.0,0.0,0.0,0.0,0.0,0.0,0.0,0.0,0.0,0.0,-3.0975,-3.1944,-3.3556,-3.4425,-3.52,-3.5942,-3.6648,-3.6612,-3.5735,-3.5492,-3.4696,-3.3315,-3.3964,-3.4279,-3.4296,-3.5066,-3.5836,-3.6531,-3.6671,-3.662,-3.6451,-3.6259,-3.6429,-3.6881,-3.7424,-3.7986,-3.8756,-4.0883,-4.2138,-4.2875,-4.3612,-4.398,-4.4056,-4.3956,-4.3898,-4.3839,-4.3628,-4.3628,-4.3628,-4.3628,-4.4638,-4.5914,-4.651,-4.7322,-4.7919,-4.7704,-4.7471,-4.727,-4.7098,-4.6807,-4.6512,-4.5913,-4.5478,-4.4962,-4.4358,-4.3912,-4.4141,-4.569,-4.6387,-4.6624,-4.6032,-4.562,-4.5152,-4.4555,-4.4097,-4.3772,-4.3631,-4.3616,-4.3616,-4.3616,-4.3616,-4.3616,-4.353,-4.353,-4.3444,-4.343,-4.3257,-4.2464,-4.1128,-3.9687,-3.8459,-3.7533,-3.6896,-3.6815,-3.7188,-3.6922,-3.6534,0.0,0.0,0.0,0.0,-2.0121,0.0,0.0,0.0,0.0,0.0,0.0,0.0,0.0,0.0,0.0,0.0,0.0,0.0,0.0,0.0,0.0,0.0,0.0,0.0,0.0,-2.7955,-2.8612,-3.0206,-3.1075,-3.2083,-3.3333,-3.4549,-3.503,-3.4664,-3.438,-3.3809,-3.298,-3.3066,-3.3101,-3.3118,-3.38,-3.4479,-3.5218,-3.5771,-3.595,-3.5854,-3.5739,-3.6045,-3.6666,-3.7151,-3.7786,-3.8587,-4.0261,-4.1385,-4.2122,-4.2842,-4.3487,-4.3898,-4.3898,-4.3763,-4.3628,-4.3628,-4.3628,-4.3628,-4.3628,-4.4638,-4.5814,-4.5897,-4.6924,-4.7919,-4.7555,-4.7186,-4.6759,-4.6496,-4.6143,-4.5697,-4.5036,-4.4586,-4.4143,-4.3506,-4.314,-4.309,-4.4003,-4.4234,-4.4124,-4.3732,-4.3509,-4.3203,-4.2761,-4.2461,-4.231,-4.231,-4.231,-4.231,-4.231,-4.231,-4.2212,-4.2002,-4.1764,-4.1596,-4.1383,-4.051,-3.9856,-3.9181,-3.8187,-3.7243,-3.6508,-3.6238,-3.6073,-3.6193,-3.5908,-3.5716,0.0,0.0,0.0,0.0,0.0,0.0,-1.9137,0.0,-1.9444,0.0,0.0,0.0,0.0,0.0,0.0,0.0,0.0,0.0,0.0,0.0,0.0,0.0,0.0,0.0,0.0,0.0,0.0,0.0,-2.9156,-3.0359,-3.2094,-3.3367,-3.4107,-3.4202,-3.4277,-3.3953,-3.3179,-3.3588,-3.3605,-3.3131,-3.3803,-3.427,-3.4583,-3.5222,-3.5532,-3.5503,-3.5458,-3.5551,-3.581,-3.6402,-3.7053,-3.7768,-3.8866,-4.023,-4.1693,-4.2425,-4.3174,-4.3704,-4.3704,-4.3687,-4.3568,-4.3509,-4.3432,-4.3312,-4.3207,-4.4145,-4.5227,-4.5227,-4.6258,-4.7218,-4.6705,-4.6269,-4.5897,-4.5405,-4.4962,-4.451,-4.4051,-4.3678,-4.3379,-4.2835,-4.2541,-4.2474,-4.2784,-4.293,-4.293,-4.2622,-4.2541,-4.2392,-4.2242,-4.2175,-4.2092,-4.2092,-4.2092,-4.2092,-4.2092,-4.2092,-4.1912,-4.1549,-4.0916,-4.0374,-4.0014,-3.921,-3.8496,-3.8069,-3.723,-3.6508,-3.5883,-3.5692,-3.5512,-3.5524,-3.5416,-3.532,-2.0251,0.0,0.0,0.0,0.0,0.0,0.0,0.0,0.0,0.0,0.0,0.0,0.0,0.0,0.0,0.0,0.0,0.0,0.0,0.0,0.0,0.0,0.0,0.0,0.0,0.0,0.0,0.0,0.0,-2.8702,-3.0523,-3.1996,-3.2946,-3.3369,-3.3904,-3.3947,-3.3406,-3.409,-3.3946,-3.2984,-3.3805,-3.4197,-3.4175,-3.5065,-3.5499,-3.5499,-3.5499,-3.5335,-3.5108,-3.5856,-3.6538,-3.7185,-3.793,-3.952,-4.1475,-4.2021,-4.2816,-4.3628,-4.3628,-4.3628,-4.3568,-4.3372,-4.3174,-4.2912,-4.268,-4.3428,-4.4407,-4.434,-4.5335,-4.6269,-4.5753,-4.5316,-4.4871,-4.4282,-4.3834,-4.3457,-4.314,-4.2915,-4.2769,-4.2392,-4.2175,-4.2092,-4.2092,-4.2242,-4.2242,-4.2092,-4.2092,-4.2092,-4.2092,-4.2092,-4.2092,-4.2092,-4.2092,-4.2092,-4.1995,-4.1912,-4.1578,-4.0773,-3.9839,-3.9108,-3.8662,-3.7939,-3.7402,-3.7057,-3.632,-3.5775,-3.5416,-3.5223,-3.5126,-3.5126,-3.5126,-3.503,0.0,0.0,0.0,-2.0752,0.0,0.0,0.0,0.0,-1.9711,0.0,0.0,0.0,0.0,0.0,0.0,0.0,0.0,0.0,0.0,0.0,0.0,0.0,0.0,0.0,0.0,0.0,0.0,0.0,0.0,0.0,-2.8144,-3.0096,-3.1342,-3.1763,-3.2866,-3.3423,-3.3406,-3.3987,-3.3573,-3.2143,-3.3395,-3.4022,-3.4027,-3.5361,-3.5976,-3.5976,-3.5976,-3.5562,-3.4949,-3.5694,-3.6439,-3.7185,-3.793,-3.952,-4.1409,-4.1442,-4.2369,-4.3628,-4.3628,-4.3628,-4.3568,-4.3235,-4.2912,-4.2522,-4.1997,-4.2541,-4.3286,-4.3146,-4.4028,-4.5001,-4.4615,-4.4251,-4.3881,-4.3442,-4.3061,-4.2688,-4.2459,-4.2392,-4.2325,-4.2175,-4.2092,-4.2092,-4.2092,-4.2092,-4.2092,-4.2092,-4.2092,-4.2092,-4.2092,-4.2092,-4.2092,-4.2092,-4.2092,-4.1995,-4.1702,-4.1549,-4.0688,-3.9073,-3.8264,-3.7612,-3.715,-3.6684,-3.6225,-3.6061,-3.55,-3.5126,-3.4835,-3.4835,-3.4823,-3.4823,-3.4823,-3.4823,0.0,0.0,-2.079,-2.079,0.0,0.0,0.0,0.0,0.0,0.0,0.0,0.0,0.0,0.0,0.0,0.0,0.0,0.0,0.0,0.0,0.0,0.0,0.0,0.0,0.0,0.0,0.0,0.0,-2.3123,0.0,0.0,-2.8368,-2.9983,-3.0919,-3.2559,-3.3364,-3.3262,-3.4465,-3.4494,-3.3372,-3.4301,-3.4692,-3.4631,-3.5562,-3.6009,-3.6009,-3.6009,-3.5578,-3.4916,-3.5164,-3.5992,-3.7135,-3.7384,-3.909,-4.1409,-4.1409,-4.2295,-4.3449,-4.319,-4.3068,-4.2834,-4.238,-4.1997,-4.1672,-4.1075,-4.1597,-4.2375,-4.2303,-4.321,-4.4174,-4.3804,-4.3506,-4.3205,-4.2769,-4.2474,-4.2325,-4.2257,-4.216,-4.2175,-4.2092,-4.2092,-4.2092,-4.2092,-4.2092,-4.2092,-4.2092,-4.2092,-4.2092,-4.2092,-4.2092,-4.2092,-4.2092,-4.2092,-4.1912,-4.1549,-4.0402,-3.9149,-3.7769,-3.7137,-3.6602,-3.6168,-3.5775,-3.55,-3.55,-3.5114,-3.492,-3.4823,-3.4823,-3.4823,-3.4823,-3.4433,-3.4237,-2.1832,-2.1591,0.0,-2.1189,-2.0559,0.0,-1.99,0.0,0.0,0.0,0.0,0.0,0.0,0.0,0.0,0.0,0.0,0.0,0.0,0.0,0.0,0.0,0.0,0.0,0.0,0.0,-2.0123,-2.0578,-2.1345,0.0,0.0,0.0,-2.862,-2.9591,-3.2032,-3.3253,-3.3168,-3.4645,-3.4789,-3.3606,-3.4559,-3.4994,-3.4932,-3.5943,-3.639,-3.639,-3.639,-3.5827,-3.4899,-3.4899,-3.5728,-3.7001,-3.6933,-3.8628,-4.1181,-4.1352,-4.2104,-4.3052,-4.268,-4.2333,-4.2029,-4.1509,-4.106,-4.0721,-4.013,-4.0628,-4.137,-4.1294,-4.219,-4.3235,-4.2915,-4.2769,-4.2607,-4.231,-4.216,-4.2092,-4.2092,-4.2092,-4.2092,-4.2092,-4.2092,-4.2092,-4.2092,-4.2092,-4.2092,-4.1995,-4.1912,-4.1829,-4.1731,-4.1647,-4.1578,-4.1578,-4.1578,-4.1311,-4.0588,-3.9176,-3.7808,-3.6671,-3.6225,-3.5775,-3.532,-3.503,-3.4835,-3.4738,-3.4531,-3.4335,-3.4237,-3.4237,-3.4237,-3.4237,-3.3732,-3.3335]}]]